<?xml version="1.0" encoding="UTF-8" standalone="no" ?>
<gpx xmlns="http://www.topografix.com/GPX/1/1" xmlns:xsi="http://www.w3.org/2001/XMLSchema-instance" xsi:schemaLocation="http://www.topografix.com/GPX/1/1 http://www.topografix.com/GPX/1/1/gpx.xsd" version="1.1" creator="VisuGPX - https://www.visugpx.com">
  <metadata>
    <name>RSPFY-Saint-Arnoult-en-Yvelines </name>
    <desc><![CDATA[marche nordique en boucle au départ de Saint-Arnoult-en-Yvelines.]]></desc>
  </metadata>
  <trk>
    <name><![CDATA[2019-02-21 09:28]]></name>
    <trkseg>
      <trkpt lat="48.57797" lon="1.94855">
        <ele>125</ele>
        <time>2019-02-21T08:31:30Z</time>
      </trkpt>
      <trkpt lat="48.57791" lon="1.94853">
        <ele>125</ele>
        <time>2019-02-21T08:31:34Z</time>
      </trkpt>
      <trkpt lat="48.57775" lon="1.94847">
        <ele>124</ele>
        <time>2019-02-21T08:31:38Z</time>
      </trkpt>
      <trkpt lat="48.5778" lon="1.9485">
        <ele>125</ele>
        <time>2019-02-21T08:31:46Z</time>
      </trkpt>
      <trkpt lat="48.57784" lon="1.94854">
        <ele>125</ele>
        <time>2019-02-21T08:32:32Z</time>
      </trkpt>
      <trkpt lat="48.57784" lon="1.94863">
        <ele>125</ele>
        <time>2019-02-21T08:34:12Z</time>
      </trkpt>
      <trkpt lat="48.57787" lon="1.94871">
        <ele>125</ele>
        <time>2019-02-21T08:34:20Z</time>
      </trkpt>
      <trkpt lat="48.57783" lon="1.94879">
        <ele>125</ele>
        <time>2019-02-21T08:34:28Z</time>
      </trkpt>
      <trkpt lat="48.57782" lon="1.94886">
        <ele>125</ele>
        <time>2019-02-21T08:34:34Z</time>
      </trkpt>
      <trkpt lat="48.57785" lon="1.94894">
        <ele>125</ele>
        <time>2019-02-21T08:34:40Z</time>
      </trkpt>
      <trkpt lat="48.57786" lon="1.94901">
        <ele>125</ele>
        <time>2019-02-21T08:34:46Z</time>
      </trkpt>
      <trkpt lat="48.57787" lon="1.94911">
        <ele>125</ele>
        <time>2019-02-21T08:34:52Z</time>
      </trkpt>
      <trkpt lat="48.57789" lon="1.9492">
        <ele>126</ele>
        <time>2019-02-21T08:35:00Z</time>
      </trkpt>
      <trkpt lat="48.57789" lon="1.94928">
        <ele>126</ele>
        <time>2019-02-21T08:35:04Z</time>
      </trkpt>
      <trkpt lat="48.57792" lon="1.94936">
        <ele>126</ele>
        <time>2019-02-21T08:35:10Z</time>
      </trkpt>
      <trkpt lat="48.57794" lon="1.94945">
        <ele>126</ele>
        <time>2019-02-21T08:35:16Z</time>
      </trkpt>
      <trkpt lat="48.57797" lon="1.94954">
        <ele>126</ele>
        <time>2019-02-21T08:35:22Z</time>
      </trkpt>
      <trkpt lat="48.57798" lon="1.94961">
        <ele>126</ele>
        <time>2019-02-21T08:35:26Z</time>
      </trkpt>
      <trkpt lat="48.57801" lon="1.94968">
        <ele>126</ele>
        <time>2019-02-21T08:35:30Z</time>
      </trkpt>
      <trkpt lat="48.57805" lon="1.94974">
        <ele>126</ele>
        <time>2019-02-21T08:35:34Z</time>
      </trkpt>
      <trkpt lat="48.57806" lon="1.94983">
        <ele>126</ele>
        <time>2019-02-21T08:35:38Z</time>
      </trkpt>
      <trkpt lat="48.57808" lon="1.94991">
        <ele>126</ele>
        <time>2019-02-21T08:35:42Z</time>
      </trkpt>
      <trkpt lat="48.57809" lon="1.94998">
        <ele>126</ele>
        <time>2019-02-21T08:35:46Z</time>
      </trkpt>
      <trkpt lat="48.57811" lon="1.95007">
        <ele>127</ele>
        <time>2019-02-21T08:35:50Z</time>
      </trkpt>
      <trkpt lat="48.57813" lon="1.95016">
        <ele>127</ele>
        <time>2019-02-21T08:35:54Z</time>
      </trkpt>
      <trkpt lat="48.57816" lon="1.95025">
        <ele>127</ele>
        <time>2019-02-21T08:35:58Z</time>
      </trkpt>
      <trkpt lat="48.57818" lon="1.95033">
        <ele>127</ele>
        <time>2019-02-21T08:36:02Z</time>
      </trkpt>
      <trkpt lat="48.57819" lon="1.95039">
        <ele>127</ele>
        <time>2019-02-21T08:36:06Z</time>
      </trkpt>
      <trkpt lat="48.57822" lon="1.95046">
        <ele>127</ele>
        <time>2019-02-21T08:36:10Z</time>
      </trkpt>
      <trkpt lat="48.57824" lon="1.95054">
        <ele>127</ele>
        <time>2019-02-21T08:36:14Z</time>
      </trkpt>
      <trkpt lat="48.57827" lon="1.9506">
        <ele>128</ele>
        <time>2019-02-21T08:36:18Z</time>
      </trkpt>
      <trkpt lat="48.57826" lon="1.95072">
        <ele>129</ele>
        <time>2019-02-21T08:36:22Z</time>
      </trkpt>
      <trkpt lat="48.57827" lon="1.95082">
        <ele>130</ele>
        <time>2019-02-21T08:36:26Z</time>
      </trkpt>
      <trkpt lat="48.57829" lon="1.9509">
        <ele>130</ele>
        <time>2019-02-21T08:36:30Z</time>
      </trkpt>
      <trkpt lat="48.57832" lon="1.951">
        <ele>129</ele>
        <time>2019-02-21T08:36:34Z</time>
      </trkpt>
      <trkpt lat="48.57833" lon="1.95109">
        <ele>129</ele>
        <time>2019-02-21T08:36:38Z</time>
      </trkpt>
      <trkpt lat="48.57832" lon="1.95121">
        <ele>129</ele>
        <time>2019-02-21T08:36:42Z</time>
      </trkpt>
      <trkpt lat="48.57832" lon="1.95129">
        <ele>129</ele>
        <time>2019-02-21T08:36:46Z</time>
      </trkpt>
      <trkpt lat="48.57832" lon="1.95138">
        <ele>129</ele>
        <time>2019-02-21T08:36:50Z</time>
      </trkpt>
      <trkpt lat="48.57832" lon="1.95148">
        <ele>129</ele>
        <time>2019-02-21T08:36:54Z</time>
      </trkpt>
      <trkpt lat="48.57834" lon="1.95157">
        <ele>132</ele>
        <time>2019-02-21T08:36:58Z</time>
      </trkpt>
      <trkpt lat="48.57831" lon="1.95165">
        <ele>132</ele>
        <time>2019-02-21T08:37:00Z</time>
      </trkpt>
      <trkpt lat="48.5783" lon="1.95176">
        <ele>131</ele>
        <time>2019-02-21T08:37:02Z</time>
      </trkpt>
      <trkpt lat="48.57833" lon="1.95185">
        <ele>130</ele>
        <time>2019-02-21T08:37:06Z</time>
      </trkpt>
      <trkpt lat="48.57836" lon="1.95194">
        <ele>133</ele>
        <time>2019-02-21T08:37:10Z</time>
      </trkpt>
      <trkpt lat="48.57837" lon="1.95204">
        <ele>134</ele>
        <time>2019-02-21T08:37:12Z</time>
      </trkpt>
      <trkpt lat="48.57836" lon="1.95212">
        <ele>134</ele>
        <time>2019-02-21T08:37:18Z</time>
      </trkpt>
      <trkpt lat="48.57841" lon="1.9522">
        <ele>133</ele>
        <time>2019-02-21T08:37:22Z</time>
      </trkpt>
      <trkpt lat="48.57841" lon="1.95227">
        <ele>133</ele>
        <time>2019-02-21T08:37:26Z</time>
      </trkpt>
      <trkpt lat="48.57844" lon="1.95235">
        <ele>133</ele>
        <time>2019-02-21T08:37:32Z</time>
      </trkpt>
      <trkpt lat="48.57845" lon="1.95243">
        <ele>133</ele>
        <time>2019-02-21T08:37:36Z</time>
      </trkpt>
      <trkpt lat="48.57848" lon="1.9525">
        <ele>133</ele>
        <time>2019-02-21T08:37:42Z</time>
      </trkpt>
      <trkpt lat="48.57852" lon="1.95259">
        <ele>134</ele>
        <time>2019-02-21T08:37:48Z</time>
      </trkpt>
      <trkpt lat="48.57856" lon="1.95265">
        <ele>134</ele>
        <time>2019-02-21T08:37:54Z</time>
      </trkpt>
      <trkpt lat="48.57858" lon="1.95271">
        <ele>134</ele>
        <time>2019-02-21T08:37:58Z</time>
      </trkpt>
      <trkpt lat="48.57861" lon="1.95277">
        <ele>135</ele>
        <time>2019-02-21T08:38:02Z</time>
      </trkpt>
      <trkpt lat="48.57862" lon="1.95287">
        <ele>135</ele>
        <time>2019-02-21T08:38:08Z</time>
      </trkpt>
      <trkpt lat="48.57865" lon="1.95291">
        <ele>135</ele>
        <time>2019-02-21T08:38:12Z</time>
      </trkpt>
      <trkpt lat="48.57869" lon="1.95299">
        <ele>135</ele>
        <time>2019-02-21T08:38:18Z</time>
      </trkpt>
      <trkpt lat="48.57871" lon="1.95308">
        <ele>135</ele>
        <time>2019-02-21T08:38:22Z</time>
      </trkpt>
      <trkpt lat="48.57873" lon="1.95317">
        <ele>135</ele>
        <time>2019-02-21T08:38:26Z</time>
      </trkpt>
      <trkpt lat="48.57874" lon="1.95329">
        <ele>136</ele>
        <time>2019-02-21T08:38:32Z</time>
      </trkpt>
      <trkpt lat="48.57879" lon="1.95334">
        <ele>137</ele>
        <time>2019-02-21T08:38:36Z</time>
      </trkpt>
      <trkpt lat="48.57883" lon="1.95342">
        <ele>138</ele>
        <time>2019-02-21T08:38:40Z</time>
      </trkpt>
      <trkpt lat="48.57885" lon="1.95349">
        <ele>138</ele>
        <time>2019-02-21T08:38:44Z</time>
      </trkpt>
      <trkpt lat="48.57886" lon="1.95357">
        <ele>138</ele>
        <time>2019-02-21T08:38:48Z</time>
      </trkpt>
      <trkpt lat="48.5789" lon="1.95362">
        <ele>138</ele>
        <time>2019-02-21T08:38:52Z</time>
      </trkpt>
      <trkpt lat="48.57891" lon="1.95368">
        <ele>138</ele>
        <time>2019-02-21T08:38:56Z</time>
      </trkpt>
      <trkpt lat="48.57894" lon="1.95376">
        <ele>138</ele>
        <time>2019-02-21T08:39:00Z</time>
      </trkpt>
      <trkpt lat="48.57894" lon="1.95384">
        <ele>139</ele>
        <time>2019-02-21T08:39:04Z</time>
      </trkpt>
      <trkpt lat="48.57892" lon="1.95393">
        <ele>139</ele>
        <time>2019-02-21T08:39:08Z</time>
      </trkpt>
      <trkpt lat="48.57892" lon="1.95403">
        <ele>139</ele>
        <time>2019-02-21T08:39:12Z</time>
      </trkpt>
      <trkpt lat="48.57892" lon="1.95412">
        <ele>139</ele>
        <time>2019-02-21T08:39:16Z</time>
      </trkpt>
      <trkpt lat="48.57892" lon="1.9542">
        <ele>140</ele>
        <time>2019-02-21T08:39:20Z</time>
      </trkpt>
      <trkpt lat="48.57894" lon="1.95429">
        <ele>140</ele>
        <time>2019-02-21T08:39:24Z</time>
      </trkpt>
      <trkpt lat="48.57894" lon="1.95439">
        <ele>140</ele>
        <time>2019-02-21T08:39:28Z</time>
      </trkpt>
      <trkpt lat="48.57895" lon="1.95449">
        <ele>139</ele>
        <time>2019-02-21T08:39:34Z</time>
      </trkpt>
      <trkpt lat="48.57894" lon="1.95458">
        <ele>139</ele>
        <time>2019-02-21T08:39:38Z</time>
      </trkpt>
      <trkpt lat="48.57894" lon="1.95466">
        <ele>139</ele>
        <time>2019-02-21T08:39:42Z</time>
      </trkpt>
      <trkpt lat="48.57895" lon="1.95477">
        <ele>139</ele>
        <time>2019-02-21T08:39:48Z</time>
      </trkpt>
      <trkpt lat="48.57899" lon="1.95484">
        <ele>140</ele>
        <time>2019-02-21T08:39:52Z</time>
      </trkpt>
      <trkpt lat="48.57899" lon="1.95496">
        <ele>140</ele>
        <time>2019-02-21T08:39:56Z</time>
      </trkpt>
      <trkpt lat="48.57899" lon="1.95506">
        <ele>139</ele>
        <time>2019-02-21T08:39:58Z</time>
      </trkpt>
      <trkpt lat="48.57901" lon="1.95512">
        <ele>139</ele>
        <time>2019-02-21T08:40:00Z</time>
      </trkpt>
      <trkpt lat="48.57902" lon="1.95523">
        <ele>139</ele>
        <time>2019-02-21T08:40:04Z</time>
      </trkpt>
      <trkpt lat="48.57903" lon="1.95529">
        <ele>138</ele>
        <time>2019-02-21T08:40:06Z</time>
      </trkpt>
      <trkpt lat="48.579" lon="1.95537">
        <ele>138</ele>
        <time>2019-02-21T08:40:08Z</time>
      </trkpt>
      <trkpt lat="48.579" lon="1.95546">
        <ele>138</ele>
        <time>2019-02-21T08:40:12Z</time>
      </trkpt>
      <trkpt lat="48.57901" lon="1.95554">
        <ele>138</ele>
        <time>2019-02-21T08:40:16Z</time>
      </trkpt>
      <trkpt lat="48.57901" lon="1.95563">
        <ele>138</ele>
        <time>2019-02-21T08:40:20Z</time>
      </trkpt>
      <trkpt lat="48.57901" lon="1.95574">
        <ele>138</ele>
        <time>2019-02-21T08:40:24Z</time>
      </trkpt>
      <trkpt lat="48.57902" lon="1.95583">
        <ele>139</ele>
        <time>2019-02-21T08:40:28Z</time>
      </trkpt>
      <trkpt lat="48.57906" lon="1.95589">
        <ele>138</ele>
        <time>2019-02-21T08:40:32Z</time>
      </trkpt>
      <trkpt lat="48.57904" lon="1.95601">
        <ele>137</ele>
        <time>2019-02-21T08:40:36Z</time>
      </trkpt>
      <trkpt lat="48.57906" lon="1.95608">
        <ele>136</ele>
        <time>2019-02-21T08:40:40Z</time>
      </trkpt>
      <trkpt lat="48.57909" lon="1.95617">
        <ele>136</ele>
        <time>2019-02-21T08:40:44Z</time>
      </trkpt>
      <trkpt lat="48.5791" lon="1.95627">
        <ele>136</ele>
        <time>2019-02-21T08:40:48Z</time>
      </trkpt>
      <trkpt lat="48.57912" lon="1.95634">
        <ele>136</ele>
        <time>2019-02-21T08:40:52Z</time>
      </trkpt>
      <trkpt lat="48.57914" lon="1.95642">
        <ele>136</ele>
        <time>2019-02-21T08:40:56Z</time>
      </trkpt>
      <trkpt lat="48.57916" lon="1.95652">
        <ele>136</ele>
        <time>2019-02-21T08:41:00Z</time>
      </trkpt>
      <trkpt lat="48.57917" lon="1.95662">
        <ele>138</ele>
        <time>2019-02-21T08:41:04Z</time>
      </trkpt>
      <trkpt lat="48.57919" lon="1.9567">
        <ele>137</ele>
        <time>2019-02-21T08:41:08Z</time>
      </trkpt>
      <trkpt lat="48.57923" lon="1.95675">
        <ele>138</ele>
        <time>2019-02-21T08:41:10Z</time>
      </trkpt>
      <trkpt lat="48.57922" lon="1.95688">
        <ele>138</ele>
        <time>2019-02-21T08:41:14Z</time>
      </trkpt>
      <trkpt lat="48.57921" lon="1.95698">
        <ele>139</ele>
        <time>2019-02-21T08:41:18Z</time>
      </trkpt>
      <trkpt lat="48.5792" lon="1.95711">
        <ele>139</ele>
        <time>2019-02-21T08:41:22Z</time>
      </trkpt>
      <trkpt lat="48.57921" lon="1.95719">
        <ele>138</ele>
        <time>2019-02-21T08:41:26Z</time>
      </trkpt>
      <trkpt lat="48.57921" lon="1.95729">
        <ele>138</ele>
        <time>2019-02-21T08:41:30Z</time>
      </trkpt>
      <trkpt lat="48.57921" lon="1.95741">
        <ele>138</ele>
        <time>2019-02-21T08:41:34Z</time>
      </trkpt>
      <trkpt lat="48.57924" lon="1.9576">
        <ele>137</ele>
        <time>2019-02-21T08:41:38Z</time>
      </trkpt>
      <trkpt lat="48.57923" lon="1.95773">
        <ele>137</ele>
        <time>2019-02-21T08:41:42Z</time>
      </trkpt>
      <trkpt lat="48.57926" lon="1.95782">
        <ele>137</ele>
        <time>2019-02-21T08:41:46Z</time>
      </trkpt>
      <trkpt lat="48.5793" lon="1.95789">
        <ele>137</ele>
        <time>2019-02-21T08:41:50Z</time>
      </trkpt>
      <trkpt lat="48.57931" lon="1.95798">
        <ele>137</ele>
        <time>2019-02-21T08:41:54Z</time>
      </trkpt>
      <trkpt lat="48.57933" lon="1.95805">
        <ele>137</ele>
        <time>2019-02-21T08:41:58Z</time>
      </trkpt>
      <trkpt lat="48.57934" lon="1.95815">
        <ele>137</ele>
        <time>2019-02-21T08:42:04Z</time>
      </trkpt>
      <trkpt lat="48.57937" lon="1.95821">
        <ele>137</ele>
        <time>2019-02-21T08:42:08Z</time>
      </trkpt>
      <trkpt lat="48.57939" lon="1.9583">
        <ele>137</ele>
        <time>2019-02-21T08:42:14Z</time>
      </trkpt>
      <trkpt lat="48.57939" lon="1.95837">
        <ele>135</ele>
        <time>2019-02-21T08:42:18Z</time>
      </trkpt>
      <trkpt lat="48.5794" lon="1.95843">
        <ele>135</ele>
        <time>2019-02-21T08:42:22Z</time>
      </trkpt>
      <trkpt lat="48.5794" lon="1.95851">
        <ele>135</ele>
        <time>2019-02-21T08:42:26Z</time>
      </trkpt>
      <trkpt lat="48.5794" lon="1.95859">
        <ele>135</ele>
        <time>2019-02-21T08:42:30Z</time>
      </trkpt>
      <trkpt lat="48.5794" lon="1.95866">
        <ele>135</ele>
        <time>2019-02-21T08:42:34Z</time>
      </trkpt>
      <trkpt lat="48.57942" lon="1.95877">
        <ele>135</ele>
        <time>2019-02-21T08:42:40Z</time>
      </trkpt>
      <trkpt lat="48.57944" lon="1.95885">
        <ele>135</ele>
        <time>2019-02-21T08:42:44Z</time>
      </trkpt>
      <trkpt lat="48.57942" lon="1.95894">
        <ele>134</ele>
        <time>2019-02-21T08:42:46Z</time>
      </trkpt>
      <trkpt lat="48.5794" lon="1.95907">
        <ele>134</ele>
        <time>2019-02-21T08:42:50Z</time>
      </trkpt>
      <trkpt lat="48.57938" lon="1.95914">
        <ele>134</ele>
        <time>2019-02-21T08:42:52Z</time>
      </trkpt>
      <trkpt lat="48.57938" lon="1.95923">
        <ele>132</ele>
        <time>2019-02-21T08:42:56Z</time>
      </trkpt>
      <trkpt lat="48.57939" lon="1.95934">
        <ele>132</ele>
        <time>2019-02-21T08:43:00Z</time>
      </trkpt>
      <trkpt lat="48.5794" lon="1.95943">
        <ele>132</ele>
        <time>2019-02-21T08:43:04Z</time>
      </trkpt>
      <trkpt lat="48.57939" lon="1.95949">
        <ele>132</ele>
        <time>2019-02-21T08:43:08Z</time>
      </trkpt>
      <trkpt lat="48.57941" lon="1.95958">
        <ele>132</ele>
        <time>2019-02-21T08:43:12Z</time>
      </trkpt>
      <trkpt lat="48.57942" lon="1.95967">
        <ele>132</ele>
        <time>2019-02-21T08:43:18Z</time>
      </trkpt>
      <trkpt lat="48.57944" lon="1.95976">
        <ele>132</ele>
        <time>2019-02-21T08:43:24Z</time>
      </trkpt>
      <trkpt lat="48.57943" lon="1.95987">
        <ele>131</ele>
        <time>2019-02-21T08:43:28Z</time>
      </trkpt>
      <trkpt lat="48.57944" lon="1.95996">
        <ele>131</ele>
        <time>2019-02-21T08:43:32Z</time>
      </trkpt>
      <trkpt lat="48.57941" lon="1.96006">
        <ele>130</ele>
        <time>2019-02-21T08:43:36Z</time>
      </trkpt>
      <trkpt lat="48.57943" lon="1.96016">
        <ele>130</ele>
        <time>2019-02-21T08:43:40Z</time>
      </trkpt>
      <trkpt lat="48.57941" lon="1.96024">
        <ele>130</ele>
        <time>2019-02-21T08:43:44Z</time>
      </trkpt>
      <trkpt lat="48.57942" lon="1.9603">
        <ele>130</ele>
        <time>2019-02-21T08:44:08Z</time>
      </trkpt>
      <trkpt lat="48.57943" lon="1.96038">
        <ele>130</ele>
        <time>2019-02-21T08:45:24Z</time>
      </trkpt>
      <trkpt lat="48.5794" lon="1.96042">
        <ele>130</ele>
        <time>2019-02-21T08:45:34Z</time>
      </trkpt>
      <trkpt lat="48.57935" lon="1.96044">
        <ele>130</ele>
        <time>2019-02-21T08:45:40Z</time>
      </trkpt>
      <trkpt lat="48.57929" lon="1.96047">
        <ele>130</ele>
        <time>2019-02-21T08:45:44Z</time>
      </trkpt>
      <trkpt lat="48.57919" lon="1.96049">
        <ele>130</ele>
        <time>2019-02-21T08:45:48Z</time>
      </trkpt>
      <trkpt lat="48.57914" lon="1.96049">
        <ele>129</ele>
        <time>2019-02-21T08:45:52Z</time>
      </trkpt>
      <trkpt lat="48.57908" lon="1.9605">
        <ele>129</ele>
        <time>2019-02-21T08:45:56Z</time>
      </trkpt>
      <trkpt lat="48.57902" lon="1.96052">
        <ele>129</ele>
        <time>2019-02-21T08:46:00Z</time>
      </trkpt>
      <trkpt lat="48.57895" lon="1.96052">
        <ele>129</ele>
        <time>2019-02-21T08:46:08Z</time>
      </trkpt>
      <trkpt lat="48.5789" lon="1.96056">
        <ele>129</ele>
        <time>2019-02-21T08:46:14Z</time>
      </trkpt>
      <trkpt lat="48.57886" lon="1.96061">
        <ele>129</ele>
        <time>2019-02-21T08:46:20Z</time>
      </trkpt>
      <trkpt lat="48.57881" lon="1.96072">
        <ele>129</ele>
        <time>2019-02-21T08:46:24Z</time>
      </trkpt>
      <trkpt lat="48.57878" lon="1.9608">
        <ele>129</ele>
        <time>2019-02-21T08:46:28Z</time>
      </trkpt>
      <trkpt lat="48.57874" lon="1.96084">
        <ele>130</ele>
        <time>2019-02-21T08:46:30Z</time>
      </trkpt>
      <trkpt lat="48.57869" lon="1.96089">
        <ele>130</ele>
        <time>2019-02-21T08:46:34Z</time>
      </trkpt>
      <trkpt lat="48.57866" lon="1.96094">
        <ele>130</ele>
        <time>2019-02-21T08:46:38Z</time>
      </trkpt>
      <trkpt lat="48.57862" lon="1.961">
        <ele>130</ele>
        <time>2019-02-21T08:46:44Z</time>
      </trkpt>
      <trkpt lat="48.57857" lon="1.96107">
        <ele>130</ele>
        <time>2019-02-21T08:46:50Z</time>
      </trkpt>
      <trkpt lat="48.57853" lon="1.96111">
        <ele>130</ele>
        <time>2019-02-21T08:46:52Z</time>
      </trkpt>
      <trkpt lat="48.5785" lon="1.96117">
        <ele>130</ele>
        <time>2019-02-21T08:46:56Z</time>
      </trkpt>
      <trkpt lat="48.57842" lon="1.96123">
        <ele>130</ele>
        <time>2019-02-21T08:46:58Z</time>
      </trkpt>
      <trkpt lat="48.57839" lon="1.96129">
        <ele>130</ele>
        <time>2019-02-21T08:47:02Z</time>
      </trkpt>
      <trkpt lat="48.57834" lon="1.96135">
        <ele>130</ele>
        <time>2019-02-21T08:47:06Z</time>
      </trkpt>
      <trkpt lat="48.57826" lon="1.96144">
        <ele>130</ele>
        <time>2019-02-21T08:47:12Z</time>
      </trkpt>
      <trkpt lat="48.57822" lon="1.9615">
        <ele>130</ele>
        <time>2019-02-21T08:47:16Z</time>
      </trkpt>
      <trkpt lat="48.5782" lon="1.96156">
        <ele>130</ele>
        <time>2019-02-21T08:47:20Z</time>
      </trkpt>
      <trkpt lat="48.57812" lon="1.96165">
        <ele>130</ele>
        <time>2019-02-21T08:47:28Z</time>
      </trkpt>
      <trkpt lat="48.57809" lon="1.96176">
        <ele>131</ele>
        <time>2019-02-21T08:47:34Z</time>
      </trkpt>
      <trkpt lat="48.57807" lon="1.96184">
        <ele>131</ele>
        <time>2019-02-21T08:47:40Z</time>
      </trkpt>
      <trkpt lat="48.57808" lon="1.96191">
        <ele>131</ele>
        <time>2019-02-21T08:47:46Z</time>
      </trkpt>
      <trkpt lat="48.5781" lon="1.962">
        <ele>132</ele>
        <time>2019-02-21T08:47:50Z</time>
      </trkpt>
      <trkpt lat="48.57812" lon="1.96207">
        <ele>132</ele>
        <time>2019-02-21T08:47:56Z</time>
      </trkpt>
      <trkpt lat="48.57818" lon="1.96211">
        <ele>132</ele>
        <time>2019-02-21T08:48:00Z</time>
      </trkpt>
      <trkpt lat="48.57822" lon="1.96216">
        <ele>132</ele>
        <time>2019-02-21T08:48:06Z</time>
      </trkpt>
      <trkpt lat="48.57827" lon="1.96224">
        <ele>132</ele>
        <time>2019-02-21T08:48:10Z</time>
      </trkpt>
      <trkpt lat="48.5783" lon="1.96228">
        <ele>132</ele>
        <time>2019-02-21T08:48:14Z</time>
      </trkpt>
      <trkpt lat="48.57833" lon="1.96236">
        <ele>132</ele>
        <time>2019-02-21T08:48:20Z</time>
      </trkpt>
      <trkpt lat="48.57838" lon="1.9624">
        <ele>133</ele>
        <time>2019-02-21T08:48:24Z</time>
      </trkpt>
      <trkpt lat="48.57841" lon="1.96247">
        <ele>133</ele>
        <time>2019-02-21T08:48:28Z</time>
      </trkpt>
      <trkpt lat="48.57846" lon="1.9625">
        <ele>133</ele>
        <time>2019-02-21T08:48:32Z</time>
      </trkpt>
      <trkpt lat="48.5785" lon="1.96254">
        <ele>133</ele>
        <time>2019-02-21T08:48:36Z</time>
      </trkpt>
      <trkpt lat="48.57855" lon="1.96259">
        <ele>133</ele>
        <time>2019-02-21T08:48:42Z</time>
      </trkpt>
      <trkpt lat="48.5786" lon="1.96264">
        <ele>133</ele>
        <time>2019-02-21T08:48:46Z</time>
      </trkpt>
      <trkpt lat="48.57864" lon="1.96269">
        <ele>133</ele>
        <time>2019-02-21T08:48:52Z</time>
      </trkpt>
      <trkpt lat="48.57868" lon="1.96274">
        <ele>133</ele>
        <time>2019-02-21T08:48:58Z</time>
      </trkpt>
      <trkpt lat="48.57876" lon="1.96277">
        <ele>133</ele>
        <time>2019-02-21T08:49:02Z</time>
      </trkpt>
      <trkpt lat="48.57879" lon="1.96284">
        <ele>133</ele>
        <time>2019-02-21T08:49:08Z</time>
      </trkpt>
      <trkpt lat="48.57883" lon="1.96291">
        <ele>133</ele>
        <time>2019-02-21T08:49:14Z</time>
      </trkpt>
      <trkpt lat="48.57886" lon="1.96297">
        <ele>133</ele>
        <time>2019-02-21T08:49:18Z</time>
      </trkpt>
      <trkpt lat="48.5789" lon="1.96306">
        <ele>133</ele>
        <time>2019-02-21T08:49:24Z</time>
      </trkpt>
      <trkpt lat="48.57893" lon="1.96315">
        <ele>133</ele>
        <time>2019-02-21T08:49:28Z</time>
      </trkpt>
      <trkpt lat="48.57896" lon="1.9632">
        <ele>133</ele>
        <time>2019-02-21T08:49:32Z</time>
      </trkpt>
      <trkpt lat="48.57899" lon="1.96328">
        <ele>133</ele>
        <time>2019-02-21T08:49:36Z</time>
      </trkpt>
      <trkpt lat="48.579" lon="1.96336">
        <ele>134</ele>
        <time>2019-02-21T08:49:40Z</time>
      </trkpt>
      <trkpt lat="48.57906" lon="1.96341">
        <ele>134</ele>
        <time>2019-02-21T08:49:44Z</time>
      </trkpt>
      <trkpt lat="48.57909" lon="1.96349">
        <ele>134</ele>
        <time>2019-02-21T08:49:48Z</time>
      </trkpt>
      <trkpt lat="48.57912" lon="1.96358">
        <ele>134</ele>
        <time>2019-02-21T08:49:52Z</time>
      </trkpt>
      <trkpt lat="48.57914" lon="1.96368">
        <ele>134</ele>
        <time>2019-02-21T08:49:56Z</time>
      </trkpt>
      <trkpt lat="48.57917" lon="1.96381">
        <ele>133</ele>
        <time>2019-02-21T08:50:00Z</time>
      </trkpt>
      <trkpt lat="48.57919" lon="1.96389">
        <ele>133</ele>
        <time>2019-02-21T08:50:04Z</time>
      </trkpt>
      <trkpt lat="48.57923" lon="1.96394">
        <ele>133</ele>
        <time>2019-02-21T08:50:08Z</time>
      </trkpt>
      <trkpt lat="48.57925" lon="1.96402">
        <ele>133</ele>
        <time>2019-02-21T08:50:12Z</time>
      </trkpt>
      <trkpt lat="48.5793" lon="1.9641">
        <ele>133</ele>
        <time>2019-02-21T08:50:16Z</time>
      </trkpt>
      <trkpt lat="48.57931" lon="1.96419">
        <ele>133</ele>
        <time>2019-02-21T08:50:20Z</time>
      </trkpt>
      <trkpt lat="48.57937" lon="1.96424">
        <ele>133</ele>
        <time>2019-02-21T08:50:24Z</time>
      </trkpt>
      <trkpt lat="48.57942" lon="1.96432">
        <ele>133</ele>
        <time>2019-02-21T08:50:28Z</time>
      </trkpt>
      <trkpt lat="48.57945" lon="1.96438">
        <ele>132</ele>
        <time>2019-02-21T08:50:34Z</time>
      </trkpt>
      <trkpt lat="48.57952" lon="1.96441">
        <ele>132</ele>
        <time>2019-02-21T08:50:40Z</time>
      </trkpt>
      <trkpt lat="48.57959" lon="1.96443">
        <ele>132</ele>
        <time>2019-02-21T08:50:44Z</time>
      </trkpt>
      <trkpt lat="48.57965" lon="1.96447">
        <ele>132</ele>
        <time>2019-02-21T08:50:48Z</time>
      </trkpt>
      <trkpt lat="48.57971" lon="1.96453">
        <ele>132</ele>
        <time>2019-02-21T08:50:52Z</time>
      </trkpt>
      <trkpt lat="48.57974" lon="1.96458">
        <ele>132</ele>
        <time>2019-02-21T08:50:56Z</time>
      </trkpt>
      <trkpt lat="48.57979" lon="1.96461">
        <ele>132</ele>
        <time>2019-02-21T08:51:00Z</time>
      </trkpt>
      <trkpt lat="48.57982" lon="1.96469">
        <ele>132</ele>
        <time>2019-02-21T08:51:04Z</time>
      </trkpt>
      <trkpt lat="48.57984" lon="1.96477">
        <ele>132</ele>
        <time>2019-02-21T08:51:08Z</time>
      </trkpt>
      <trkpt lat="48.57985" lon="1.96487">
        <ele>132</ele>
        <time>2019-02-21T08:51:12Z</time>
      </trkpt>
      <trkpt lat="48.57986" lon="1.96495">
        <ele>131</ele>
        <time>2019-02-21T08:51:16Z</time>
      </trkpt>
      <trkpt lat="48.57989" lon="1.96503">
        <ele>131</ele>
        <time>2019-02-21T08:51:22Z</time>
      </trkpt>
      <trkpt lat="48.57992" lon="1.96512">
        <ele>131</ele>
        <time>2019-02-21T08:51:26Z</time>
      </trkpt>
      <trkpt lat="48.57994" lon="1.96524">
        <ele>131</ele>
        <time>2019-02-21T08:51:30Z</time>
      </trkpt>
      <trkpt lat="48.57997" lon="1.96532">
        <ele>131</ele>
        <time>2019-02-21T08:51:34Z</time>
      </trkpt>
      <trkpt lat="48.57999" lon="1.96539">
        <ele>131</ele>
        <time>2019-02-21T08:51:38Z</time>
      </trkpt>
      <trkpt lat="48.57997" lon="1.96547">
        <ele>132</ele>
        <time>2019-02-21T08:51:42Z</time>
      </trkpt>
      <trkpt lat="48.57995" lon="1.96555">
        <ele>132</ele>
        <time>2019-02-21T08:51:46Z</time>
      </trkpt>
      <trkpt lat="48.57995" lon="1.96566">
        <ele>132</ele>
        <time>2019-02-21T08:51:52Z</time>
      </trkpt>
      <trkpt lat="48.57997" lon="1.96574">
        <ele>132</ele>
        <time>2019-02-21T08:51:56Z</time>
      </trkpt>
      <trkpt lat="48.58" lon="1.96582">
        <ele>132</ele>
        <time>2019-02-21T08:52:02Z</time>
      </trkpt>
      <trkpt lat="48.58001" lon="1.9659">
        <ele>132</ele>
        <time>2019-02-21T08:52:06Z</time>
      </trkpt>
      <trkpt lat="48.58003" lon="1.96596">
        <ele>132</ele>
        <time>2019-02-21T08:52:10Z</time>
      </trkpt>
      <trkpt lat="48.58007" lon="1.96603">
        <ele>131</ele>
        <time>2019-02-21T08:52:16Z</time>
      </trkpt>
      <trkpt lat="48.5801" lon="1.96612">
        <ele>131</ele>
        <time>2019-02-21T08:52:22Z</time>
      </trkpt>
      <trkpt lat="48.58009" lon="1.9662">
        <ele>131</ele>
        <time>2019-02-21T08:52:26Z</time>
      </trkpt>
      <trkpt lat="48.58008" lon="1.9663">
        <ele>131</ele>
        <time>2019-02-21T08:52:30Z</time>
      </trkpt>
      <trkpt lat="48.5801" lon="1.96638">
        <ele>131</ele>
        <time>2019-02-21T08:52:34Z</time>
      </trkpt>
      <trkpt lat="48.58011" lon="1.96647">
        <ele>131</ele>
        <time>2019-02-21T08:52:38Z</time>
      </trkpt>
      <trkpt lat="48.58012" lon="1.96656">
        <ele>131</ele>
        <time>2019-02-21T08:52:42Z</time>
      </trkpt>
      <trkpt lat="48.58013" lon="1.96665">
        <ele>131</ele>
        <time>2019-02-21T08:52:46Z</time>
      </trkpt>
      <trkpt lat="48.58016" lon="1.96674">
        <ele>131</ele>
        <time>2019-02-21T08:52:50Z</time>
      </trkpt>
      <trkpt lat="48.58017" lon="1.96685">
        <ele>130</ele>
        <time>2019-02-21T08:52:56Z</time>
      </trkpt>
      <trkpt lat="48.5802" lon="1.96691">
        <ele>130</ele>
        <time>2019-02-21T08:53:00Z</time>
      </trkpt>
      <trkpt lat="48.58023" lon="1.96699">
        <ele>130</ele>
        <time>2019-02-21T08:53:06Z</time>
      </trkpt>
      <trkpt lat="48.58027" lon="1.96707">
        <ele>130</ele>
        <time>2019-02-21T08:53:12Z</time>
      </trkpt>
      <trkpt lat="48.58027" lon="1.96718">
        <ele>130</ele>
        <time>2019-02-21T08:53:18Z</time>
      </trkpt>
      <trkpt lat="48.5803" lon="1.96725">
        <ele>130</ele>
        <time>2019-02-21T08:53:22Z</time>
      </trkpt>
      <trkpt lat="48.58031" lon="1.96735">
        <ele>130</ele>
        <time>2019-02-21T08:53:26Z</time>
      </trkpt>
      <trkpt lat="48.58033" lon="1.96743">
        <ele>130</ele>
        <time>2019-02-21T08:53:30Z</time>
      </trkpt>
      <trkpt lat="48.58033" lon="1.96755">
        <ele>129</ele>
        <time>2019-02-21T08:53:34Z</time>
      </trkpt>
      <trkpt lat="48.58032" lon="1.96768">
        <ele>129</ele>
        <time>2019-02-21T08:53:38Z</time>
      </trkpt>
      <trkpt lat="48.58035" lon="1.96774">
        <ele>129</ele>
        <time>2019-02-21T08:53:42Z</time>
      </trkpt>
      <trkpt lat="48.58039" lon="1.96783">
        <ele>129</ele>
        <time>2019-02-21T08:53:48Z</time>
      </trkpt>
      <trkpt lat="48.58039" lon="1.96791">
        <ele>129</ele>
        <time>2019-02-21T08:53:52Z</time>
      </trkpt>
      <trkpt lat="48.58039" lon="1.96799">
        <ele>129</ele>
        <time>2019-02-21T08:53:56Z</time>
      </trkpt>
      <trkpt lat="48.58039" lon="1.96809">
        <ele>129</ele>
        <time>2019-02-21T08:54:00Z</time>
      </trkpt>
      <trkpt lat="48.58038" lon="1.9682">
        <ele>129</ele>
        <time>2019-02-21T08:54:04Z</time>
      </trkpt>
      <trkpt lat="48.5804" lon="1.96832">
        <ele>129</ele>
        <time>2019-02-21T08:54:09Z</time>
      </trkpt>
      <trkpt lat="48.5804" lon="1.96839">
        <ele>129</ele>
        <time>2019-02-21T08:54:11Z</time>
      </trkpt>
      <trkpt lat="48.58041" lon="1.96847">
        <ele>129</ele>
        <time>2019-02-21T08:54:13Z</time>
      </trkpt>
      <trkpt lat="48.58044" lon="1.96857">
        <ele>129</ele>
        <time>2019-02-21T08:54:17Z</time>
      </trkpt>
      <trkpt lat="48.58047" lon="1.96862">
        <ele>129</ele>
        <time>2019-02-21T08:54:19Z</time>
      </trkpt>
      <trkpt lat="48.58047" lon="1.96871">
        <ele>129</ele>
        <time>2019-02-21T08:54:23Z</time>
      </trkpt>
      <trkpt lat="48.58045" lon="1.9688">
        <ele>129</ele>
        <time>2019-02-21T08:54:29Z</time>
      </trkpt>
      <trkpt lat="48.5805" lon="1.96887">
        <ele>129</ele>
        <time>2019-02-21T08:54:33Z</time>
      </trkpt>
      <trkpt lat="48.58052" lon="1.96896">
        <ele>129</ele>
        <time>2019-02-21T08:54:37Z</time>
      </trkpt>
      <trkpt lat="48.58054" lon="1.96904">
        <ele>129</ele>
        <time>2019-02-21T08:54:41Z</time>
      </trkpt>
      <trkpt lat="48.58055" lon="1.96913">
        <ele>128</ele>
        <time>2019-02-21T08:54:45Z</time>
      </trkpt>
      <trkpt lat="48.58056" lon="1.96921">
        <ele>128</ele>
        <time>2019-02-21T08:54:49Z</time>
      </trkpt>
      <trkpt lat="48.58058" lon="1.96937">
        <ele>128</ele>
        <time>2019-02-21T08:54:53Z</time>
      </trkpt>
      <trkpt lat="48.58057" lon="1.9695">
        <ele>128</ele>
        <time>2019-02-21T08:54:57Z</time>
      </trkpt>
      <trkpt lat="48.58059" lon="1.96961">
        <ele>129</ele>
        <time>2019-02-21T08:55:03Z</time>
      </trkpt>
      <trkpt lat="48.5806" lon="1.96972">
        <ele>129</ele>
        <time>2019-02-21T08:55:07Z</time>
      </trkpt>
      <trkpt lat="48.58064" lon="1.96977">
        <ele>128</ele>
        <time>2019-02-21T08:55:11Z</time>
      </trkpt>
      <trkpt lat="48.58065" lon="1.96991">
        <ele>128</ele>
        <time>2019-02-21T08:55:17Z</time>
      </trkpt>
      <trkpt lat="48.58068" lon="1.97">
        <ele>128</ele>
        <time>2019-02-21T08:55:23Z</time>
      </trkpt>
      <trkpt lat="48.58068" lon="1.9701">
        <ele>129</ele>
        <time>2019-02-21T08:55:29Z</time>
      </trkpt>
      <trkpt lat="48.58068" lon="1.97018">
        <ele>129</ele>
        <time>2019-02-21T08:55:33Z</time>
      </trkpt>
      <trkpt lat="48.58066" lon="1.97025">
        <ele>129</ele>
        <time>2019-02-21T08:55:37Z</time>
      </trkpt>
      <trkpt lat="48.58069" lon="1.97035">
        <ele>129</ele>
        <time>2019-02-21T08:55:41Z</time>
      </trkpt>
      <trkpt lat="48.58071" lon="1.97041">
        <ele>129</ele>
        <time>2019-02-21T08:55:43Z</time>
      </trkpt>
      <trkpt lat="48.58074" lon="1.97055">
        <ele>129</ele>
        <time>2019-02-21T08:55:49Z</time>
      </trkpt>
      <trkpt lat="48.58076" lon="1.97062">
        <ele>129</ele>
        <time>2019-02-21T08:55:53Z</time>
      </trkpt>
      <trkpt lat="48.5808" lon="1.97071">
        <ele>128</ele>
        <time>2019-02-21T08:55:57Z</time>
      </trkpt>
      <trkpt lat="48.58088" lon="1.97078">
        <ele>128</ele>
        <time>2019-02-21T08:56:01Z</time>
      </trkpt>
      <trkpt lat="48.58088" lon="1.97088">
        <ele>128</ele>
        <time>2019-02-21T08:56:05Z</time>
      </trkpt>
      <trkpt lat="48.58084" lon="1.97093">
        <ele>128</ele>
        <time>2019-02-21T08:56:09Z</time>
      </trkpt>
      <trkpt lat="48.58082" lon="1.97101">
        <ele>129</ele>
        <time>2019-02-21T08:56:11Z</time>
      </trkpt>
      <trkpt lat="48.58081" lon="1.97107">
        <ele>129</ele>
        <time>2019-02-21T08:56:13Z</time>
      </trkpt>
      <trkpt lat="48.58083" lon="1.97119">
        <ele>129</ele>
        <time>2019-02-21T08:56:17Z</time>
      </trkpt>
      <trkpt lat="48.58086" lon="1.97126">
        <ele>127</ele>
        <time>2019-02-21T08:56:21Z</time>
      </trkpt>
      <trkpt lat="48.58086" lon="1.97136">
        <ele>128</ele>
        <time>2019-02-21T08:56:25Z</time>
      </trkpt>
      <trkpt lat="48.58087" lon="1.97143">
        <ele>128</ele>
        <time>2019-02-21T08:56:27Z</time>
      </trkpt>
      <trkpt lat="48.58087" lon="1.97152">
        <ele>128</ele>
        <time>2019-02-21T08:56:31Z</time>
      </trkpt>
      <trkpt lat="48.58085" lon="1.97164">
        <ele>130</ele>
        <time>2019-02-21T08:56:35Z</time>
      </trkpt>
      <trkpt lat="48.58092" lon="1.97169">
        <ele>129</ele>
        <time>2019-02-21T08:56:39Z</time>
      </trkpt>
      <trkpt lat="48.58094" lon="1.97178">
        <ele>129</ele>
        <time>2019-02-21T08:56:43Z</time>
      </trkpt>
      <trkpt lat="48.58096" lon="1.97184">
        <ele>128</ele>
        <time>2019-02-21T08:56:45Z</time>
      </trkpt>
      <trkpt lat="48.58102" lon="1.97187">
        <ele>128</ele>
        <time>2019-02-21T08:56:49Z</time>
      </trkpt>
      <trkpt lat="48.58106" lon="1.97194">
        <ele>128</ele>
        <time>2019-02-21T08:56:55Z</time>
      </trkpt>
      <trkpt lat="48.58109" lon="1.97204">
        <ele>127</ele>
        <time>2019-02-21T08:57:01Z</time>
      </trkpt>
      <trkpt lat="48.58113" lon="1.97208">
        <ele>127</ele>
        <time>2019-02-21T08:57:03Z</time>
      </trkpt>
      <trkpt lat="48.58115" lon="1.97215">
        <ele>127</ele>
        <time>2019-02-21T08:57:07Z</time>
      </trkpt>
      <trkpt lat="48.58112" lon="1.97225">
        <ele>127</ele>
        <time>2019-02-21T08:57:11Z</time>
      </trkpt>
      <trkpt lat="48.5811" lon="1.97232">
        <ele>127</ele>
        <time>2019-02-21T08:57:17Z</time>
      </trkpt>
      <trkpt lat="48.58107" lon="1.9724">
        <ele>128</ele>
        <time>2019-02-21T08:57:23Z</time>
      </trkpt>
      <trkpt lat="48.58106" lon="1.97249">
        <ele>128</ele>
        <time>2019-02-21T08:57:28Z</time>
      </trkpt>
      <trkpt lat="48.58106" lon="1.97258">
        <ele>126</ele>
        <time>2019-02-21T08:57:33Z</time>
      </trkpt>
      <trkpt lat="48.58107" lon="1.97266">
        <ele>126</ele>
        <time>2019-02-21T08:57:37Z</time>
      </trkpt>
      <trkpt lat="48.58109" lon="1.97282">
        <ele>125</ele>
        <time>2019-02-21T08:57:41Z</time>
      </trkpt>
      <trkpt lat="48.58112" lon="1.97288">
        <ele>125</ele>
        <time>2019-02-21T08:57:43Z</time>
      </trkpt>
      <trkpt lat="48.58115" lon="1.973">
        <ele>124</ele>
        <time>2019-02-21T08:57:47Z</time>
      </trkpt>
      <trkpt lat="48.58118" lon="1.97309">
        <ele>124</ele>
        <time>2019-02-21T08:57:51Z</time>
      </trkpt>
      <trkpt lat="48.58123" lon="1.97317">
        <ele>124</ele>
        <time>2019-02-21T08:57:55Z</time>
      </trkpt>
      <trkpt lat="48.58128" lon="1.97324">
        <ele>123</ele>
        <time>2019-02-21T08:57:59Z</time>
      </trkpt>
      <trkpt lat="48.5814" lon="1.9735">
        <ele>120</ele>
        <time>2019-02-21T08:58:07Z</time>
      </trkpt>
      <trkpt lat="48.58145" lon="1.97354">
        <ele>120</ele>
        <time>2019-02-21T08:58:12Z</time>
      </trkpt>
      <trkpt lat="48.5815" lon="1.97354">
        <ele>120</ele>
        <time>2019-02-21T08:58:14Z</time>
      </trkpt>
      <trkpt lat="48.58154" lon="1.97357">
        <ele>120</ele>
        <time>2019-02-21T08:58:18Z</time>
      </trkpt>
      <trkpt lat="48.5816" lon="1.97359">
        <ele>120</ele>
        <time>2019-02-21T08:58:22Z</time>
      </trkpt>
      <trkpt lat="48.58164" lon="1.97363">
        <ele>120</ele>
        <time>2019-02-21T08:58:30Z</time>
      </trkpt>
      <trkpt lat="48.58166" lon="1.97369">
        <ele>120</ele>
        <time>2019-02-21T08:58:42Z</time>
      </trkpt>
      <trkpt lat="48.58169" lon="1.97375">
        <ele>118</ele>
        <time>2019-02-21T08:59:02Z</time>
      </trkpt>
      <trkpt lat="48.58166" lon="1.97383">
        <ele>120</ele>
        <time>2019-02-21T08:59:28Z</time>
      </trkpt>
      <trkpt lat="48.58171" lon="1.97382">
        <ele>118</ele>
        <time>2019-02-21T08:59:46Z</time>
      </trkpt>
      <trkpt lat="48.58176" lon="1.97389">
        <ele>118</ele>
        <time>2019-02-21T08:59:52Z</time>
      </trkpt>
      <trkpt lat="48.5818" lon="1.97395">
        <ele>118</ele>
        <time>2019-02-21T08:59:56Z</time>
      </trkpt>
      <trkpt lat="48.58183" lon="1.974">
        <ele>118</ele>
        <time>2019-02-21T09:00:00Z</time>
      </trkpt>
      <trkpt lat="48.58187" lon="1.97408">
        <ele>118</ele>
        <time>2019-02-21T09:00:04Z</time>
      </trkpt>
      <trkpt lat="48.58189" lon="1.97415">
        <ele>118</ele>
        <time>2019-02-21T09:00:10Z</time>
      </trkpt>
      <trkpt lat="48.58194" lon="1.97425">
        <ele>118</ele>
        <time>2019-02-21T09:00:14Z</time>
      </trkpt>
      <trkpt lat="48.58196" lon="1.97432">
        <ele>118</ele>
        <time>2019-02-21T09:00:18Z</time>
      </trkpt>
      <trkpt lat="48.582" lon="1.9744">
        <ele>119</ele>
        <time>2019-02-21T09:00:22Z</time>
      </trkpt>
      <trkpt lat="48.58203" lon="1.97446">
        <ele>119</ele>
        <time>2019-02-21T09:00:28Z</time>
      </trkpt>
      <trkpt lat="48.58207" lon="1.97455">
        <ele>119</ele>
        <time>2019-02-21T09:00:34Z</time>
      </trkpt>
      <trkpt lat="48.58211" lon="1.97463">
        <ele>119</ele>
        <time>2019-02-21T09:00:38Z</time>
      </trkpt>
      <trkpt lat="48.58216" lon="1.9747">
        <ele>119</ele>
        <time>2019-02-21T09:00:42Z</time>
      </trkpt>
      <trkpt lat="48.58219" lon="1.97477">
        <ele>119</ele>
        <time>2019-02-21T09:00:46Z</time>
      </trkpt>
      <trkpt lat="48.58222" lon="1.97482">
        <ele>119</ele>
        <time>2019-02-21T09:00:50Z</time>
      </trkpt>
      <trkpt lat="48.58224" lon="1.97491">
        <ele>119</ele>
        <time>2019-02-21T09:00:54Z</time>
      </trkpt>
      <trkpt lat="48.58228" lon="1.97501">
        <ele>119</ele>
        <time>2019-02-21T09:00:58Z</time>
      </trkpt>
      <trkpt lat="48.58228" lon="1.97511">
        <ele>119</ele>
        <time>2019-02-21T09:01:02Z</time>
      </trkpt>
      <trkpt lat="48.58234" lon="1.97517">
        <ele>119</ele>
        <time>2019-02-21T09:01:06Z</time>
      </trkpt>
      <trkpt lat="48.58236" lon="1.97528">
        <ele>119</ele>
        <time>2019-02-21T09:01:10Z</time>
      </trkpt>
      <trkpt lat="48.58239" lon="1.97535">
        <ele>118</ele>
        <time>2019-02-21T09:01:14Z</time>
      </trkpt>
      <trkpt lat="48.58243" lon="1.97544">
        <ele>118</ele>
        <time>2019-02-21T09:01:18Z</time>
      </trkpt>
      <trkpt lat="48.58246" lon="1.97554">
        <ele>118</ele>
        <time>2019-02-21T09:01:22Z</time>
      </trkpt>
      <trkpt lat="48.5825" lon="1.97564">
        <ele>119</ele>
        <time>2019-02-21T09:01:26Z</time>
      </trkpt>
      <trkpt lat="48.58254" lon="1.97574">
        <ele>118</ele>
        <time>2019-02-21T09:01:30Z</time>
      </trkpt>
      <trkpt lat="48.58253" lon="1.97583">
        <ele>118</ele>
        <time>2019-02-21T09:01:34Z</time>
      </trkpt>
      <trkpt lat="48.58256" lon="1.9759">
        <ele>118</ele>
        <time>2019-02-21T09:01:38Z</time>
      </trkpt>
      <trkpt lat="48.58258" lon="1.97596">
        <ele>118</ele>
        <time>2019-02-21T09:01:40Z</time>
      </trkpt>
      <trkpt lat="48.58262" lon="1.97605">
        <ele>118</ele>
        <time>2019-02-21T09:01:44Z</time>
      </trkpt>
      <trkpt lat="48.58263" lon="1.97612">
        <ele>118</ele>
        <time>2019-02-21T09:01:50Z</time>
      </trkpt>
      <trkpt lat="48.58267" lon="1.9762">
        <ele>117</ele>
        <time>2019-02-21T09:01:54Z</time>
      </trkpt>
      <trkpt lat="48.58268" lon="1.97627">
        <ele>117</ele>
        <time>2019-02-21T09:01:56Z</time>
      </trkpt>
      <trkpt lat="48.58275" lon="1.97632">
        <ele>117</ele>
        <time>2019-02-21T09:02:00Z</time>
      </trkpt>
      <trkpt lat="48.58278" lon="1.97638">
        <ele>117</ele>
        <time>2019-02-21T09:02:02Z</time>
      </trkpt>
      <trkpt lat="48.58284" lon="1.97649">
        <ele>117</ele>
        <time>2019-02-21T09:02:06Z</time>
      </trkpt>
      <trkpt lat="48.58289" lon="1.97659">
        <ele>117</ele>
        <time>2019-02-21T09:02:10Z</time>
      </trkpt>
      <trkpt lat="48.58294" lon="1.97669">
        <ele>116</ele>
        <time>2019-02-21T09:02:14Z</time>
      </trkpt>
      <trkpt lat="48.58297" lon="1.97679">
        <ele>116</ele>
        <time>2019-02-21T09:02:20Z</time>
      </trkpt>
      <trkpt lat="48.58301" lon="1.97685">
        <ele>116</ele>
        <time>2019-02-21T09:02:22Z</time>
      </trkpt>
      <trkpt lat="48.58303" lon="1.97692">
        <ele>115</ele>
        <time>2019-02-21T09:02:24Z</time>
      </trkpt>
      <trkpt lat="48.58305" lon="1.97701">
        <ele>115</ele>
        <time>2019-02-21T09:02:26Z</time>
      </trkpt>
      <trkpt lat="48.58308" lon="1.97711">
        <ele>115</ele>
        <time>2019-02-21T09:02:28Z</time>
      </trkpt>
      <trkpt lat="48.58312" lon="1.9772">
        <ele>115</ele>
        <time>2019-02-21T09:02:32Z</time>
      </trkpt>
      <trkpt lat="48.58314" lon="1.97727">
        <ele>115</ele>
        <time>2019-02-21T09:02:34Z</time>
      </trkpt>
      <trkpt lat="48.58317" lon="1.97733">
        <ele>115</ele>
        <time>2019-02-21T09:02:36Z</time>
      </trkpt>
      <trkpt lat="48.58318" lon="1.97743">
        <ele>115</ele>
        <time>2019-02-21T09:02:38Z</time>
      </trkpt>
      <trkpt lat="48.58322" lon="1.9775">
        <ele>114</ele>
        <time>2019-02-21T09:02:42Z</time>
      </trkpt>
      <trkpt lat="48.58325" lon="1.9776">
        <ele>113</ele>
        <time>2019-02-21T09:02:46Z</time>
      </trkpt>
      <trkpt lat="48.5833" lon="1.97771">
        <ele>113</ele>
        <time>2019-02-21T09:02:50Z</time>
      </trkpt>
      <trkpt lat="48.58332" lon="1.97778">
        <ele>112</ele>
        <time>2019-02-21T09:02:52Z</time>
      </trkpt>
      <trkpt lat="48.58337" lon="1.97789">
        <ele>114</ele>
        <time>2019-02-21T09:02:56Z</time>
      </trkpt>
      <trkpt lat="48.58343" lon="1.97794">
        <ele>114</ele>
        <time>2019-02-21T09:03:00Z</time>
      </trkpt>
      <trkpt lat="48.58348" lon="1.97799">
        <ele>113</ele>
        <time>2019-02-21T09:03:04Z</time>
      </trkpt>
      <trkpt lat="48.58354" lon="1.97807">
        <ele>113</ele>
        <time>2019-02-21T09:03:08Z</time>
      </trkpt>
      <trkpt lat="48.58357" lon="1.97816">
        <ele>113</ele>
        <time>2019-02-21T09:03:12Z</time>
      </trkpt>
      <trkpt lat="48.58363" lon="1.97821">
        <ele>113</ele>
        <time>2019-02-21T09:03:16Z</time>
      </trkpt>
      <trkpt lat="48.58369" lon="1.97833">
        <ele>113</ele>
        <time>2019-02-21T09:03:20Z</time>
      </trkpt>
      <trkpt lat="48.58376" lon="1.97838">
        <ele>112</ele>
        <time>2019-02-21T09:03:24Z</time>
      </trkpt>
      <trkpt lat="48.5838" lon="1.97844">
        <ele>112</ele>
        <time>2019-02-21T09:03:28Z</time>
      </trkpt>
      <trkpt lat="48.58384" lon="1.97853">
        <ele>112</ele>
        <time>2019-02-21T09:03:32Z</time>
      </trkpt>
      <trkpt lat="48.58388" lon="1.9786">
        <ele>112</ele>
        <time>2019-02-21T09:03:36Z</time>
      </trkpt>
      <trkpt lat="48.58393" lon="1.97869">
        <ele>112</ele>
        <time>2019-02-21T09:03:40Z</time>
      </trkpt>
      <trkpt lat="48.58397" lon="1.97877">
        <ele>112</ele>
        <time>2019-02-21T09:03:44Z</time>
      </trkpt>
      <trkpt lat="48.58404" lon="1.97886">
        <ele>112</ele>
        <time>2019-02-21T09:03:48Z</time>
      </trkpt>
      <trkpt lat="48.58409" lon="1.97892">
        <ele>112</ele>
        <time>2019-02-21T09:03:52Z</time>
      </trkpt>
      <trkpt lat="48.58414" lon="1.97897">
        <ele>112</ele>
        <time>2019-02-21T09:03:56Z</time>
      </trkpt>
      <trkpt lat="48.5842" lon="1.97903">
        <ele>114</ele>
        <time>2019-02-21T09:04:00Z</time>
      </trkpt>
      <trkpt lat="48.58424" lon="1.97911">
        <ele>114</ele>
        <time>2019-02-21T09:04:04Z</time>
      </trkpt>
      <trkpt lat="48.58428" lon="1.97917">
        <ele>114</ele>
        <time>2019-02-21T09:04:06Z</time>
      </trkpt>
      <trkpt lat="48.58433" lon="1.97918">
        <ele>113</ele>
        <time>2019-02-21T09:04:08Z</time>
      </trkpt>
      <trkpt lat="48.58439" lon="1.97929">
        <ele>114</ele>
        <time>2019-02-21T09:04:12Z</time>
      </trkpt>
      <trkpt lat="48.58443" lon="1.97935">
        <ele>114</ele>
        <time>2019-02-21T09:04:14Z</time>
      </trkpt>
      <trkpt lat="48.58446" lon="1.97942">
        <ele>114</ele>
        <time>2019-02-21T09:04:18Z</time>
      </trkpt>
      <trkpt lat="48.58452" lon="1.97949">
        <ele>114</ele>
        <time>2019-02-21T09:04:22Z</time>
      </trkpt>
      <trkpt lat="48.58458" lon="1.97956">
        <ele>114</ele>
        <time>2019-02-21T09:04:26Z</time>
      </trkpt>
      <trkpt lat="48.58462" lon="1.9796">
        <ele>114</ele>
        <time>2019-02-21T09:04:28Z</time>
      </trkpt>
      <trkpt lat="48.58468" lon="1.97968">
        <ele>114</ele>
        <time>2019-02-21T09:04:32Z</time>
      </trkpt>
      <trkpt lat="48.58471" lon="1.97974">
        <ele>115</ele>
        <time>2019-02-21T09:04:36Z</time>
      </trkpt>
      <trkpt lat="48.58477" lon="1.97978">
        <ele>115</ele>
        <time>2019-02-21T09:04:40Z</time>
      </trkpt>
      <trkpt lat="48.58481" lon="1.97985">
        <ele>115</ele>
        <time>2019-02-21T09:04:44Z</time>
      </trkpt>
      <trkpt lat="48.58487" lon="1.97988">
        <ele>115</ele>
        <time>2019-02-21T09:04:48Z</time>
      </trkpt>
      <trkpt lat="48.58492" lon="1.97993">
        <ele>115</ele>
        <time>2019-02-21T09:04:52Z</time>
      </trkpt>
      <trkpt lat="48.585" lon="1.97999">
        <ele>116</ele>
        <time>2019-02-21T09:04:56Z</time>
      </trkpt>
      <trkpt lat="48.58508" lon="1.9801">
        <ele>115</ele>
        <time>2019-02-21T09:05:00Z</time>
      </trkpt>
      <trkpt lat="48.58512" lon="1.98014">
        <ele>115</ele>
        <time>2019-02-21T09:05:02Z</time>
      </trkpt>
      <trkpt lat="48.58518" lon="1.98018">
        <ele>115</ele>
        <time>2019-02-21T09:05:06Z</time>
      </trkpt>
      <trkpt lat="48.58524" lon="1.98022">
        <ele>114</ele>
        <time>2019-02-21T09:05:10Z</time>
      </trkpt>
      <trkpt lat="48.58526" lon="1.98028">
        <ele>114</ele>
        <time>2019-02-21T09:05:12Z</time>
      </trkpt>
      <trkpt lat="48.5853" lon="1.98036">
        <ele>114</ele>
        <time>2019-02-21T09:05:16Z</time>
      </trkpt>
      <trkpt lat="48.58537" lon="1.98043">
        <ele>114</ele>
        <time>2019-02-21T09:05:20Z</time>
      </trkpt>
      <trkpt lat="48.58542" lon="1.98046">
        <ele>114</ele>
        <time>2019-02-21T09:05:22Z</time>
      </trkpt>
      <trkpt lat="48.58547" lon="1.98048">
        <ele>114</ele>
        <time>2019-02-21T09:05:24Z</time>
      </trkpt>
      <trkpt lat="48.58552" lon="1.98053">
        <ele>113</ele>
        <time>2019-02-21T09:05:28Z</time>
      </trkpt>
      <trkpt lat="48.58558" lon="1.98058">
        <ele>113</ele>
        <time>2019-02-21T09:05:32Z</time>
      </trkpt>
      <trkpt lat="48.58565" lon="1.98063">
        <ele>113</ele>
        <time>2019-02-21T09:05:36Z</time>
      </trkpt>
      <trkpt lat="48.5857" lon="1.98066">
        <ele>113</ele>
        <time>2019-02-21T09:05:40Z</time>
      </trkpt>
      <trkpt lat="48.58576" lon="1.98069">
        <ele>113</ele>
        <time>2019-02-21T09:05:44Z</time>
      </trkpt>
      <trkpt lat="48.58581" lon="1.9807">
        <ele>113</ele>
        <time>2019-02-21T09:06:18Z</time>
      </trkpt>
      <trkpt lat="48.58582" lon="1.9808">
        <ele>112</ele>
        <time>2019-02-21T09:06:58Z</time>
      </trkpt>
      <trkpt lat="48.5858" lon="1.98089">
        <ele>111</ele>
        <time>2019-02-21T09:07:04Z</time>
      </trkpt>
      <trkpt lat="48.58578" lon="1.98098">
        <ele>111</ele>
        <time>2019-02-21T09:07:08Z</time>
      </trkpt>
      <trkpt lat="48.58576" lon="1.98106">
        <ele>110</ele>
        <time>2019-02-21T09:07:12Z</time>
      </trkpt>
      <trkpt lat="48.58574" lon="1.98112">
        <ele>110</ele>
        <time>2019-02-21T09:07:16Z</time>
      </trkpt>
      <trkpt lat="48.58573" lon="1.98119">
        <ele>110</ele>
        <time>2019-02-21T09:07:22Z</time>
      </trkpt>
      <trkpt lat="48.58578" lon="1.98121">
        <ele>110</ele>
        <time>2019-02-21T09:07:28Z</time>
      </trkpt>
      <trkpt lat="48.58583" lon="1.98121">
        <ele>110</ele>
        <time>2019-02-21T09:07:32Z</time>
      </trkpt>
      <trkpt lat="48.58588" lon="1.98128">
        <ele>110</ele>
        <time>2019-02-21T09:07:38Z</time>
      </trkpt>
      <trkpt lat="48.58589" lon="1.98136">
        <ele>110</ele>
        <time>2019-02-21T09:07:42Z</time>
      </trkpt>
      <trkpt lat="48.58594" lon="1.98143">
        <ele>110</ele>
        <time>2019-02-21T09:07:48Z</time>
      </trkpt>
      <trkpt lat="48.58598" lon="1.98151">
        <ele>109</ele>
        <time>2019-02-21T09:07:52Z</time>
      </trkpt>
      <trkpt lat="48.586" lon="1.98156">
        <ele>109</ele>
        <time>2019-02-21T09:07:58Z</time>
      </trkpt>
      <trkpt lat="48.58598" lon="1.98164">
        <ele>109</ele>
        <time>2019-02-21T09:08:06Z</time>
      </trkpt>
      <trkpt lat="48.58594" lon="1.98169">
        <ele>109</ele>
        <time>2019-02-21T09:08:10Z</time>
      </trkpt>
      <trkpt lat="48.58588" lon="1.98176">
        <ele>109</ele>
        <time>2019-02-21T09:08:14Z</time>
      </trkpt>
      <trkpt lat="48.58583" lon="1.98179">
        <ele>109</ele>
        <time>2019-02-21T09:08:18Z</time>
      </trkpt>
      <trkpt lat="48.58578" lon="1.98181">
        <ele>109</ele>
        <time>2019-02-21T09:08:22Z</time>
      </trkpt>
      <trkpt lat="48.58572" lon="1.98182">
        <ele>109</ele>
        <time>2019-02-21T09:08:26Z</time>
      </trkpt>
      <trkpt lat="48.58568" lon="1.98187">
        <ele>109</ele>
        <time>2019-02-21T09:08:30Z</time>
      </trkpt>
      <trkpt lat="48.58563" lon="1.98195">
        <ele>109</ele>
        <time>2019-02-21T09:08:38Z</time>
      </trkpt>
      <trkpt lat="48.58559" lon="1.98201">
        <ele>109</ele>
        <time>2019-02-21T09:08:42Z</time>
      </trkpt>
      <trkpt lat="48.58553" lon="1.98209">
        <ele>108</ele>
        <time>2019-02-21T09:08:46Z</time>
      </trkpt>
      <trkpt lat="48.5855" lon="1.98216">
        <ele>108</ele>
        <time>2019-02-21T09:08:50Z</time>
      </trkpt>
      <trkpt lat="48.58548" lon="1.98221">
        <ele>108</ele>
        <time>2019-02-21T09:08:54Z</time>
      </trkpt>
      <trkpt lat="48.58543" lon="1.9823">
        <ele>108</ele>
        <time>2019-02-21T09:09:00Z</time>
      </trkpt>
      <trkpt lat="48.58541" lon="1.9824">
        <ele>109</ele>
        <time>2019-02-21T09:09:04Z</time>
      </trkpt>
      <trkpt lat="48.58538" lon="1.98248">
        <ele>109</ele>
        <time>2019-02-21T09:09:08Z</time>
      </trkpt>
      <trkpt lat="48.58536" lon="1.98258">
        <ele>108</ele>
        <time>2019-02-21T09:09:14Z</time>
      </trkpt>
      <trkpt lat="48.58534" lon="1.98267">
        <ele>108</ele>
        <time>2019-02-21T09:09:18Z</time>
      </trkpt>
      <trkpt lat="48.58532" lon="1.98274">
        <ele>108</ele>
        <time>2019-02-21T09:09:20Z</time>
      </trkpt>
      <trkpt lat="48.5853" lon="1.98281">
        <ele>108</ele>
        <time>2019-02-21T09:09:22Z</time>
      </trkpt>
      <trkpt lat="48.58527" lon="1.98291">
        <ele>108</ele>
        <time>2019-02-21T09:09:26Z</time>
      </trkpt>
      <trkpt lat="48.58526" lon="1.98305">
        <ele>108</ele>
        <time>2019-02-21T09:09:30Z</time>
      </trkpt>
      <trkpt lat="48.58528" lon="1.98318">
        <ele>108</ele>
        <time>2019-02-21T09:09:34Z</time>
      </trkpt>
      <trkpt lat="48.5853" lon="1.98329">
        <ele>108</ele>
        <time>2019-02-21T09:09:38Z</time>
      </trkpt>
      <trkpt lat="48.58535" lon="1.98339">
        <ele>108</ele>
        <time>2019-02-21T09:09:42Z</time>
      </trkpt>
      <trkpt lat="48.58539" lon="1.98349">
        <ele>108</ele>
        <time>2019-02-21T09:09:46Z</time>
      </trkpt>
      <trkpt lat="48.58542" lon="1.98356">
        <ele>108</ele>
        <time>2019-02-21T09:09:50Z</time>
      </trkpt>
      <trkpt lat="48.58547" lon="1.98358">
        <ele>108</ele>
        <time>2019-02-21T09:09:58Z</time>
      </trkpt>
      <trkpt lat="48.58556" lon="1.98358">
        <ele>108</ele>
        <time>2019-02-21T09:10:02Z</time>
      </trkpt>
      <trkpt lat="48.58564" lon="1.98358">
        <ele>108</ele>
        <time>2019-02-21T09:10:06Z</time>
      </trkpt>
      <trkpt lat="48.58568" lon="1.98358">
        <ele>108</ele>
        <time>2019-02-21T09:10:08Z</time>
      </trkpt>
      <trkpt lat="48.58573" lon="1.98357">
        <ele>108</ele>
        <time>2019-02-21T09:10:10Z</time>
      </trkpt>
      <trkpt lat="48.58581" lon="1.98356">
        <ele>108</ele>
        <time>2019-02-21T09:10:14Z</time>
      </trkpt>
      <trkpt lat="48.58589" lon="1.98352">
        <ele>109</ele>
        <time>2019-02-21T09:10:18Z</time>
      </trkpt>
      <trkpt lat="48.58593" lon="1.98352">
        <ele>109</ele>
        <time>2019-02-21T09:10:20Z</time>
      </trkpt>
      <trkpt lat="48.58601" lon="1.98351">
        <ele>109</ele>
        <time>2019-02-21T09:10:24Z</time>
      </trkpt>
      <trkpt lat="48.58607" lon="1.9835">
        <ele>109</ele>
        <time>2019-02-21T09:10:28Z</time>
      </trkpt>
      <trkpt lat="48.58613" lon="1.9835">
        <ele>109</ele>
        <time>2019-02-21T09:10:32Z</time>
      </trkpt>
      <trkpt lat="48.5862" lon="1.98348">
        <ele>109</ele>
        <time>2019-02-21T09:10:36Z</time>
      </trkpt>
      <trkpt lat="48.58626" lon="1.98347">
        <ele>109</ele>
        <time>2019-02-21T09:10:40Z</time>
      </trkpt>
      <trkpt lat="48.58633" lon="1.98347">
        <ele>109</ele>
        <time>2019-02-21T09:10:44Z</time>
      </trkpt>
      <trkpt lat="48.58638" lon="1.98345">
        <ele>109</ele>
        <time>2019-02-21T09:10:50Z</time>
      </trkpt>
      <trkpt lat="48.58644" lon="1.98346">
        <ele>110</ele>
        <time>2019-02-21T09:10:54Z</time>
      </trkpt>
      <trkpt lat="48.58652" lon="1.98346">
        <ele>110</ele>
        <time>2019-02-21T09:10:58Z</time>
      </trkpt>
      <trkpt lat="48.58657" lon="1.98347">
        <ele>110</ele>
        <time>2019-02-21T09:11:00Z</time>
      </trkpt>
      <trkpt lat="48.58664" lon="1.9835">
        <ele>110</ele>
        <time>2019-02-21T09:11:04Z</time>
      </trkpt>
      <trkpt lat="48.58672" lon="1.98353">
        <ele>111</ele>
        <time>2019-02-21T09:11:08Z</time>
      </trkpt>
      <trkpt lat="48.58678" lon="1.98357">
        <ele>111</ele>
        <time>2019-02-21T09:11:12Z</time>
      </trkpt>
      <trkpt lat="48.58685" lon="1.98361">
        <ele>111</ele>
        <time>2019-02-21T09:11:16Z</time>
      </trkpt>
      <trkpt lat="48.5869" lon="1.98365">
        <ele>111</ele>
        <time>2019-02-21T09:11:20Z</time>
      </trkpt>
      <trkpt lat="48.58698" lon="1.98369">
        <ele>111</ele>
        <time>2019-02-21T09:11:24Z</time>
      </trkpt>
      <trkpt lat="48.58704" lon="1.98372">
        <ele>111</ele>
        <time>2019-02-21T09:11:28Z</time>
      </trkpt>
      <trkpt lat="48.58709" lon="1.98373">
        <ele>111</ele>
        <time>2019-02-21T09:11:30Z</time>
      </trkpt>
      <trkpt lat="48.58716" lon="1.98377">
        <ele>111</ele>
        <time>2019-02-21T09:11:34Z</time>
      </trkpt>
      <trkpt lat="48.58721" lon="1.98382">
        <ele>111</ele>
        <time>2019-02-21T09:11:38Z</time>
      </trkpt>
      <trkpt lat="48.58726" lon="1.98389">
        <ele>111</ele>
        <time>2019-02-21T09:11:44Z</time>
      </trkpt>
      <trkpt lat="48.58733" lon="1.98396">
        <ele>111</ele>
        <time>2019-02-21T09:11:48Z</time>
      </trkpt>
      <trkpt lat="48.58737" lon="1.98402">
        <ele>111</ele>
        <time>2019-02-21T09:11:52Z</time>
      </trkpt>
      <trkpt lat="48.58744" lon="1.98406">
        <ele>111</ele>
        <time>2019-02-21T09:11:56Z</time>
      </trkpt>
      <trkpt lat="48.5875" lon="1.98413">
        <ele>111</ele>
        <time>2019-02-21T09:12:00Z</time>
      </trkpt>
      <trkpt lat="48.58754" lon="1.98419">
        <ele>111</ele>
        <time>2019-02-21T09:12:04Z</time>
      </trkpt>
      <trkpt lat="48.58758" lon="1.98427">
        <ele>112</ele>
        <time>2019-02-21T09:12:08Z</time>
      </trkpt>
      <trkpt lat="48.58762" lon="1.98434">
        <ele>112</ele>
        <time>2019-02-21T09:12:12Z</time>
      </trkpt>
      <trkpt lat="48.58769" lon="1.98444">
        <ele>112</ele>
        <time>2019-02-21T09:12:16Z</time>
      </trkpt>
      <trkpt lat="48.58774" lon="1.98451">
        <ele>112</ele>
        <time>2019-02-21T09:12:20Z</time>
      </trkpt>
      <trkpt lat="48.58778" lon="1.98456">
        <ele>112</ele>
        <time>2019-02-21T09:12:22Z</time>
      </trkpt>
      <trkpt lat="48.58783" lon="1.98465">
        <ele>112</ele>
        <time>2019-02-21T09:12:26Z</time>
      </trkpt>
      <trkpt lat="48.58788" lon="1.98472">
        <ele>112</ele>
        <time>2019-02-21T09:12:30Z</time>
      </trkpt>
      <trkpt lat="48.58792" lon="1.9848">
        <ele>112</ele>
        <time>2019-02-21T09:12:34Z</time>
      </trkpt>
      <trkpt lat="48.58796" lon="1.98487">
        <ele>112</ele>
        <time>2019-02-21T09:12:38Z</time>
      </trkpt>
      <trkpt lat="48.588" lon="1.98493">
        <ele>113</ele>
        <time>2019-02-21T09:12:42Z</time>
      </trkpt>
      <trkpt lat="48.58804" lon="1.98499">
        <ele>113</ele>
        <time>2019-02-21T09:12:46Z</time>
      </trkpt>
      <trkpt lat="48.5881" lon="1.98504">
        <ele>112</ele>
        <time>2019-02-21T09:12:50Z</time>
      </trkpt>
      <trkpt lat="48.58815" lon="1.98508">
        <ele>112</ele>
        <time>2019-02-21T09:12:54Z</time>
      </trkpt>
      <trkpt lat="48.5882" lon="1.98514">
        <ele>112</ele>
        <time>2019-02-21T09:12:58Z</time>
      </trkpt>
      <trkpt lat="48.58826" lon="1.98516">
        <ele>112</ele>
        <time>2019-02-21T09:13:02Z</time>
      </trkpt>
      <trkpt lat="48.58831" lon="1.98518">
        <ele>112</ele>
        <time>2019-02-21T09:13:06Z</time>
      </trkpt>
      <trkpt lat="48.58834" lon="1.98526">
        <ele>114</ele>
        <time>2019-02-21T09:13:10Z</time>
      </trkpt>
      <trkpt lat="48.5884" lon="1.98532">
        <ele>114</ele>
        <time>2019-02-21T09:13:14Z</time>
      </trkpt>
      <trkpt lat="48.58848" lon="1.98539">
        <ele>113</ele>
        <time>2019-02-21T09:13:18Z</time>
      </trkpt>
      <trkpt lat="48.58851" lon="1.9855">
        <ele>113</ele>
        <time>2019-02-21T09:13:22Z</time>
      </trkpt>
      <trkpt lat="48.58855" lon="1.98557">
        <ele>113</ele>
        <time>2019-02-21T09:13:26Z</time>
      </trkpt>
      <trkpt lat="48.58861" lon="1.98564">
        <ele>113</ele>
        <time>2019-02-21T09:13:30Z</time>
      </trkpt>
      <trkpt lat="48.58867" lon="1.98571">
        <ele>113</ele>
        <time>2019-02-21T09:13:34Z</time>
      </trkpt>
      <trkpt lat="48.58872" lon="1.98579">
        <ele>113</ele>
        <time>2019-02-21T09:13:38Z</time>
      </trkpt>
      <trkpt lat="48.58878" lon="1.98582">
        <ele>113</ele>
        <time>2019-02-21T09:13:42Z</time>
      </trkpt>
      <trkpt lat="48.58883" lon="1.98588">
        <ele>112</ele>
        <time>2019-02-21T09:13:46Z</time>
      </trkpt>
      <trkpt lat="48.58886" lon="1.98595">
        <ele>112</ele>
        <time>2019-02-21T09:13:50Z</time>
      </trkpt>
      <trkpt lat="48.5889" lon="1.98599">
        <ele>113</ele>
        <time>2019-02-21T09:13:54Z</time>
      </trkpt>
      <trkpt lat="48.58897" lon="1.98604">
        <ele>113</ele>
        <time>2019-02-21T09:13:58Z</time>
      </trkpt>
      <trkpt lat="48.58903" lon="1.9861">
        <ele>113</ele>
        <time>2019-02-21T09:14:02Z</time>
      </trkpt>
      <trkpt lat="48.58905" lon="1.98617">
        <ele>113</ele>
        <time>2019-02-21T09:14:06Z</time>
      </trkpt>
      <trkpt lat="48.58914" lon="1.98618">
        <ele>113</ele>
        <time>2019-02-21T09:14:10Z</time>
      </trkpt>
      <trkpt lat="48.58917" lon="1.98624">
        <ele>115</ele>
        <time>2019-02-21T09:14:14Z</time>
      </trkpt>
      <trkpt lat="48.5892" lon="1.98628">
        <ele>115</ele>
        <time>2019-02-21T09:14:16Z</time>
      </trkpt>
      <trkpt lat="48.58926" lon="1.98633">
        <ele>115</ele>
        <time>2019-02-21T09:14:20Z</time>
      </trkpt>
      <trkpt lat="48.58933" lon="1.98636">
        <ele>115</ele>
        <time>2019-02-21T09:14:24Z</time>
      </trkpt>
      <trkpt lat="48.58938" lon="1.98641">
        <ele>115</ele>
        <time>2019-02-21T09:14:28Z</time>
      </trkpt>
      <trkpt lat="48.58946" lon="1.98645">
        <ele>115</ele>
        <time>2019-02-21T09:14:32Z</time>
      </trkpt>
      <trkpt lat="48.58951" lon="1.98651">
        <ele>115</ele>
        <time>2019-02-21T09:14:36Z</time>
      </trkpt>
      <trkpt lat="48.58956" lon="1.98656">
        <ele>116</ele>
        <time>2019-02-21T09:14:40Z</time>
      </trkpt>
      <trkpt lat="48.58964" lon="1.98662">
        <ele>116</ele>
        <time>2019-02-21T09:14:44Z</time>
      </trkpt>
      <trkpt lat="48.58968" lon="1.9867">
        <ele>115</ele>
        <time>2019-02-21T09:14:48Z</time>
      </trkpt>
      <trkpt lat="48.58975" lon="1.98674">
        <ele>115</ele>
        <time>2019-02-21T09:14:52Z</time>
      </trkpt>
      <trkpt lat="48.58979" lon="1.9868">
        <ele>115</ele>
        <time>2019-02-21T09:14:56Z</time>
      </trkpt>
      <trkpt lat="48.58985" lon="1.98685">
        <ele>115</ele>
        <time>2019-02-21T09:15:00Z</time>
      </trkpt>
      <trkpt lat="48.5899" lon="1.98691">
        <ele>115</ele>
        <time>2019-02-21T09:15:06Z</time>
      </trkpt>
      <trkpt lat="48.58995" lon="1.98696">
        <ele>115</ele>
        <time>2019-02-21T09:15:10Z</time>
      </trkpt>
      <trkpt lat="48.58999" lon="1.98701">
        <ele>115</ele>
        <time>2019-02-21T09:15:14Z</time>
      </trkpt>
      <trkpt lat="48.59003" lon="1.98706">
        <ele>117</ele>
        <time>2019-02-21T09:15:18Z</time>
      </trkpt>
      <trkpt lat="48.59008" lon="1.98711">
        <ele>117</ele>
        <time>2019-02-21T09:15:22Z</time>
      </trkpt>
      <trkpt lat="48.59013" lon="1.98718">
        <ele>117</ele>
        <time>2019-02-21T09:15:28Z</time>
      </trkpt>
      <trkpt lat="48.59017" lon="1.98724">
        <ele>117</ele>
        <time>2019-02-21T09:15:32Z</time>
      </trkpt>
      <trkpt lat="48.59026" lon="1.98728">
        <ele>117</ele>
        <time>2019-02-21T09:15:36Z</time>
      </trkpt>
      <trkpt lat="48.59033" lon="1.98733">
        <ele>117</ele>
        <time>2019-02-21T09:15:40Z</time>
      </trkpt>
      <trkpt lat="48.59037" lon="1.98737">
        <ele>117</ele>
        <time>2019-02-21T09:15:42Z</time>
      </trkpt>
      <trkpt lat="48.59041" lon="1.9874">
        <ele>117</ele>
        <time>2019-02-21T09:15:44Z</time>
      </trkpt>
      <trkpt lat="48.59047" lon="1.98745">
        <ele>117</ele>
        <time>2019-02-21T09:15:48Z</time>
      </trkpt>
      <trkpt lat="48.59054" lon="1.9875">
        <ele>117</ele>
        <time>2019-02-21T09:15:52Z</time>
      </trkpt>
      <trkpt lat="48.5906" lon="1.98756">
        <ele>117</ele>
        <time>2019-02-21T09:15:56Z</time>
      </trkpt>
      <trkpt lat="48.59064" lon="1.98763">
        <ele>117</ele>
        <time>2019-02-21T09:16:00Z</time>
      </trkpt>
      <trkpt lat="48.59068" lon="1.9877">
        <ele>117</ele>
        <time>2019-02-21T09:16:04Z</time>
      </trkpt>
      <trkpt lat="48.59071" lon="1.98775">
        <ele>117</ele>
        <time>2019-02-21T09:16:08Z</time>
      </trkpt>
      <trkpt lat="48.59074" lon="1.98782">
        <ele>117</ele>
        <time>2019-02-21T09:16:12Z</time>
      </trkpt>
      <trkpt lat="48.5908" lon="1.98789">
        <ele>117</ele>
        <time>2019-02-21T09:16:16Z</time>
      </trkpt>
      <trkpt lat="48.59085" lon="1.98798">
        <ele>118</ele>
        <time>2019-02-21T09:16:20Z</time>
      </trkpt>
      <trkpt lat="48.5909" lon="1.98805">
        <ele>118</ele>
        <time>2019-02-21T09:16:24Z</time>
      </trkpt>
      <trkpt lat="48.59095" lon="1.98811">
        <ele>118</ele>
        <time>2019-02-21T09:16:28Z</time>
      </trkpt>
      <trkpt lat="48.59102" lon="1.98815">
        <ele>118</ele>
        <time>2019-02-21T09:16:32Z</time>
      </trkpt>
      <trkpt lat="48.59107" lon="1.98822">
        <ele>118</ele>
        <time>2019-02-21T09:16:36Z</time>
      </trkpt>
      <trkpt lat="48.59114" lon="1.98828">
        <ele>119</ele>
        <time>2019-02-21T09:16:40Z</time>
      </trkpt>
      <trkpt lat="48.59119" lon="1.98834">
        <ele>118</ele>
        <time>2019-02-21T09:16:44Z</time>
      </trkpt>
      <trkpt lat="48.59125" lon="1.98838">
        <ele>119</ele>
        <time>2019-02-21T09:16:48Z</time>
      </trkpt>
      <trkpt lat="48.59131" lon="1.98846">
        <ele>119</ele>
        <time>2019-02-21T09:16:52Z</time>
      </trkpt>
      <trkpt lat="48.59138" lon="1.98853">
        <ele>119</ele>
        <time>2019-02-21T09:16:56Z</time>
      </trkpt>
      <trkpt lat="48.59146" lon="1.98858">
        <ele>119</ele>
        <time>2019-02-21T09:17:00Z</time>
      </trkpt>
      <trkpt lat="48.59152" lon="1.98866">
        <ele>119</ele>
        <time>2019-02-21T09:17:04Z</time>
      </trkpt>
      <trkpt lat="48.59157" lon="1.98873">
        <ele>119</ele>
        <time>2019-02-21T09:17:08Z</time>
      </trkpt>
      <trkpt lat="48.59161" lon="1.98876">
        <ele>118</ele>
        <time>2019-02-21T09:17:10Z</time>
      </trkpt>
      <trkpt lat="48.59164" lon="1.98883">
        <ele>118</ele>
        <time>2019-02-21T09:17:14Z</time>
      </trkpt>
      <trkpt lat="48.5917" lon="1.9889">
        <ele>119</ele>
        <time>2019-02-21T09:17:18Z</time>
      </trkpt>
      <trkpt lat="48.59172" lon="1.989">
        <ele>118</ele>
        <time>2019-02-21T09:17:22Z</time>
      </trkpt>
      <trkpt lat="48.59172" lon="1.98907">
        <ele>118</ele>
        <time>2019-02-21T09:17:26Z</time>
      </trkpt>
      <trkpt lat="48.59173" lon="1.98914">
        <ele>118</ele>
        <time>2019-02-21T09:17:30Z</time>
      </trkpt>
      <trkpt lat="48.59176" lon="1.9892">
        <ele>119</ele>
        <time>2019-02-21T09:17:34Z</time>
      </trkpt>
      <trkpt lat="48.59181" lon="1.98924">
        <ele>119</ele>
        <time>2019-02-21T09:17:38Z</time>
      </trkpt>
      <trkpt lat="48.59188" lon="1.98931">
        <ele>119</ele>
        <time>2019-02-21T09:17:42Z</time>
      </trkpt>
      <trkpt lat="48.59193" lon="1.98937">
        <ele>119</ele>
        <time>2019-02-21T09:17:46Z</time>
      </trkpt>
      <trkpt lat="48.59196" lon="1.98944">
        <ele>119</ele>
        <time>2019-02-21T09:17:50Z</time>
      </trkpt>
      <trkpt lat="48.59197" lon="1.98951">
        <ele>119</ele>
        <time>2019-02-21T09:17:54Z</time>
      </trkpt>
      <trkpt lat="48.592" lon="1.98961">
        <ele>120</ele>
        <time>2019-02-21T09:18:00Z</time>
      </trkpt>
      <trkpt lat="48.59205" lon="1.98964">
        <ele>120</ele>
        <time>2019-02-21T09:18:06Z</time>
      </trkpt>
      <trkpt lat="48.59208" lon="1.98958">
        <ele>119</ele>
        <time>2019-02-21T09:18:12Z</time>
      </trkpt>
      <trkpt lat="48.59209" lon="1.9895">
        <ele>119</ele>
        <time>2019-02-21T09:18:18Z</time>
      </trkpt>
      <trkpt lat="48.59211" lon="1.98942">
        <ele>119</ele>
        <time>2019-02-21T09:18:32Z</time>
      </trkpt>
      <trkpt lat="48.59215" lon="1.98935">
        <ele>119</ele>
        <time>2019-02-21T09:18:38Z</time>
      </trkpt>
      <trkpt lat="48.59219" lon="1.98929">
        <ele>119</ele>
        <time>2019-02-21T09:18:42Z</time>
      </trkpt>
      <trkpt lat="48.59223" lon="1.98924">
        <ele>119</ele>
        <time>2019-02-21T09:18:46Z</time>
      </trkpt>
      <trkpt lat="48.59228" lon="1.9892">
        <ele>119</ele>
        <time>2019-02-21T09:18:56Z</time>
      </trkpt>
      <trkpt lat="48.59223" lon="1.98922">
        <ele>119</ele>
        <time>2019-02-21T09:20:22Z</time>
      </trkpt>
      <trkpt lat="48.59226" lon="1.98916">
        <ele>119</ele>
        <time>2019-02-21T09:20:28Z</time>
      </trkpt>
      <trkpt lat="48.59229" lon="1.98907">
        <ele>119</ele>
        <time>2019-02-21T09:20:34Z</time>
      </trkpt>
      <trkpt lat="48.59232" lon="1.989">
        <ele>119</ele>
        <time>2019-02-21T09:20:38Z</time>
      </trkpt>
      <trkpt lat="48.59236" lon="1.98893">
        <ele>119</ele>
        <time>2019-02-21T09:20:42Z</time>
      </trkpt>
      <trkpt lat="48.5924" lon="1.98886">
        <ele>119</ele>
        <time>2019-02-21T09:20:46Z</time>
      </trkpt>
      <trkpt lat="48.59245" lon="1.98881">
        <ele>119</ele>
        <time>2019-02-21T09:20:50Z</time>
      </trkpt>
      <trkpt lat="48.59251" lon="1.98875">
        <ele>120</ele>
        <time>2019-02-21T09:20:54Z</time>
      </trkpt>
      <trkpt lat="48.59259" lon="1.98871">
        <ele>120</ele>
        <time>2019-02-21T09:20:58Z</time>
      </trkpt>
      <trkpt lat="48.59266" lon="1.98867">
        <ele>120</ele>
        <time>2019-02-21T09:21:02Z</time>
      </trkpt>
      <trkpt lat="48.59271" lon="1.98864">
        <ele>120</ele>
        <time>2019-02-21T09:21:06Z</time>
      </trkpt>
      <trkpt lat="48.59276" lon="1.98861">
        <ele>120</ele>
        <time>2019-02-21T09:21:10Z</time>
      </trkpt>
      <trkpt lat="48.59281" lon="1.98859">
        <ele>120</ele>
        <time>2019-02-21T09:21:14Z</time>
      </trkpt>
      <trkpt lat="48.59285" lon="1.98855">
        <ele>120</ele>
        <time>2019-02-21T09:21:20Z</time>
      </trkpt>
      <trkpt lat="48.59292" lon="1.98853">
        <ele>120</ele>
        <time>2019-02-21T09:21:24Z</time>
      </trkpt>
      <trkpt lat="48.593" lon="1.98851">
        <ele>120</ele>
        <time>2019-02-21T09:21:28Z</time>
      </trkpt>
      <trkpt lat="48.59306" lon="1.98849">
        <ele>120</ele>
        <time>2019-02-21T09:21:32Z</time>
      </trkpt>
      <trkpt lat="48.59311" lon="1.98847">
        <ele>120</ele>
        <time>2019-02-21T09:21:36Z</time>
      </trkpt>
      <trkpt lat="48.59317" lon="1.98845">
        <ele>120</ele>
        <time>2019-02-21T09:21:40Z</time>
      </trkpt>
      <trkpt lat="48.59321" lon="1.98841">
        <ele>121</ele>
        <time>2019-02-21T09:21:48Z</time>
      </trkpt>
      <trkpt lat="48.5933" lon="1.98838">
        <ele>121</ele>
        <time>2019-02-21T09:21:52Z</time>
      </trkpt>
      <trkpt lat="48.59335" lon="1.98836">
        <ele>121</ele>
        <time>2019-02-21T09:21:54Z</time>
      </trkpt>
      <trkpt lat="48.5934" lon="1.98834">
        <ele>121</ele>
        <time>2019-02-21T09:21:56Z</time>
      </trkpt>
      <trkpt lat="48.59346" lon="1.98832">
        <ele>121</ele>
        <time>2019-02-21T09:22:00Z</time>
      </trkpt>
      <trkpt lat="48.5935" lon="1.98829">
        <ele>121</ele>
        <time>2019-02-21T09:22:02Z</time>
      </trkpt>
      <trkpt lat="48.59356" lon="1.98828">
        <ele>121</ele>
        <time>2019-02-21T09:22:06Z</time>
      </trkpt>
      <trkpt lat="48.59361" lon="1.98825">
        <ele>121</ele>
        <time>2019-02-21T09:22:08Z</time>
      </trkpt>
      <trkpt lat="48.59366" lon="1.98823">
        <ele>121</ele>
        <time>2019-02-21T09:22:10Z</time>
      </trkpt>
      <trkpt lat="48.59372" lon="1.98819">
        <ele>121</ele>
        <time>2019-02-21T09:22:14Z</time>
      </trkpt>
      <trkpt lat="48.59377" lon="1.98818">
        <ele>121</ele>
        <time>2019-02-21T09:22:16Z</time>
      </trkpt>
      <trkpt lat="48.59383" lon="1.98817">
        <ele>121</ele>
        <time>2019-02-21T09:22:20Z</time>
      </trkpt>
      <trkpt lat="48.59391" lon="1.98817">
        <ele>121</ele>
        <time>2019-02-21T09:22:24Z</time>
      </trkpt>
      <trkpt lat="48.59399" lon="1.98817">
        <ele>121</ele>
        <time>2019-02-21T09:22:28Z</time>
      </trkpt>
      <trkpt lat="48.59407" lon="1.98813">
        <ele>122</ele>
        <time>2019-02-21T09:22:32Z</time>
      </trkpt>
      <trkpt lat="48.59413" lon="1.98812">
        <ele>122</ele>
        <time>2019-02-21T09:22:36Z</time>
      </trkpt>
      <trkpt lat="48.59418" lon="1.98813">
        <ele>123</ele>
        <time>2019-02-21T09:22:40Z</time>
      </trkpt>
      <trkpt lat="48.59424" lon="1.98812">
        <ele>123</ele>
        <time>2019-02-21T09:22:44Z</time>
      </trkpt>
      <trkpt lat="48.59431" lon="1.9881">
        <ele>123</ele>
        <time>2019-02-21T09:22:50Z</time>
      </trkpt>
      <trkpt lat="48.59438" lon="1.98809">
        <ele>123</ele>
        <time>2019-02-21T09:22:54Z</time>
      </trkpt>
      <trkpt lat="48.59442" lon="1.9881">
        <ele>123</ele>
        <time>2019-02-21T09:22:58Z</time>
      </trkpt>
      <trkpt lat="48.59448" lon="1.9881">
        <ele>123</ele>
        <time>2019-02-21T09:23:04Z</time>
      </trkpt>
      <trkpt lat="48.59453" lon="1.9881">
        <ele>123</ele>
        <time>2019-02-21T09:23:08Z</time>
      </trkpt>
      <trkpt lat="48.59458" lon="1.98811">
        <ele>124</ele>
        <time>2019-02-21T09:23:14Z</time>
      </trkpt>
      <trkpt lat="48.59463" lon="1.9881">
        <ele>124</ele>
        <time>2019-02-21T09:23:20Z</time>
      </trkpt>
      <trkpt lat="48.59471" lon="1.98808">
        <ele>124</ele>
        <time>2019-02-21T09:23:24Z</time>
      </trkpt>
      <trkpt lat="48.59476" lon="1.98806">
        <ele>124</ele>
        <time>2019-02-21T09:23:30Z</time>
      </trkpt>
      <trkpt lat="48.59483" lon="1.98806">
        <ele>124</ele>
        <time>2019-02-21T09:23:38Z</time>
      </trkpt>
      <trkpt lat="48.59488" lon="1.98804">
        <ele>124</ele>
        <time>2019-02-21T09:23:42Z</time>
      </trkpt>
      <trkpt lat="48.59494" lon="1.98802">
        <ele>124</ele>
        <time>2019-02-21T09:23:46Z</time>
      </trkpt>
      <trkpt lat="48.595" lon="1.988">
        <ele>126</ele>
        <time>2019-02-21T09:23:52Z</time>
      </trkpt>
      <trkpt lat="48.59508" lon="1.988">
        <ele>127</ele>
        <time>2019-02-21T09:23:56Z</time>
      </trkpt>
      <trkpt lat="48.59514" lon="1.98798">
        <ele>127</ele>
        <time>2019-02-21T09:24:00Z</time>
      </trkpt>
      <trkpt lat="48.59521" lon="1.98798">
        <ele>127</ele>
        <time>2019-02-21T09:24:06Z</time>
      </trkpt>
      <trkpt lat="48.59527" lon="1.98799">
        <ele>127</ele>
        <time>2019-02-21T09:24:10Z</time>
      </trkpt>
      <trkpt lat="48.59532" lon="1.98797">
        <ele>127</ele>
        <time>2019-02-21T09:24:14Z</time>
      </trkpt>
      <trkpt lat="48.59537" lon="1.98798">
        <ele>127</ele>
        <time>2019-02-21T09:24:20Z</time>
      </trkpt>
      <trkpt lat="48.59542" lon="1.98796">
        <ele>127</ele>
        <time>2019-02-21T09:24:24Z</time>
      </trkpt>
      <trkpt lat="48.59548" lon="1.98794">
        <ele>127</ele>
        <time>2019-02-21T09:24:28Z</time>
      </trkpt>
      <trkpt lat="48.59556" lon="1.98793">
        <ele>128</ele>
        <time>2019-02-21T09:24:32Z</time>
      </trkpt>
      <trkpt lat="48.59563" lon="1.98793">
        <ele>128</ele>
        <time>2019-02-21T09:24:36Z</time>
      </trkpt>
      <trkpt lat="48.59569" lon="1.98792">
        <ele>128</ele>
        <time>2019-02-21T09:24:40Z</time>
      </trkpt>
      <trkpt lat="48.59573" lon="1.98792">
        <ele>128</ele>
        <time>2019-02-21T09:24:48Z</time>
      </trkpt>
      <trkpt lat="48.59578" lon="1.98792">
        <ele>128</ele>
        <time>2019-02-21T09:24:54Z</time>
      </trkpt>
      <trkpt lat="48.59584" lon="1.98791">
        <ele>129</ele>
        <time>2019-02-21T09:24:58Z</time>
      </trkpt>
      <trkpt lat="48.5959" lon="1.98791">
        <ele>129</ele>
        <time>2019-02-21T09:25:02Z</time>
      </trkpt>
      <trkpt lat="48.59596" lon="1.98792">
        <ele>129</ele>
        <time>2019-02-21T09:25:06Z</time>
      </trkpt>
      <trkpt lat="48.59601" lon="1.98791">
        <ele>129</ele>
        <time>2019-02-21T09:25:10Z</time>
      </trkpt>
      <trkpt lat="48.59609" lon="1.98789">
        <ele>129</ele>
        <time>2019-02-21T09:25:14Z</time>
      </trkpt>
      <trkpt lat="48.59614" lon="1.98789">
        <ele>129</ele>
        <time>2019-02-21T09:25:18Z</time>
      </trkpt>
      <trkpt lat="48.5962" lon="1.98788">
        <ele>129</ele>
        <time>2019-02-21T09:25:22Z</time>
      </trkpt>
      <trkpt lat="48.59625" lon="1.98786">
        <ele>129</ele>
        <time>2019-02-21T09:25:24Z</time>
      </trkpt>
      <trkpt lat="48.59633" lon="1.98787">
        <ele>129</ele>
        <time>2019-02-21T09:25:28Z</time>
      </trkpt>
      <trkpt lat="48.59642" lon="1.98786">
        <ele>129</ele>
        <time>2019-02-21T09:25:34Z</time>
      </trkpt>
      <trkpt lat="48.59649" lon="1.98787">
        <ele>129</ele>
        <time>2019-02-21T09:25:38Z</time>
      </trkpt>
      <trkpt lat="48.59657" lon="1.98787">
        <ele>129</ele>
        <time>2019-02-21T09:25:44Z</time>
      </trkpt>
      <trkpt lat="48.59662" lon="1.98786">
        <ele>129</ele>
        <time>2019-02-21T09:25:48Z</time>
      </trkpt>
      <trkpt lat="48.59671" lon="1.98786">
        <ele>128</ele>
        <time>2019-02-21T09:25:56Z</time>
      </trkpt>
      <trkpt lat="48.59678" lon="1.98786">
        <ele>128</ele>
        <time>2019-02-21T09:26:00Z</time>
      </trkpt>
      <trkpt lat="48.59687" lon="1.98783">
        <ele>128</ele>
        <time>2019-02-21T09:26:04Z</time>
      </trkpt>
      <trkpt lat="48.59693" lon="1.98785">
        <ele>127</ele>
        <time>2019-02-21T09:26:08Z</time>
      </trkpt>
      <trkpt lat="48.59701" lon="1.98784">
        <ele>127</ele>
        <time>2019-02-21T09:26:12Z</time>
      </trkpt>
      <trkpt lat="48.59707" lon="1.98786">
        <ele>127</ele>
        <time>2019-02-21T09:26:18Z</time>
      </trkpt>
      <trkpt lat="48.59715" lon="1.98786">
        <ele>127</ele>
        <time>2019-02-21T09:26:22Z</time>
      </trkpt>
      <trkpt lat="48.59724" lon="1.98786">
        <ele>127</ele>
        <time>2019-02-21T09:26:28Z</time>
      </trkpt>
      <trkpt lat="48.5973" lon="1.98786">
        <ele>127</ele>
        <time>2019-02-21T09:26:32Z</time>
      </trkpt>
      <trkpt lat="48.59738" lon="1.98783">
        <ele>127</ele>
        <time>2019-02-21T09:26:38Z</time>
      </trkpt>
      <trkpt lat="48.59743" lon="1.98782">
        <ele>127</ele>
        <time>2019-02-21T09:26:40Z</time>
      </trkpt>
      <trkpt lat="48.59749" lon="1.98781">
        <ele>127</ele>
        <time>2019-02-21T09:26:44Z</time>
      </trkpt>
      <trkpt lat="48.59754" lon="1.98784">
        <ele>125</ele>
        <time>2019-02-21T09:26:52Z</time>
      </trkpt>
      <trkpt lat="48.59761" lon="1.98784">
        <ele>124</ele>
        <time>2019-02-21T09:26:56Z</time>
      </trkpt>
      <trkpt lat="48.59769" lon="1.98781">
        <ele>124</ele>
        <time>2019-02-21T09:27:00Z</time>
      </trkpt>
      <trkpt lat="48.59776" lon="1.98783">
        <ele>124</ele>
        <time>2019-02-21T09:27:06Z</time>
      </trkpt>
      <trkpt lat="48.5978" lon="1.98785">
        <ele>124</ele>
        <time>2019-02-21T09:27:10Z</time>
      </trkpt>
      <trkpt lat="48.59785" lon="1.98786">
        <ele>124</ele>
        <time>2019-02-21T09:27:14Z</time>
      </trkpt>
      <trkpt lat="48.5979" lon="1.98784">
        <ele>124</ele>
        <time>2019-02-21T09:27:18Z</time>
      </trkpt>
      <trkpt lat="48.59795" lon="1.98787">
        <ele>123</ele>
        <time>2019-02-21T09:27:22Z</time>
      </trkpt>
      <trkpt lat="48.598" lon="1.98787">
        <ele>123</ele>
        <time>2019-02-21T09:27:26Z</time>
      </trkpt>
      <trkpt lat="48.59805" lon="1.98786">
        <ele>123</ele>
        <time>2019-02-21T09:27:28Z</time>
      </trkpt>
      <trkpt lat="48.59809" lon="1.98785">
        <ele>123</ele>
        <time>2019-02-21T09:27:30Z</time>
      </trkpt>
      <trkpt lat="48.59814" lon="1.98784">
        <ele>123</ele>
        <time>2019-02-21T09:27:34Z</time>
      </trkpt>
      <trkpt lat="48.59819" lon="1.98786">
        <ele>123</ele>
        <time>2019-02-21T09:27:38Z</time>
      </trkpt>
      <trkpt lat="48.59824" lon="1.98786">
        <ele>123</ele>
        <time>2019-02-21T09:27:40Z</time>
      </trkpt>
      <trkpt lat="48.59831" lon="1.98785">
        <ele>123</ele>
        <time>2019-02-21T09:27:44Z</time>
      </trkpt>
      <trkpt lat="48.59837" lon="1.98786">
        <ele>119</ele>
        <time>2019-02-21T09:27:46Z</time>
      </trkpt>
      <trkpt lat="48.59843" lon="1.98786">
        <ele>119</ele>
        <time>2019-02-21T09:27:52Z</time>
      </trkpt>
      <trkpt lat="48.59849" lon="1.98785">
        <ele>119</ele>
        <time>2019-02-21T09:27:56Z</time>
      </trkpt>
      <trkpt lat="48.59855" lon="1.98784">
        <ele>119</ele>
        <time>2019-02-21T09:28:00Z</time>
      </trkpt>
      <trkpt lat="48.59862" lon="1.98784">
        <ele>118</ele>
        <time>2019-02-21T09:28:06Z</time>
      </trkpt>
      <trkpt lat="48.59868" lon="1.98783">
        <ele>118</ele>
        <time>2019-02-21T09:28:10Z</time>
      </trkpt>
      <trkpt lat="48.59876" lon="1.9878">
        <ele>118</ele>
        <time>2019-02-21T09:28:16Z</time>
      </trkpt>
      <trkpt lat="48.5988" lon="1.98778">
        <ele>117</ele>
        <time>2019-02-21T09:28:18Z</time>
      </trkpt>
      <trkpt lat="48.59886" lon="1.98777">
        <ele>117</ele>
        <time>2019-02-21T09:28:22Z</time>
      </trkpt>
      <trkpt lat="48.59892" lon="1.98775">
        <ele>117</ele>
        <time>2019-02-21T09:28:28Z</time>
      </trkpt>
      <trkpt lat="48.59897" lon="1.98774">
        <ele>117</ele>
        <time>2019-02-21T09:28:32Z</time>
      </trkpt>
      <trkpt lat="48.59901" lon="1.98773">
        <ele>116</ele>
        <time>2019-02-21T09:28:36Z</time>
      </trkpt>
      <trkpt lat="48.59906" lon="1.9877">
        <ele>116</ele>
        <time>2019-02-21T09:28:38Z</time>
      </trkpt>
      <trkpt lat="48.59911" lon="1.9877">
        <ele>116</ele>
        <time>2019-02-21T09:28:40Z</time>
      </trkpt>
      <trkpt lat="48.59916" lon="1.98767">
        <ele>116</ele>
        <time>2019-02-21T09:28:44Z</time>
      </trkpt>
      <trkpt lat="48.59921" lon="1.98767">
        <ele>113</ele>
        <time>2019-02-21T09:28:46Z</time>
      </trkpt>
      <trkpt lat="48.59926" lon="1.98765">
        <ele>113</ele>
        <time>2019-02-21T09:28:48Z</time>
      </trkpt>
      <trkpt lat="48.59932" lon="1.98763">
        <ele>113</ele>
        <time>2019-02-21T09:28:50Z</time>
      </trkpt>
      <trkpt lat="48.59939" lon="1.98763">
        <ele>113</ele>
        <time>2019-02-21T09:28:54Z</time>
      </trkpt>
      <trkpt lat="48.59945" lon="1.98764">
        <ele>113</ele>
        <time>2019-02-21T09:28:58Z</time>
      </trkpt>
      <trkpt lat="48.5995" lon="1.98762">
        <ele>113</ele>
        <time>2019-02-21T09:29:02Z</time>
      </trkpt>
      <trkpt lat="48.59956" lon="1.98759">
        <ele>113</ele>
        <time>2019-02-21T09:29:06Z</time>
      </trkpt>
      <trkpt lat="48.59962" lon="1.98756">
        <ele>112</ele>
        <time>2019-02-21T09:29:12Z</time>
      </trkpt>
      <trkpt lat="48.59967" lon="1.98753">
        <ele>112</ele>
        <time>2019-02-21T09:29:16Z</time>
      </trkpt>
      <trkpt lat="48.59972" lon="1.98753">
        <ele>112</ele>
        <time>2019-02-21T09:29:20Z</time>
      </trkpt>
      <trkpt lat="48.59978" lon="1.9875">
        <ele>112</ele>
        <time>2019-02-21T09:29:24Z</time>
      </trkpt>
      <trkpt lat="48.59985" lon="1.98748">
        <ele>112</ele>
        <time>2019-02-21T09:29:28Z</time>
      </trkpt>
      <trkpt lat="48.59991" lon="1.98744">
        <ele>112</ele>
        <time>2019-02-21T09:29:34Z</time>
      </trkpt>
      <trkpt lat="48.59999" lon="1.98743">
        <ele>112</ele>
        <time>2019-02-21T09:29:38Z</time>
      </trkpt>
      <trkpt lat="48.60005" lon="1.98741">
        <ele>112</ele>
        <time>2019-02-21T09:29:42Z</time>
      </trkpt>
      <trkpt lat="48.60011" lon="1.98739">
        <ele>112</ele>
        <time>2019-02-21T09:29:48Z</time>
      </trkpt>
      <trkpt lat="48.60018" lon="1.98737">
        <ele>113</ele>
        <time>2019-02-21T09:29:54Z</time>
      </trkpt>
      <trkpt lat="48.60024" lon="1.98736">
        <ele>113</ele>
        <time>2019-02-21T09:29:58Z</time>
      </trkpt>
      <trkpt lat="48.6003" lon="1.98737">
        <ele>113</ele>
        <time>2019-02-21T09:30:04Z</time>
      </trkpt>
      <trkpt lat="48.60038" lon="1.98736">
        <ele>113</ele>
        <time>2019-02-21T09:30:12Z</time>
      </trkpt>
      <trkpt lat="48.60043" lon="1.98735">
        <ele>113</ele>
        <time>2019-02-21T09:30:14Z</time>
      </trkpt>
      <trkpt lat="48.6005" lon="1.98731">
        <ele>114</ele>
        <time>2019-02-21T09:30:18Z</time>
      </trkpt>
      <trkpt lat="48.60054" lon="1.98729">
        <ele>114</ele>
        <time>2019-02-21T09:30:22Z</time>
      </trkpt>
      <trkpt lat="48.6006" lon="1.98728">
        <ele>114</ele>
        <time>2019-02-21T09:30:26Z</time>
      </trkpt>
      <trkpt lat="48.60067" lon="1.98725">
        <ele>114</ele>
        <time>2019-02-21T09:30:30Z</time>
      </trkpt>
      <trkpt lat="48.60071" lon="1.98722">
        <ele>114</ele>
        <time>2019-02-21T09:30:32Z</time>
      </trkpt>
      <trkpt lat="48.60077" lon="1.98719">
        <ele>114</ele>
        <time>2019-02-21T09:30:36Z</time>
      </trkpt>
      <trkpt lat="48.60081" lon="1.98715">
        <ele>114</ele>
        <time>2019-02-21T09:30:40Z</time>
      </trkpt>
      <trkpt lat="48.60087" lon="1.98711">
        <ele>115</ele>
        <time>2019-02-21T09:30:44Z</time>
      </trkpt>
      <trkpt lat="48.60092" lon="1.98705">
        <ele>115</ele>
        <time>2019-02-21T09:30:52Z</time>
      </trkpt>
      <trkpt lat="48.60098" lon="1.98701">
        <ele>115</ele>
        <time>2019-02-21T09:30:56Z</time>
      </trkpt>
      <trkpt lat="48.60103" lon="1.98698">
        <ele>115</ele>
        <time>2019-02-21T09:31:00Z</time>
      </trkpt>
      <trkpt lat="48.60107" lon="1.98697">
        <ele>115</ele>
        <time>2019-02-21T09:31:04Z</time>
      </trkpt>
      <trkpt lat="48.60117" lon="1.98694">
        <ele>115</ele>
        <time>2019-02-21T09:31:08Z</time>
      </trkpt>
      <trkpt lat="48.60123" lon="1.9869">
        <ele>115</ele>
        <time>2019-02-21T09:31:12Z</time>
      </trkpt>
      <trkpt lat="48.60128" lon="1.98686">
        <ele>115</ele>
        <time>2019-02-21T09:31:32Z</time>
      </trkpt>
      <trkpt lat="48.60131" lon="1.98691">
        <ele>115</ele>
        <time>2019-02-21T09:34:16Z</time>
      </trkpt>
      <trkpt lat="48.60133" lon="1.98684">
        <ele>115</ele>
        <time>2019-02-21T09:36:24Z</time>
      </trkpt>
      <trkpt lat="48.60129" lon="1.98682">
        <ele>115</ele>
        <time>2019-02-21T09:36:56Z</time>
      </trkpt>
      <trkpt lat="48.60124" lon="1.98685">
        <ele>115</ele>
        <time>2019-02-21T09:37:02Z</time>
      </trkpt>
      <trkpt lat="48.60121" lon="1.9869">
        <ele>115</ele>
        <time>2019-02-21T09:37:12Z</time>
      </trkpt>
      <trkpt lat="48.60119" lon="1.98698">
        <ele>115</ele>
        <time>2019-02-21T09:37:18Z</time>
      </trkpt>
      <trkpt lat="48.60122" lon="1.98693">
        <ele>115</ele>
        <time>2019-02-21T09:37:36Z</time>
      </trkpt>
      <trkpt lat="48.60128" lon="1.98686">
        <ele>115</ele>
        <time>2019-02-21T09:37:42Z</time>
      </trkpt>
      <trkpt lat="48.60131" lon="1.98681">
        <ele>115</ele>
        <time>2019-02-21T09:37:50Z</time>
      </trkpt>
      <trkpt lat="48.60126" lon="1.98678">
        <ele>115</ele>
        <time>2019-02-21T09:37:54Z</time>
      </trkpt>
      <trkpt lat="48.60123" lon="1.98673">
        <ele>115</ele>
        <time>2019-02-21T09:37:58Z</time>
      </trkpt>
      <trkpt lat="48.60119" lon="1.98666">
        <ele>115</ele>
        <time>2019-02-21T09:38:02Z</time>
      </trkpt>
      <trkpt lat="48.6012" lon="1.98658">
        <ele>115</ele>
        <time>2019-02-21T09:38:10Z</time>
      </trkpt>
      <trkpt lat="48.60115" lon="1.98652">
        <ele>115</ele>
        <time>2019-02-21T09:38:14Z</time>
      </trkpt>
      <trkpt lat="48.60111" lon="1.98645">
        <ele>115</ele>
        <time>2019-02-21T09:38:18Z</time>
      </trkpt>
      <trkpt lat="48.60107" lon="1.98639">
        <ele>115</ele>
        <time>2019-02-21T09:38:22Z</time>
      </trkpt>
      <trkpt lat="48.60104" lon="1.98631">
        <ele>115</ele>
        <time>2019-02-21T09:38:26Z</time>
      </trkpt>
      <trkpt lat="48.60103" lon="1.98623">
        <ele>115</ele>
        <time>2019-02-21T09:38:30Z</time>
      </trkpt>
      <trkpt lat="48.60099" lon="1.98619">
        <ele>115</ele>
        <time>2019-02-21T09:38:34Z</time>
      </trkpt>
      <trkpt lat="48.60096" lon="1.98614">
        <ele>115</ele>
        <time>2019-02-21T09:38:40Z</time>
      </trkpt>
      <trkpt lat="48.6009" lon="1.98608">
        <ele>115</ele>
        <time>2019-02-21T09:38:44Z</time>
      </trkpt>
      <trkpt lat="48.60084" lon="1.98602">
        <ele>115</ele>
        <time>2019-02-21T09:38:50Z</time>
      </trkpt>
      <trkpt lat="48.6008" lon="1.98597">
        <ele>115</ele>
        <time>2019-02-21T09:38:52Z</time>
      </trkpt>
      <trkpt lat="48.60076" lon="1.98595">
        <ele>115</ele>
        <time>2019-02-21T09:38:54Z</time>
      </trkpt>
      <trkpt lat="48.60071" lon="1.98588">
        <ele>115</ele>
        <time>2019-02-21T09:38:58Z</time>
      </trkpt>
      <trkpt lat="48.60067" lon="1.9858">
        <ele>116</ele>
        <time>2019-02-21T09:39:02Z</time>
      </trkpt>
      <trkpt lat="48.6006" lon="1.98575">
        <ele>116</ele>
        <time>2019-02-21T09:39:06Z</time>
      </trkpt>
      <trkpt lat="48.60056" lon="1.98571">
        <ele>116</ele>
        <time>2019-02-21T09:39:08Z</time>
      </trkpt>
      <trkpt lat="48.60052" lon="1.98568">
        <ele>117</ele>
        <time>2019-02-21T09:39:10Z</time>
      </trkpt>
      <trkpt lat="48.60048" lon="1.98563">
        <ele>117</ele>
        <time>2019-02-21T09:39:12Z</time>
      </trkpt>
      <trkpt lat="48.60046" lon="1.98556">
        <ele>117</ele>
        <time>2019-02-21T09:39:16Z</time>
      </trkpt>
      <trkpt lat="48.60044" lon="1.9855">
        <ele>117</ele>
        <time>2019-02-21T09:39:20Z</time>
      </trkpt>
      <trkpt lat="48.60041" lon="1.98541">
        <ele>117</ele>
        <time>2019-02-21T09:39:26Z</time>
      </trkpt>
      <trkpt lat="48.60036" lon="1.98533">
        <ele>118</ele>
        <time>2019-02-21T09:39:32Z</time>
      </trkpt>
      <trkpt lat="48.60033" lon="1.98525">
        <ele>118</ele>
        <time>2019-02-21T09:39:36Z</time>
      </trkpt>
      <trkpt lat="48.60026" lon="1.98518">
        <ele>118</ele>
        <time>2019-02-21T09:39:40Z</time>
      </trkpt>
      <trkpt lat="48.60022" lon="1.98512">
        <ele>118</ele>
        <time>2019-02-21T09:39:46Z</time>
      </trkpt>
      <trkpt lat="48.6002" lon="1.98506">
        <ele>119</ele>
        <time>2019-02-21T09:39:52Z</time>
      </trkpt>
      <trkpt lat="48.60016" lon="1.98497">
        <ele>121</ele>
        <time>2019-02-21T09:39:58Z</time>
      </trkpt>
      <trkpt lat="48.6001" lon="1.98489">
        <ele>122</ele>
        <time>2019-02-21T09:40:02Z</time>
      </trkpt>
      <trkpt lat="48.60006" lon="1.98483">
        <ele>122</ele>
        <time>2019-02-21T09:40:04Z</time>
      </trkpt>
      <trkpt lat="48.60003" lon="1.98477">
        <ele>122</ele>
        <time>2019-02-21T09:40:06Z</time>
      </trkpt>
      <trkpt lat="48.59999" lon="1.98472">
        <ele>123</ele>
        <time>2019-02-21T09:40:08Z</time>
      </trkpt>
      <trkpt lat="48.59995" lon="1.98463">
        <ele>124</ele>
        <time>2019-02-21T09:40:12Z</time>
      </trkpt>
      <trkpt lat="48.5999" lon="1.98454">
        <ele>125</ele>
        <time>2019-02-21T09:40:16Z</time>
      </trkpt>
      <trkpt lat="48.59987" lon="1.98446">
        <ele>125</ele>
        <time>2019-02-21T09:40:20Z</time>
      </trkpt>
      <trkpt lat="48.59984" lon="1.98436">
        <ele>126</ele>
        <time>2019-02-21T09:40:24Z</time>
      </trkpt>
      <trkpt lat="48.59978" lon="1.98428">
        <ele>126</ele>
        <time>2019-02-21T09:40:28Z</time>
      </trkpt>
      <trkpt lat="48.59972" lon="1.98423">
        <ele>126</ele>
        <time>2019-02-21T09:40:32Z</time>
      </trkpt>
      <trkpt lat="48.59967" lon="1.98417">
        <ele>130</ele>
        <time>2019-02-21T09:40:36Z</time>
      </trkpt>
      <trkpt lat="48.59964" lon="1.98411">
        <ele>130</ele>
        <time>2019-02-21T09:40:38Z</time>
      </trkpt>
      <trkpt lat="48.59961" lon="1.98405">
        <ele>131</ele>
        <time>2019-02-21T09:40:42Z</time>
      </trkpt>
      <trkpt lat="48.59957" lon="1.98395">
        <ele>131</ele>
        <time>2019-02-21T09:40:46Z</time>
      </trkpt>
      <trkpt lat="48.59953" lon="1.98388">
        <ele>131</ele>
        <time>2019-02-21T09:40:50Z</time>
      </trkpt>
      <trkpt lat="48.59952" lon="1.9838">
        <ele>131</ele>
        <time>2019-02-21T09:40:56Z</time>
      </trkpt>
      <trkpt lat="48.59945" lon="1.98373">
        <ele>132</ele>
        <time>2019-02-21T09:41:00Z</time>
      </trkpt>
      <trkpt lat="48.5994" lon="1.98369">
        <ele>132</ele>
        <time>2019-02-21T09:41:02Z</time>
      </trkpt>
      <trkpt lat="48.59936" lon="1.98365">
        <ele>132</ele>
        <time>2019-02-21T09:41:04Z</time>
      </trkpt>
      <trkpt lat="48.59927" lon="1.98359">
        <ele>132</ele>
        <time>2019-02-21T09:41:08Z</time>
      </trkpt>
      <trkpt lat="48.59924" lon="1.98353">
        <ele>133</ele>
        <time>2019-02-21T09:41:12Z</time>
      </trkpt>
      <trkpt lat="48.59918" lon="1.98348">
        <ele>133</ele>
        <time>2019-02-21T09:41:16Z</time>
      </trkpt>
      <trkpt lat="48.59914" lon="1.98344">
        <ele>133</ele>
        <time>2019-02-21T09:41:20Z</time>
      </trkpt>
      <trkpt lat="48.59909" lon="1.98335">
        <ele>133</ele>
        <time>2019-02-21T09:41:26Z</time>
      </trkpt>
      <trkpt lat="48.59906" lon="1.98329">
        <ele>135</ele>
        <time>2019-02-21T09:41:32Z</time>
      </trkpt>
      <trkpt lat="48.59899" lon="1.98324">
        <ele>135</ele>
        <time>2019-02-21T09:41:36Z</time>
      </trkpt>
      <trkpt lat="48.59893" lon="1.98317">
        <ele>135</ele>
        <time>2019-02-21T09:41:40Z</time>
      </trkpt>
      <trkpt lat="48.59889" lon="1.98309">
        <ele>135</ele>
        <time>2019-02-21T09:41:44Z</time>
      </trkpt>
      <trkpt lat="48.59884" lon="1.98301">
        <ele>136</ele>
        <time>2019-02-21T09:41:48Z</time>
      </trkpt>
      <trkpt lat="48.59878" lon="1.98295">
        <ele>136</ele>
        <time>2019-02-21T09:41:52Z</time>
      </trkpt>
      <trkpt lat="48.59872" lon="1.98289">
        <ele>136</ele>
        <time>2019-02-21T09:41:56Z</time>
      </trkpt>
      <trkpt lat="48.59866" lon="1.98284">
        <ele>136</ele>
        <time>2019-02-21T09:42:00Z</time>
      </trkpt>
      <trkpt lat="48.59859" lon="1.98278">
        <ele>136</ele>
        <time>2019-02-21T09:42:04Z</time>
      </trkpt>
      <trkpt lat="48.59853" lon="1.98273">
        <ele>136</ele>
        <time>2019-02-21T09:42:08Z</time>
      </trkpt>
      <trkpt lat="48.59848" lon="1.98269">
        <ele>136</ele>
        <time>2019-02-21T09:42:12Z</time>
      </trkpt>
      <trkpt lat="48.59841" lon="1.98266">
        <ele>136</ele>
        <time>2019-02-21T09:42:16Z</time>
      </trkpt>
      <trkpt lat="48.59836" lon="1.98264">
        <ele>136</ele>
        <time>2019-02-21T09:42:20Z</time>
      </trkpt>
      <trkpt lat="48.5983" lon="1.9826">
        <ele>138</ele>
        <time>2019-02-21T09:42:24Z</time>
      </trkpt>
      <trkpt lat="48.59825" lon="1.9826">
        <ele>138</ele>
        <time>2019-02-21T09:42:28Z</time>
      </trkpt>
      <trkpt lat="48.59821" lon="1.98258">
        <ele>138</ele>
        <time>2019-02-21T09:42:32Z</time>
      </trkpt>
      <trkpt lat="48.59813" lon="1.98255">
        <ele>139</ele>
        <time>2019-02-21T09:42:38Z</time>
      </trkpt>
      <trkpt lat="48.59807" lon="1.98254">
        <ele>139</ele>
        <time>2019-02-21T09:42:42Z</time>
      </trkpt>
      <trkpt lat="48.598" lon="1.98255">
        <ele>139</ele>
        <time>2019-02-21T09:42:46Z</time>
      </trkpt>
      <trkpt lat="48.59796" lon="1.98252">
        <ele>140</ele>
        <time>2019-02-21T09:42:50Z</time>
      </trkpt>
      <trkpt lat="48.59792" lon="1.98247">
        <ele>141</ele>
        <time>2019-02-21T09:42:56Z</time>
      </trkpt>
      <trkpt lat="48.59787" lon="1.98242">
        <ele>142</ele>
        <time>2019-02-21T09:43:00Z</time>
      </trkpt>
      <trkpt lat="48.59783" lon="1.98238">
        <ele>142</ele>
        <time>2019-02-21T09:43:04Z</time>
      </trkpt>
      <trkpt lat="48.59776" lon="1.98238">
        <ele>142</ele>
        <time>2019-02-21T09:43:08Z</time>
      </trkpt>
      <trkpt lat="48.5977" lon="1.98239">
        <ele>143</ele>
        <time>2019-02-21T09:43:12Z</time>
      </trkpt>
      <trkpt lat="48.59766" lon="1.98235">
        <ele>143</ele>
        <time>2019-02-21T09:43:16Z</time>
      </trkpt>
      <trkpt lat="48.59759" lon="1.9823">
        <ele>143</ele>
        <time>2019-02-21T09:43:20Z</time>
      </trkpt>
      <trkpt lat="48.59752" lon="1.98226">
        <ele>143</ele>
        <time>2019-02-21T09:43:24Z</time>
      </trkpt>
      <trkpt lat="48.59745" lon="1.98219">
        <ele>148</ele>
        <time>2019-02-21T09:43:28Z</time>
      </trkpt>
      <trkpt lat="48.59741" lon="1.98216">
        <ele>148</ele>
        <time>2019-02-21T09:43:30Z</time>
      </trkpt>
      <trkpt lat="48.59735" lon="1.98211">
        <ele>148</ele>
        <time>2019-02-21T09:43:34Z</time>
      </trkpt>
      <trkpt lat="48.5973" lon="1.98209">
        <ele>148</ele>
        <time>2019-02-21T09:43:38Z</time>
      </trkpt>
      <trkpt lat="48.59723" lon="1.98206">
        <ele>149</ele>
        <time>2019-02-21T09:43:42Z</time>
      </trkpt>
      <trkpt lat="48.59717" lon="1.98202">
        <ele>149</ele>
        <time>2019-02-21T09:43:46Z</time>
      </trkpt>
      <trkpt lat="48.5971" lon="1.98198">
        <ele>150</ele>
        <time>2019-02-21T09:43:50Z</time>
      </trkpt>
      <trkpt lat="48.59704" lon="1.98194">
        <ele>150</ele>
        <time>2019-02-21T09:43:54Z</time>
      </trkpt>
      <trkpt lat="48.59697" lon="1.98191">
        <ele>150</ele>
        <time>2019-02-21T09:43:58Z</time>
      </trkpt>
      <trkpt lat="48.59691" lon="1.98187">
        <ele>151</ele>
        <time>2019-02-21T09:44:02Z</time>
      </trkpt>
      <trkpt lat="48.59686" lon="1.98181">
        <ele>152</ele>
        <time>2019-02-21T09:44:06Z</time>
      </trkpt>
      <trkpt lat="48.59681" lon="1.98174">
        <ele>152</ele>
        <time>2019-02-21T09:44:10Z</time>
      </trkpt>
      <trkpt lat="48.59677" lon="1.98169">
        <ele>153</ele>
        <time>2019-02-21T09:44:14Z</time>
      </trkpt>
      <trkpt lat="48.59673" lon="1.98163">
        <ele>154</ele>
        <time>2019-02-21T09:44:18Z</time>
      </trkpt>
      <trkpt lat="48.59669" lon="1.98159">
        <ele>154</ele>
        <time>2019-02-21T09:44:24Z</time>
      </trkpt>
      <trkpt lat="48.59662" lon="1.98154">
        <ele>156</ele>
        <time>2019-02-21T09:44:30Z</time>
      </trkpt>
      <trkpt lat="48.59656" lon="1.98146">
        <ele>156</ele>
        <time>2019-02-21T09:44:36Z</time>
      </trkpt>
      <trkpt lat="48.59653" lon="1.98142">
        <ele>156</ele>
        <time>2019-02-21T09:44:38Z</time>
      </trkpt>
      <trkpt lat="48.59648" lon="1.98136">
        <ele>156</ele>
        <time>2019-02-21T09:44:42Z</time>
      </trkpt>
      <trkpt lat="48.59643" lon="1.98129">
        <ele>157</ele>
        <time>2019-02-21T09:44:48Z</time>
      </trkpt>
      <trkpt lat="48.5964" lon="1.98123">
        <ele>157</ele>
        <time>2019-02-21T09:44:52Z</time>
      </trkpt>
      <trkpt lat="48.59636" lon="1.98116">
        <ele>157</ele>
        <time>2019-02-21T09:44:58Z</time>
      </trkpt>
      <trkpt lat="48.5963" lon="1.98109">
        <ele>157</ele>
        <time>2019-02-21T09:45:02Z</time>
      </trkpt>
      <trkpt lat="48.59626" lon="1.98105">
        <ele>157</ele>
        <time>2019-02-21T09:45:04Z</time>
      </trkpt>
      <trkpt lat="48.5962" lon="1.98097">
        <ele>157</ele>
        <time>2019-02-21T09:45:08Z</time>
      </trkpt>
      <trkpt lat="48.59615" lon="1.98091">
        <ele>158</ele>
        <time>2019-02-21T09:45:12Z</time>
      </trkpt>
      <trkpt lat="48.5961" lon="1.98086">
        <ele>158</ele>
        <time>2019-02-21T09:45:16Z</time>
      </trkpt>
      <trkpt lat="48.59602" lon="1.98079">
        <ele>157</ele>
        <time>2019-02-21T09:45:20Z</time>
      </trkpt>
      <trkpt lat="48.59599" lon="1.98071">
        <ele>157</ele>
        <time>2019-02-21T09:45:24Z</time>
      </trkpt>
      <trkpt lat="48.59593" lon="1.98063">
        <ele>157</ele>
        <time>2019-02-21T09:45:28Z</time>
      </trkpt>
      <trkpt lat="48.59588" lon="1.98057">
        <ele>157</ele>
        <time>2019-02-21T09:45:32Z</time>
      </trkpt>
      <trkpt lat="48.59578" lon="1.9805">
        <ele>160</ele>
        <time>2019-02-21T09:45:36Z</time>
      </trkpt>
      <trkpt lat="48.59573" lon="1.98047">
        <ele>160</ele>
        <time>2019-02-21T09:45:38Z</time>
      </trkpt>
      <trkpt lat="48.59568" lon="1.98044">
        <ele>160</ele>
        <time>2019-02-21T09:45:40Z</time>
      </trkpt>
      <trkpt lat="48.59564" lon="1.98041">
        <ele>160</ele>
        <time>2019-02-21T09:45:42Z</time>
      </trkpt>
      <trkpt lat="48.59558" lon="1.98037">
        <ele>160</ele>
        <time>2019-02-21T09:45:46Z</time>
      </trkpt>
      <trkpt lat="48.59552" lon="1.98032">
        <ele>160</ele>
        <time>2019-02-21T09:45:50Z</time>
      </trkpt>
      <trkpt lat="48.59547" lon="1.98028">
        <ele>161</ele>
        <time>2019-02-21T09:45:54Z</time>
      </trkpt>
      <trkpt lat="48.59542" lon="1.98024">
        <ele>161</ele>
        <time>2019-02-21T09:45:58Z</time>
      </trkpt>
      <trkpt lat="48.59535" lon="1.98018">
        <ele>161</ele>
        <time>2019-02-21T09:46:02Z</time>
      </trkpt>
      <trkpt lat="48.59528" lon="1.98013">
        <ele>161</ele>
        <time>2019-02-21T09:46:08Z</time>
      </trkpt>
      <trkpt lat="48.59524" lon="1.9801">
        <ele>162</ele>
        <time>2019-02-21T09:46:12Z</time>
      </trkpt>
      <trkpt lat="48.59519" lon="1.98006">
        <ele>162</ele>
        <time>2019-02-21T09:46:20Z</time>
      </trkpt>
      <trkpt lat="48.59515" lon="1.98002">
        <ele>162</ele>
        <time>2019-02-21T09:46:32Z</time>
      </trkpt>
      <trkpt lat="48.59511" lon="1.97999">
        <ele>162</ele>
        <time>2019-02-21T09:46:44Z</time>
      </trkpt>
      <trkpt lat="48.5951" lon="1.97992">
        <ele>162</ele>
        <time>2019-02-21T09:47:16Z</time>
      </trkpt>
      <trkpt lat="48.59505" lon="1.97995">
        <ele>163</ele>
        <time>2019-02-21T09:47:56Z</time>
      </trkpt>
      <trkpt lat="48.595" lon="1.97999">
        <ele>164</ele>
        <time>2019-02-21T09:48:02Z</time>
      </trkpt>
      <trkpt lat="48.59494" lon="1.98002">
        <ele>163</ele>
        <time>2019-02-21T09:48:08Z</time>
      </trkpt>
      <trkpt lat="48.59489" lon="1.98009">
        <ele>163</ele>
        <time>2019-02-21T09:48:14Z</time>
      </trkpt>
      <trkpt lat="48.59485" lon="1.98012">
        <ele>162</ele>
        <time>2019-02-21T09:48:18Z</time>
      </trkpt>
      <trkpt lat="48.59479" lon="1.98018">
        <ele>162</ele>
        <time>2019-02-21T09:48:22Z</time>
      </trkpt>
      <trkpt lat="48.59475" lon="1.98023">
        <ele>162</ele>
        <time>2019-02-21T09:48:26Z</time>
      </trkpt>
      <trkpt lat="48.59471" lon="1.98029">
        <ele>161</ele>
        <time>2019-02-21T09:48:30Z</time>
      </trkpt>
      <trkpt lat="48.59465" lon="1.98036">
        <ele>161</ele>
        <time>2019-02-21T09:48:34Z</time>
      </trkpt>
      <trkpt lat="48.59461" lon="1.98042">
        <ele>161</ele>
        <time>2019-02-21T09:48:38Z</time>
      </trkpt>
      <trkpt lat="48.59456" lon="1.98045">
        <ele>161</ele>
        <time>2019-02-21T09:48:42Z</time>
      </trkpt>
      <trkpt lat="48.59452" lon="1.9805">
        <ele>160</ele>
        <time>2019-02-21T09:48:46Z</time>
      </trkpt>
      <trkpt lat="48.59447" lon="1.98057">
        <ele>160</ele>
        <time>2019-02-21T09:48:50Z</time>
      </trkpt>
      <trkpt lat="48.59441" lon="1.98065">
        <ele>160</ele>
        <time>2019-02-21T09:48:56Z</time>
      </trkpt>
      <trkpt lat="48.59436" lon="1.98071">
        <ele>160</ele>
        <time>2019-02-21T09:49:00Z</time>
      </trkpt>
      <trkpt lat="48.59431" lon="1.98077">
        <ele>159</ele>
        <time>2019-02-21T09:49:04Z</time>
      </trkpt>
      <trkpt lat="48.59426" lon="1.98082">
        <ele>159</ele>
        <time>2019-02-21T09:49:08Z</time>
      </trkpt>
      <trkpt lat="48.5942" lon="1.98086">
        <ele>157</ele>
        <time>2019-02-21T09:49:12Z</time>
      </trkpt>
      <trkpt lat="48.59417" lon="1.9809">
        <ele>157</ele>
        <time>2019-02-21T09:49:14Z</time>
      </trkpt>
      <trkpt lat="48.59412" lon="1.98089">
        <ele>156</ele>
        <time>2019-02-21T09:49:18Z</time>
      </trkpt>
      <trkpt lat="48.59407" lon="1.98089">
        <ele>155</ele>
        <time>2019-02-21T09:49:22Z</time>
      </trkpt>
      <trkpt lat="48.59401" lon="1.98086">
        <ele>154</ele>
        <time>2019-02-21T09:49:26Z</time>
      </trkpt>
      <trkpt lat="48.59395" lon="1.98082">
        <ele>156</ele>
        <time>2019-02-21T09:49:32Z</time>
      </trkpt>
      <trkpt lat="48.5939" lon="1.98078">
        <ele>156</ele>
        <time>2019-02-21T09:49:36Z</time>
      </trkpt>
      <trkpt lat="48.59385" lon="1.98073">
        <ele>156</ele>
        <time>2019-02-21T09:49:40Z</time>
      </trkpt>
      <trkpt lat="48.59382" lon="1.98067">
        <ele>156</ele>
        <time>2019-02-21T09:49:44Z</time>
      </trkpt>
      <trkpt lat="48.59376" lon="1.98062">
        <ele>156</ele>
        <time>2019-02-21T09:49:48Z</time>
      </trkpt>
      <trkpt lat="48.59371" lon="1.98054">
        <ele>155</ele>
        <time>2019-02-21T09:49:52Z</time>
      </trkpt>
      <trkpt lat="48.59367" lon="1.98049">
        <ele>155</ele>
        <time>2019-02-21T09:49:56Z</time>
      </trkpt>
      <trkpt lat="48.59365" lon="1.98042">
        <ele>155</ele>
        <time>2019-02-21T09:50:00Z</time>
      </trkpt>
      <trkpt lat="48.59361" lon="1.98035">
        <ele>155</ele>
        <time>2019-02-21T09:50:06Z</time>
      </trkpt>
      <trkpt lat="48.59358" lon="1.9803">
        <ele>155</ele>
        <time>2019-02-21T09:50:10Z</time>
      </trkpt>
      <trkpt lat="48.59353" lon="1.98026">
        <ele>155</ele>
        <time>2019-02-21T09:50:14Z</time>
      </trkpt>
      <trkpt lat="48.59349" lon="1.98023">
        <ele>155</ele>
        <time>2019-02-21T09:50:18Z</time>
      </trkpt>
      <trkpt lat="48.59344" lon="1.9802">
        <ele>155</ele>
        <time>2019-02-21T09:50:24Z</time>
      </trkpt>
      <trkpt lat="48.5934" lon="1.98017">
        <ele>155</ele>
        <time>2019-02-21T09:51:10Z</time>
      </trkpt>
      <trkpt lat="48.59343" lon="1.98012">
        <ele>155</ele>
        <time>2019-02-21T09:51:28Z</time>
      </trkpt>
      <trkpt lat="48.59346" lon="1.98005">
        <ele>155</ele>
        <time>2019-02-21T09:52:48Z</time>
      </trkpt>
      <trkpt lat="48.59351" lon="1.98002">
        <ele>155</ele>
        <time>2019-02-21T09:54:00Z</time>
      </trkpt>
      <trkpt lat="48.59356" lon="1.97997">
        <ele>156</ele>
        <time>2019-02-21T09:54:04Z</time>
      </trkpt>
      <trkpt lat="48.59359" lon="1.97991">
        <ele>156</ele>
        <time>2019-02-21T09:54:08Z</time>
      </trkpt>
      <trkpt lat="48.59362" lon="1.97984">
        <ele>156</ele>
        <time>2019-02-21T09:54:12Z</time>
      </trkpt>
      <trkpt lat="48.59366" lon="1.97978">
        <ele>156</ele>
        <time>2019-02-21T09:54:16Z</time>
      </trkpt>
      <trkpt lat="48.59369" lon="1.97972">
        <ele>157</ele>
        <time>2019-02-21T09:54:20Z</time>
      </trkpt>
      <trkpt lat="48.59371" lon="1.97965">
        <ele>157</ele>
        <time>2019-02-21T09:54:24Z</time>
      </trkpt>
      <trkpt lat="48.59373" lon="1.97957">
        <ele>157</ele>
        <time>2019-02-21T09:54:28Z</time>
      </trkpt>
      <trkpt lat="48.59373" lon="1.97949">
        <ele>157</ele>
        <time>2019-02-21T09:54:32Z</time>
      </trkpt>
      <trkpt lat="48.59374" lon="1.97939">
        <ele>157</ele>
        <time>2019-02-21T09:54:38Z</time>
      </trkpt>
      <trkpt lat="48.59374" lon="1.97929">
        <ele>157</ele>
        <time>2019-02-21T09:54:44Z</time>
      </trkpt>
      <trkpt lat="48.59373" lon="1.97921">
        <ele>157</ele>
        <time>2019-02-21T09:54:48Z</time>
      </trkpt>
      <trkpt lat="48.5937" lon="1.97913">
        <ele>157</ele>
        <time>2019-02-21T09:54:52Z</time>
      </trkpt>
      <trkpt lat="48.59368" lon="1.97903">
        <ele>156</ele>
        <time>2019-02-21T09:54:56Z</time>
      </trkpt>
      <trkpt lat="48.59366" lon="1.97894">
        <ele>156</ele>
        <time>2019-02-21T09:55:00Z</time>
      </trkpt>
      <trkpt lat="48.59362" lon="1.97886">
        <ele>156</ele>
        <time>2019-02-21T09:55:04Z</time>
      </trkpt>
      <trkpt lat="48.59359" lon="1.97878">
        <ele>156</ele>
        <time>2019-02-21T09:55:08Z</time>
      </trkpt>
      <trkpt lat="48.59357" lon="1.9787">
        <ele>156</ele>
        <time>2019-02-21T09:55:10Z</time>
      </trkpt>
      <trkpt lat="48.59354" lon="1.9786">
        <ele>156</ele>
        <time>2019-02-21T09:55:14Z</time>
      </trkpt>
      <trkpt lat="48.5935" lon="1.97851">
        <ele>156</ele>
        <time>2019-02-21T09:55:18Z</time>
      </trkpt>
      <trkpt lat="48.59347" lon="1.97844">
        <ele>156</ele>
        <time>2019-02-21T09:55:22Z</time>
      </trkpt>
      <trkpt lat="48.59345" lon="1.97837">
        <ele>156</ele>
        <time>2019-02-21T09:55:26Z</time>
      </trkpt>
      <trkpt lat="48.59343" lon="1.97828">
        <ele>156</ele>
        <time>2019-02-21T09:55:30Z</time>
      </trkpt>
      <trkpt lat="48.59343" lon="1.97819">
        <ele>157</ele>
        <time>2019-02-21T09:55:34Z</time>
      </trkpt>
      <trkpt lat="48.59346" lon="1.97811">
        <ele>157</ele>
        <time>2019-02-21T09:55:38Z</time>
      </trkpt>
      <trkpt lat="48.59348" lon="1.97803">
        <ele>157</ele>
        <time>2019-02-21T09:55:42Z</time>
      </trkpt>
      <trkpt lat="48.59347" lon="1.97793">
        <ele>158</ele>
        <time>2019-02-21T09:55:46Z</time>
      </trkpt>
      <trkpt lat="48.5935" lon="1.97784">
        <ele>158</ele>
        <time>2019-02-21T09:55:50Z</time>
      </trkpt>
      <trkpt lat="48.59352" lon="1.97777">
        <ele>158</ele>
        <time>2019-02-21T09:55:54Z</time>
      </trkpt>
      <trkpt lat="48.59353" lon="1.97767">
        <ele>158</ele>
        <time>2019-02-21T09:55:58Z</time>
      </trkpt>
      <trkpt lat="48.59354" lon="1.9776">
        <ele>158</ele>
        <time>2019-02-21T09:56:00Z</time>
      </trkpt>
      <trkpt lat="48.59354" lon="1.97753">
        <ele>158</ele>
        <time>2019-02-21T09:56:02Z</time>
      </trkpt>
      <trkpt lat="48.59356" lon="1.97747">
        <ele>157</ele>
        <time>2019-02-21T09:56:04Z</time>
      </trkpt>
      <trkpt lat="48.59359" lon="1.97739">
        <ele>157</ele>
        <time>2019-02-21T09:56:08Z</time>
      </trkpt>
      <trkpt lat="48.59361" lon="1.9773">
        <ele>157</ele>
        <time>2019-02-21T09:56:12Z</time>
      </trkpt>
      <trkpt lat="48.59366" lon="1.97724">
        <ele>157</ele>
        <time>2019-02-21T09:56:16Z</time>
      </trkpt>
      <trkpt lat="48.59371" lon="1.97721">
        <ele>157</ele>
        <time>2019-02-21T09:56:20Z</time>
      </trkpt>
      <trkpt lat="48.59377" lon="1.97721">
        <ele>157</ele>
        <time>2019-02-21T09:56:24Z</time>
      </trkpt>
      <trkpt lat="48.59384" lon="1.97722">
        <ele>157</ele>
        <time>2019-02-21T09:56:28Z</time>
      </trkpt>
      <trkpt lat="48.59389" lon="1.97726">
        <ele>157</ele>
        <time>2019-02-21T09:56:32Z</time>
      </trkpt>
      <trkpt lat="48.59398" lon="1.97728">
        <ele>157</ele>
        <time>2019-02-21T09:56:36Z</time>
      </trkpt>
      <trkpt lat="48.59403" lon="1.9773">
        <ele>158</ele>
        <time>2019-02-21T09:56:38Z</time>
      </trkpt>
      <trkpt lat="48.59411" lon="1.97734">
        <ele>158</ele>
        <time>2019-02-21T09:56:42Z</time>
      </trkpt>
      <trkpt lat="48.59419" lon="1.97735">
        <ele>157</ele>
        <time>2019-02-21T09:56:46Z</time>
      </trkpt>
      <trkpt lat="48.5943" lon="1.97742">
        <ele>156</ele>
        <time>2019-02-21T09:56:50Z</time>
      </trkpt>
      <trkpt lat="48.59436" lon="1.9774">
        <ele>156</ele>
        <time>2019-02-21T09:56:52Z</time>
      </trkpt>
      <trkpt lat="48.59441" lon="1.97738">
        <ele>155</ele>
        <time>2019-02-21T09:56:54Z</time>
      </trkpt>
      <trkpt lat="48.59444" lon="1.97733">
        <ele>155</ele>
        <time>2019-02-21T09:56:58Z</time>
      </trkpt>
      <trkpt lat="48.5944" lon="1.97727">
        <ele>155</ele>
        <time>2019-02-21T09:57:02Z</time>
      </trkpt>
      <trkpt lat="48.59438" lon="1.97719">
        <ele>155</ele>
        <time>2019-02-21T09:57:06Z</time>
      </trkpt>
      <trkpt lat="48.59435" lon="1.97711">
        <ele>154</ele>
        <time>2019-02-21T09:57:10Z</time>
      </trkpt>
      <trkpt lat="48.59435" lon="1.97703">
        <ele>154</ele>
        <time>2019-02-21T09:57:14Z</time>
      </trkpt>
      <trkpt lat="48.59435" lon="1.97695">
        <ele>154</ele>
        <time>2019-02-21T09:57:20Z</time>
      </trkpt>
      <trkpt lat="48.59435" lon="1.97687">
        <ele>154</ele>
        <time>2019-02-21T09:57:24Z</time>
      </trkpt>
      <trkpt lat="48.59436" lon="1.97677">
        <ele>154</ele>
        <time>2019-02-21T09:57:30Z</time>
      </trkpt>
      <trkpt lat="48.59436" lon="1.97666">
        <ele>151</ele>
        <time>2019-02-21T09:57:34Z</time>
      </trkpt>
      <trkpt lat="48.59439" lon="1.97656">
        <ele>151</ele>
        <time>2019-02-21T09:57:38Z</time>
      </trkpt>
      <trkpt lat="48.59441" lon="1.97646">
        <ele>150</ele>
        <time>2019-02-21T09:57:42Z</time>
      </trkpt>
      <trkpt lat="48.59442" lon="1.97634">
        <ele>149</ele>
        <time>2019-02-21T09:57:46Z</time>
      </trkpt>
      <trkpt lat="48.59444" lon="1.97625">
        <ele>149</ele>
        <time>2019-02-21T09:57:50Z</time>
      </trkpt>
      <trkpt lat="48.59449" lon="1.97614">
        <ele>148</ele>
        <time>2019-02-21T09:57:54Z</time>
      </trkpt>
      <trkpt lat="48.59453" lon="1.97609">
        <ele>148</ele>
        <time>2019-02-21T09:57:56Z</time>
      </trkpt>
      <trkpt lat="48.59455" lon="1.97603">
        <ele>148</ele>
        <time>2019-02-21T09:57:58Z</time>
      </trkpt>
      <trkpt lat="48.59458" lon="1.97597">
        <ele>147</ele>
        <time>2019-02-21T09:58:00Z</time>
      </trkpt>
      <trkpt lat="48.59461" lon="1.97585">
        <ele>147</ele>
        <time>2019-02-21T09:58:04Z</time>
      </trkpt>
      <trkpt lat="48.59465" lon="1.97574">
        <ele>144</ele>
        <time>2019-02-21T09:58:08Z</time>
      </trkpt>
      <trkpt lat="48.59468" lon="1.97565">
        <ele>144</ele>
        <time>2019-02-21T09:58:12Z</time>
      </trkpt>
      <trkpt lat="48.59469" lon="1.97556">
        <ele>144</ele>
        <time>2019-02-21T09:58:14Z</time>
      </trkpt>
      <trkpt lat="48.59471" lon="1.97549">
        <ele>143</ele>
        <time>2019-02-21T09:58:16Z</time>
      </trkpt>
      <trkpt lat="48.59472" lon="1.97542">
        <ele>143</ele>
        <time>2019-02-21T09:58:18Z</time>
      </trkpt>
      <trkpt lat="48.59477" lon="1.97531">
        <ele>143</ele>
        <time>2019-02-21T09:58:22Z</time>
      </trkpt>
      <trkpt lat="48.59479" lon="1.9752">
        <ele>143</ele>
        <time>2019-02-21T09:58:26Z</time>
      </trkpt>
      <trkpt lat="48.5948" lon="1.9751">
        <ele>143</ele>
        <time>2019-02-21T09:58:30Z</time>
      </trkpt>
      <trkpt lat="48.59477" lon="1.97504">
        <ele>143</ele>
        <time>2019-02-21T09:58:34Z</time>
      </trkpt>
      <trkpt lat="48.59476" lon="1.97494">
        <ele>141</ele>
        <time>2019-02-21T09:58:40Z</time>
      </trkpt>
      <trkpt lat="48.59474" lon="1.97488">
        <ele>141</ele>
        <time>2019-02-21T09:58:42Z</time>
      </trkpt>
      <trkpt lat="48.59474" lon="1.97479">
        <ele>141</ele>
        <time>2019-02-21T09:58:44Z</time>
      </trkpt>
      <trkpt lat="48.59476" lon="1.9747">
        <ele>141</ele>
        <time>2019-02-21T09:58:48Z</time>
      </trkpt>
      <trkpt lat="48.59477" lon="1.97461">
        <ele>141</ele>
        <time>2019-02-21T09:58:52Z</time>
      </trkpt>
      <trkpt lat="48.5948" lon="1.97454">
        <ele>141</ele>
        <time>2019-02-21T09:58:56Z</time>
      </trkpt>
      <trkpt lat="48.59482" lon="1.97445">
        <ele>141</ele>
        <time>2019-02-21T09:59:00Z</time>
      </trkpt>
      <trkpt lat="48.59486" lon="1.9744">
        <ele>141</ele>
        <time>2019-02-21T09:59:06Z</time>
      </trkpt>
      <trkpt lat="48.59486" lon="1.97433">
        <ele>141</ele>
        <time>2019-02-21T09:59:14Z</time>
      </trkpt>
      <trkpt lat="48.59484" lon="1.97426">
        <ele>141</ele>
        <time>2019-02-21T09:59:42Z</time>
      </trkpt>
      <trkpt lat="48.59488" lon="1.97433">
        <ele>141</ele>
        <time>2019-02-21T09:59:58Z</time>
      </trkpt>
      <trkpt lat="48.59495" lon="1.97436">
        <ele>141</ele>
        <time>2019-02-21T10:00:04Z</time>
      </trkpt>
      <trkpt lat="48.59498" lon="1.97441">
        <ele>141</ele>
        <time>2019-02-21T10:00:08Z</time>
      </trkpt>
      <trkpt lat="48.59504" lon="1.97444">
        <ele>140</ele>
        <time>2019-02-21T10:00:14Z</time>
      </trkpt>
      <trkpt lat="48.59509" lon="1.97448">
        <ele>140</ele>
        <time>2019-02-21T10:00:18Z</time>
      </trkpt>
      <trkpt lat="48.59513" lon="1.97452">
        <ele>140</ele>
        <time>2019-02-21T10:00:22Z</time>
      </trkpt>
      <trkpt lat="48.59516" lon="1.97457">
        <ele>140</ele>
        <time>2019-02-21T10:00:26Z</time>
      </trkpt>
      <trkpt lat="48.59521" lon="1.97459">
        <ele>139</ele>
        <time>2019-02-21T10:00:30Z</time>
      </trkpt>
      <trkpt lat="48.59527" lon="1.97461">
        <ele>139</ele>
        <time>2019-02-21T10:00:32Z</time>
      </trkpt>
      <trkpt lat="48.59533" lon="1.97465">
        <ele>139</ele>
        <time>2019-02-21T10:00:36Z</time>
      </trkpt>
      <trkpt lat="48.59541" lon="1.9747">
        <ele>139</ele>
        <time>2019-02-21T10:00:40Z</time>
      </trkpt>
      <trkpt lat="48.59551" lon="1.97475">
        <ele>138</ele>
        <time>2019-02-21T10:00:44Z</time>
      </trkpt>
      <trkpt lat="48.59556" lon="1.97477">
        <ele>138</ele>
        <time>2019-02-21T10:00:46Z</time>
      </trkpt>
      <trkpt lat="48.59564" lon="1.97482">
        <ele>138</ele>
        <time>2019-02-21T10:00:50Z</time>
      </trkpt>
      <trkpt lat="48.59568" lon="1.97485">
        <ele>138</ele>
        <time>2019-02-21T10:00:52Z</time>
      </trkpt>
      <trkpt lat="48.59573" lon="1.97486">
        <ele>137</ele>
        <time>2019-02-21T10:00:54Z</time>
      </trkpt>
      <trkpt lat="48.59578" lon="1.97487">
        <ele>137</ele>
        <time>2019-02-21T10:00:56Z</time>
      </trkpt>
      <trkpt lat="48.59583" lon="1.97488">
        <ele>137</ele>
        <time>2019-02-21T10:00:58Z</time>
      </trkpt>
      <trkpt lat="48.59588" lon="1.97492">
        <ele>135</ele>
        <time>2019-02-21T10:01:02Z</time>
      </trkpt>
      <trkpt lat="48.59595" lon="1.97495">
        <ele>135</ele>
        <time>2019-02-21T10:01:06Z</time>
      </trkpt>
      <trkpt lat="48.596" lon="1.975">
        <ele>135</ele>
        <time>2019-02-21T10:01:10Z</time>
      </trkpt>
      <trkpt lat="48.59605" lon="1.97504">
        <ele>135</ele>
        <time>2019-02-21T10:01:14Z</time>
      </trkpt>
      <trkpt lat="48.59613" lon="1.97506">
        <ele>135</ele>
        <time>2019-02-21T10:01:18Z</time>
      </trkpt>
      <trkpt lat="48.59618" lon="1.97513">
        <ele>135</ele>
        <time>2019-02-21T10:01:22Z</time>
      </trkpt>
      <trkpt lat="48.59624" lon="1.97515">
        <ele>135</ele>
        <time>2019-02-21T10:01:26Z</time>
      </trkpt>
      <trkpt lat="48.59631" lon="1.9752">
        <ele>134</ele>
        <time>2019-02-21T10:01:32Z</time>
      </trkpt>
      <trkpt lat="48.59639" lon="1.97522">
        <ele>134</ele>
        <time>2019-02-21T10:01:36Z</time>
      </trkpt>
      <trkpt lat="48.59645" lon="1.97526">
        <ele>134</ele>
        <time>2019-02-21T10:01:40Z</time>
      </trkpt>
      <trkpt lat="48.59655" lon="1.97529">
        <ele>134</ele>
        <time>2019-02-21T10:01:44Z</time>
      </trkpt>
      <trkpt lat="48.59661" lon="1.97533">
        <ele>134</ele>
        <time>2019-02-21T10:01:48Z</time>
      </trkpt>
      <trkpt lat="48.59667" lon="1.97537">
        <ele>131</ele>
        <time>2019-02-21T10:01:52Z</time>
      </trkpt>
      <trkpt lat="48.59674" lon="1.97543">
        <ele>131</ele>
        <time>2019-02-21T10:01:56Z</time>
      </trkpt>
      <trkpt lat="48.59679" lon="1.97548">
        <ele>131</ele>
        <time>2019-02-21T10:02:00Z</time>
      </trkpt>
      <trkpt lat="48.59683" lon="1.97552">
        <ele>131</ele>
        <time>2019-02-21T10:02:04Z</time>
      </trkpt>
      <trkpt lat="48.59691" lon="1.97556">
        <ele>131</ele>
        <time>2019-02-21T10:02:08Z</time>
      </trkpt>
      <trkpt lat="48.59697" lon="1.97559">
        <ele>131</ele>
        <time>2019-02-21T10:02:12Z</time>
      </trkpt>
      <trkpt lat="48.59702" lon="1.97565">
        <ele>131</ele>
        <time>2019-02-21T10:02:16Z</time>
      </trkpt>
      <trkpt lat="48.59706" lon="1.97571">
        <ele>130</ele>
        <time>2019-02-21T10:02:20Z</time>
      </trkpt>
      <trkpt lat="48.59708" lon="1.97577">
        <ele>130</ele>
        <time>2019-02-21T10:02:24Z</time>
      </trkpt>
      <trkpt lat="48.59713" lon="1.97578">
        <ele>130</ele>
        <time>2019-02-21T10:02:26Z</time>
      </trkpt>
      <trkpt lat="48.5972" lon="1.97581">
        <ele>130</ele>
        <time>2019-02-21T10:02:30Z</time>
      </trkpt>
      <trkpt lat="48.59726" lon="1.97586">
        <ele>130</ele>
        <time>2019-02-21T10:02:34Z</time>
      </trkpt>
      <trkpt lat="48.59732" lon="1.9759">
        <ele>129</ele>
        <time>2019-02-21T10:02:38Z</time>
      </trkpt>
      <trkpt lat="48.59739" lon="1.97595">
        <ele>129</ele>
        <time>2019-02-21T10:02:44Z</time>
      </trkpt>
      <trkpt lat="48.59745" lon="1.976">
        <ele>129</ele>
        <time>2019-02-21T10:02:48Z</time>
      </trkpt>
      <trkpt lat="48.59751" lon="1.97605">
        <ele>126</ele>
        <time>2019-02-21T10:02:52Z</time>
      </trkpt>
      <trkpt lat="48.59759" lon="1.97609">
        <ele>126</ele>
        <time>2019-02-21T10:02:56Z</time>
      </trkpt>
      <trkpt lat="48.59768" lon="1.97611">
        <ele>125</ele>
        <time>2019-02-21T10:03:00Z</time>
      </trkpt>
      <trkpt lat="48.59774" lon="1.97615">
        <ele>125</ele>
        <time>2019-02-21T10:03:04Z</time>
      </trkpt>
      <trkpt lat="48.59781" lon="1.97618">
        <ele>125</ele>
        <time>2019-02-21T10:03:08Z</time>
      </trkpt>
      <trkpt lat="48.59787" lon="1.97621">
        <ele>125</ele>
        <time>2019-02-21T10:03:12Z</time>
      </trkpt>
      <trkpt lat="48.59791" lon="1.97627">
        <ele>125</ele>
        <time>2019-02-21T10:03:16Z</time>
      </trkpt>
      <trkpt lat="48.59799" lon="1.97631">
        <ele>124</ele>
        <time>2019-02-21T10:03:20Z</time>
      </trkpt>
      <trkpt lat="48.59805" lon="1.97633">
        <ele>124</ele>
        <time>2019-02-21T10:03:24Z</time>
      </trkpt>
      <trkpt lat="48.59813" lon="1.97636">
        <ele>124</ele>
        <time>2019-02-21T10:03:28Z</time>
      </trkpt>
      <trkpt lat="48.59817" lon="1.97638">
        <ele>124</ele>
        <time>2019-02-21T10:03:30Z</time>
      </trkpt>
      <trkpt lat="48.59823" lon="1.9764">
        <ele>123</ele>
        <time>2019-02-21T10:03:32Z</time>
      </trkpt>
      <trkpt lat="48.5983" lon="1.97643">
        <ele>123</ele>
        <time>2019-02-21T10:03:36Z</time>
      </trkpt>
      <trkpt lat="48.59838" lon="1.97649">
        <ele>121</ele>
        <time>2019-02-21T10:03:40Z</time>
      </trkpt>
      <trkpt lat="48.59847" lon="1.97652">
        <ele>121</ele>
        <time>2019-02-21T10:03:44Z</time>
      </trkpt>
      <trkpt lat="48.59852" lon="1.97657">
        <ele>121</ele>
        <time>2019-02-21T10:03:48Z</time>
      </trkpt>
      <trkpt lat="48.59856" lon="1.97666">
        <ele>121</ele>
        <time>2019-02-21T10:03:54Z</time>
      </trkpt>
      <trkpt lat="48.59861" lon="1.97672">
        <ele>122</ele>
        <time>2019-02-21T10:03:58Z</time>
      </trkpt>
      <trkpt lat="48.59866" lon="1.97675">
        <ele>122</ele>
        <time>2019-02-21T10:04:02Z</time>
      </trkpt>
      <trkpt lat="48.59871" lon="1.97678">
        <ele>122</ele>
        <time>2019-02-21T10:04:06Z</time>
      </trkpt>
      <trkpt lat="48.5988" lon="1.97681">
        <ele>122</ele>
        <time>2019-02-21T10:04:10Z</time>
      </trkpt>
      <trkpt lat="48.59884" lon="1.9768">
        <ele>122</ele>
        <time>2019-02-21T10:04:14Z</time>
      </trkpt>
      <trkpt lat="48.5989" lon="1.97677">
        <ele>122</ele>
        <time>2019-02-21T10:04:18Z</time>
      </trkpt>
      <trkpt lat="48.59898" lon="1.97676">
        <ele>122</ele>
        <time>2019-02-21T10:04:22Z</time>
      </trkpt>
      <trkpt lat="48.59903" lon="1.97675">
        <ele>121</ele>
        <time>2019-02-21T10:04:24Z</time>
      </trkpt>
      <trkpt lat="48.59908" lon="1.97674">
        <ele>121</ele>
        <time>2019-02-21T10:04:28Z</time>
      </trkpt>
      <trkpt lat="48.59914" lon="1.97675">
        <ele>121</ele>
        <time>2019-02-21T10:04:32Z</time>
      </trkpt>
      <trkpt lat="48.59919" lon="1.97675">
        <ele>120</ele>
        <time>2019-02-21T10:04:36Z</time>
      </trkpt>
      <trkpt lat="48.59923" lon="1.97678">
        <ele>120</ele>
        <time>2019-02-21T10:04:40Z</time>
      </trkpt>
      <trkpt lat="48.59929" lon="1.9768">
        <ele>120</ele>
        <time>2019-02-21T10:04:44Z</time>
      </trkpt>
      <trkpt lat="48.59935" lon="1.97682">
        <ele>121</ele>
        <time>2019-02-21T10:04:48Z</time>
      </trkpt>
      <trkpt lat="48.59945" lon="1.97685">
        <ele>121</ele>
        <time>2019-02-21T10:04:52Z</time>
      </trkpt>
      <trkpt lat="48.59949" lon="1.97688">
        <ele>121</ele>
        <time>2019-02-21T10:04:54Z</time>
      </trkpt>
      <trkpt lat="48.59956" lon="1.97694">
        <ele>121</ele>
        <time>2019-02-21T10:04:58Z</time>
      </trkpt>
      <trkpt lat="48.59961" lon="1.977">
        <ele>121</ele>
        <time>2019-02-21T10:05:02Z</time>
      </trkpt>
      <trkpt lat="48.59965" lon="1.97707">
        <ele>121</ele>
        <time>2019-02-21T10:05:06Z</time>
      </trkpt>
      <trkpt lat="48.59971" lon="1.97715">
        <ele>121</ele>
        <time>2019-02-21T10:05:10Z</time>
      </trkpt>
      <trkpt lat="48.59976" lon="1.97724">
        <ele>120</ele>
        <time>2019-02-21T10:05:14Z</time>
      </trkpt>
      <trkpt lat="48.59979" lon="1.97729">
        <ele>120</ele>
        <time>2019-02-21T10:05:16Z</time>
      </trkpt>
      <trkpt lat="48.59984" lon="1.97736">
        <ele>120</ele>
        <time>2019-02-21T10:05:20Z</time>
      </trkpt>
      <trkpt lat="48.59988" lon="1.97744">
        <ele>120</ele>
        <time>2019-02-21T10:05:24Z</time>
      </trkpt>
      <trkpt lat="48.59992" lon="1.97752">
        <ele>120</ele>
        <time>2019-02-21T10:05:28Z</time>
      </trkpt>
      <trkpt lat="48.59995" lon="1.97761">
        <ele>120</ele>
        <time>2019-02-21T10:05:34Z</time>
      </trkpt>
      <trkpt lat="48.6" lon="1.97769">
        <ele>119</ele>
        <time>2019-02-21T10:05:40Z</time>
      </trkpt>
      <trkpt lat="48.60005" lon="1.97774">
        <ele>119</ele>
        <time>2019-02-21T10:05:44Z</time>
      </trkpt>
      <trkpt lat="48.6001" lon="1.97779">
        <ele>119</ele>
        <time>2019-02-21T10:05:48Z</time>
      </trkpt>
      <trkpt lat="48.60015" lon="1.97784">
        <ele>119</ele>
        <time>2019-02-21T10:05:52Z</time>
      </trkpt>
      <trkpt lat="48.60019" lon="1.97791">
        <ele>119</ele>
        <time>2019-02-21T10:05:56Z</time>
      </trkpt>
      <trkpt lat="48.60023" lon="1.97797">
        <ele>119</ele>
        <time>2019-02-21T10:06:00Z</time>
      </trkpt>
      <trkpt lat="48.60025" lon="1.97804">
        <ele>119</ele>
        <time>2019-02-21T10:06:04Z</time>
      </trkpt>
      <trkpt lat="48.60029" lon="1.97811">
        <ele>119</ele>
        <time>2019-02-21T10:06:08Z</time>
      </trkpt>
      <trkpt lat="48.60034" lon="1.97815">
        <ele>119</ele>
        <time>2019-02-21T10:06:12Z</time>
      </trkpt>
      <trkpt lat="48.60041" lon="1.97822">
        <ele>119</ele>
        <time>2019-02-21T10:06:16Z</time>
      </trkpt>
      <trkpt lat="48.60047" lon="1.97829">
        <ele>119</ele>
        <time>2019-02-21T10:06:20Z</time>
      </trkpt>
      <trkpt lat="48.60053" lon="1.97833">
        <ele>119</ele>
        <time>2019-02-21T10:06:24Z</time>
      </trkpt>
      <trkpt lat="48.60056" lon="1.97839">
        <ele>119</ele>
        <time>2019-02-21T10:06:26Z</time>
      </trkpt>
      <trkpt lat="48.60059" lon="1.97843">
        <ele>119</ele>
        <time>2019-02-21T10:06:28Z</time>
      </trkpt>
      <trkpt lat="48.60064" lon="1.97848">
        <ele>119</ele>
        <time>2019-02-21T10:06:32Z</time>
      </trkpt>
      <trkpt lat="48.60068" lon="1.97856">
        <ele>119</ele>
        <time>2019-02-21T10:06:36Z</time>
      </trkpt>
      <trkpt lat="48.60075" lon="1.97863">
        <ele>119</ele>
        <time>2019-02-21T10:06:40Z</time>
      </trkpt>
      <trkpt lat="48.60082" lon="1.97868">
        <ele>119</ele>
        <time>2019-02-21T10:06:44Z</time>
      </trkpt>
      <trkpt lat="48.60087" lon="1.97873">
        <ele>118</ele>
        <time>2019-02-21T10:06:46Z</time>
      </trkpt>
      <trkpt lat="48.60093" lon="1.97876">
        <ele>117</ele>
        <time>2019-02-21T10:06:48Z</time>
      </trkpt>
      <trkpt lat="48.60098" lon="1.97881">
        <ele>117</ele>
        <time>2019-02-21T10:06:50Z</time>
      </trkpt>
      <trkpt lat="48.60101" lon="1.97888">
        <ele>117</ele>
        <time>2019-02-21T10:06:54Z</time>
      </trkpt>
      <trkpt lat="48.60107" lon="1.97891">
        <ele>117</ele>
        <time>2019-02-21T10:06:58Z</time>
      </trkpt>
      <trkpt lat="48.60112" lon="1.97895">
        <ele>117</ele>
        <time>2019-02-21T10:07:00Z</time>
      </trkpt>
      <trkpt lat="48.60115" lon="1.97903">
        <ele>117</ele>
        <time>2019-02-21T10:07:04Z</time>
      </trkpt>
      <trkpt lat="48.60119" lon="1.97907">
        <ele>117</ele>
        <time>2019-02-21T10:07:06Z</time>
      </trkpt>
      <trkpt lat="48.60126" lon="1.97912">
        <ele>117</ele>
        <time>2019-02-21T10:07:10Z</time>
      </trkpt>
      <trkpt lat="48.60132" lon="1.97918">
        <ele>117</ele>
        <time>2019-02-21T10:07:14Z</time>
      </trkpt>
      <trkpt lat="48.60137" lon="1.97925">
        <ele>117</ele>
        <time>2019-02-21T10:07:18Z</time>
      </trkpt>
      <trkpt lat="48.60142" lon="1.97932">
        <ele>117</ele>
        <time>2019-02-21T10:07:22Z</time>
      </trkpt>
      <trkpt lat="48.60145" lon="1.97938">
        <ele>117</ele>
        <time>2019-02-21T10:07:26Z</time>
      </trkpt>
      <trkpt lat="48.60152" lon="1.97943">
        <ele>117</ele>
        <time>2019-02-21T10:07:30Z</time>
      </trkpt>
      <trkpt lat="48.60159" lon="1.97947">
        <ele>117</ele>
        <time>2019-02-21T10:07:34Z</time>
      </trkpt>
      <trkpt lat="48.60165" lon="1.97954">
        <ele>117</ele>
        <time>2019-02-21T10:07:38Z</time>
      </trkpt>
      <trkpt lat="48.60171" lon="1.97958">
        <ele>115</ele>
        <time>2019-02-21T10:07:42Z</time>
      </trkpt>
      <trkpt lat="48.60175" lon="1.97962">
        <ele>115</ele>
        <time>2019-02-21T10:07:46Z</time>
      </trkpt>
      <trkpt lat="48.6018" lon="1.97969">
        <ele>115</ele>
        <time>2019-02-21T10:07:50Z</time>
      </trkpt>
      <trkpt lat="48.60185" lon="1.97975">
        <ele>115</ele>
        <time>2019-02-21T10:07:54Z</time>
      </trkpt>
      <trkpt lat="48.60189" lon="1.9798">
        <ele>115</ele>
        <time>2019-02-21T10:07:58Z</time>
      </trkpt>
      <trkpt lat="48.60194" lon="1.97984">
        <ele>115</ele>
        <time>2019-02-21T10:08:02Z</time>
      </trkpt>
      <trkpt lat="48.60199" lon="1.97988">
        <ele>115</ele>
        <time>2019-02-21T10:08:06Z</time>
      </trkpt>
      <trkpt lat="48.60205" lon="1.97993">
        <ele>114</ele>
        <time>2019-02-21T10:08:10Z</time>
      </trkpt>
      <trkpt lat="48.60211" lon="1.97999">
        <ele>114</ele>
        <time>2019-02-21T10:08:14Z</time>
      </trkpt>
      <trkpt lat="48.60215" lon="1.98005">
        <ele>114</ele>
        <time>2019-02-21T10:08:18Z</time>
      </trkpt>
      <trkpt lat="48.60221" lon="1.98013">
        <ele>114</ele>
        <time>2019-02-21T10:08:22Z</time>
      </trkpt>
      <trkpt lat="48.60224" lon="1.9802">
        <ele>114</ele>
        <time>2019-02-21T10:08:26Z</time>
      </trkpt>
      <trkpt lat="48.60231" lon="1.9803">
        <ele>114</ele>
        <time>2019-02-21T10:08:30Z</time>
      </trkpt>
      <trkpt lat="48.60235" lon="1.98036">
        <ele>114</ele>
        <time>2019-02-21T10:08:32Z</time>
      </trkpt>
      <trkpt lat="48.60241" lon="1.98042">
        <ele>114</ele>
        <time>2019-02-21T10:08:36Z</time>
      </trkpt>
      <trkpt lat="48.60248" lon="1.98047">
        <ele>114</ele>
        <time>2019-02-21T10:08:40Z</time>
      </trkpt>
      <trkpt lat="48.60253" lon="1.98053">
        <ele>111</ele>
        <time>2019-02-21T10:08:44Z</time>
      </trkpt>
      <trkpt lat="48.60257" lon="1.98057">
        <ele>111</ele>
        <time>2019-02-21T10:08:46Z</time>
      </trkpt>
      <trkpt lat="48.60262" lon="1.98062">
        <ele>111</ele>
        <time>2019-02-21T10:08:50Z</time>
      </trkpt>
      <trkpt lat="48.60266" lon="1.98069">
        <ele>111</ele>
        <time>2019-02-21T10:08:54Z</time>
      </trkpt>
      <trkpt lat="48.60271" lon="1.98073">
        <ele>111</ele>
        <time>2019-02-21T10:08:58Z</time>
      </trkpt>
      <trkpt lat="48.60277" lon="1.98077">
        <ele>111</ele>
        <time>2019-02-21T10:09:02Z</time>
      </trkpt>
      <trkpt lat="48.60283" lon="1.98083">
        <ele>111</ele>
        <time>2019-02-21T10:09:06Z</time>
      </trkpt>
      <trkpt lat="48.60287" lon="1.98087">
        <ele>111</ele>
        <time>2019-02-21T10:09:10Z</time>
      </trkpt>
      <trkpt lat="48.60292" lon="1.98092">
        <ele>111</ele>
        <time>2019-02-21T10:09:14Z</time>
      </trkpt>
      <trkpt lat="48.60298" lon="1.98098">
        <ele>111</ele>
        <time>2019-02-21T10:09:18Z</time>
      </trkpt>
      <trkpt lat="48.60303" lon="1.98104">
        <ele>111</ele>
        <time>2019-02-21T10:09:22Z</time>
      </trkpt>
      <trkpt lat="48.60308" lon="1.98108">
        <ele>111</ele>
        <time>2019-02-21T10:09:26Z</time>
      </trkpt>
      <trkpt lat="48.60315" lon="1.98112">
        <ele>111</ele>
        <time>2019-02-21T10:09:30Z</time>
      </trkpt>
      <trkpt lat="48.6032" lon="1.98115">
        <ele>111</ele>
        <time>2019-02-21T10:09:34Z</time>
      </trkpt>
      <trkpt lat="48.60326" lon="1.98121">
        <ele>111</ele>
        <time>2019-02-21T10:09:38Z</time>
      </trkpt>
      <trkpt lat="48.60331" lon="1.98127">
        <ele>111</ele>
        <time>2019-02-21T10:09:42Z</time>
      </trkpt>
      <trkpt lat="48.60336" lon="1.98135">
        <ele>109</ele>
        <time>2019-02-21T10:09:46Z</time>
      </trkpt>
      <trkpt lat="48.60341" lon="1.98144">
        <ele>110</ele>
        <time>2019-02-21T10:09:50Z</time>
      </trkpt>
      <trkpt lat="48.60347" lon="1.98152">
        <ele>110</ele>
        <time>2019-02-21T10:09:54Z</time>
      </trkpt>
      <trkpt lat="48.60352" lon="1.98157">
        <ele>110</ele>
        <time>2019-02-21T10:09:58Z</time>
      </trkpt>
      <trkpt lat="48.60358" lon="1.98165">
        <ele>109</ele>
        <time>2019-02-21T10:10:02Z</time>
      </trkpt>
      <trkpt lat="48.60363" lon="1.98169">
        <ele>109</ele>
        <time>2019-02-21T10:10:06Z</time>
      </trkpt>
      <trkpt lat="48.60368" lon="1.98177">
        <ele>109</ele>
        <time>2019-02-21T10:10:10Z</time>
      </trkpt>
      <trkpt lat="48.60374" lon="1.98183">
        <ele>109</ele>
        <time>2019-02-21T10:10:14Z</time>
      </trkpt>
      <trkpt lat="48.60381" lon="1.9819">
        <ele>109</ele>
        <time>2019-02-21T10:10:18Z</time>
      </trkpt>
      <trkpt lat="48.60387" lon="1.98197">
        <ele>109</ele>
        <time>2019-02-21T10:10:22Z</time>
      </trkpt>
      <trkpt lat="48.6039" lon="1.98205">
        <ele>109</ele>
        <time>2019-02-21T10:10:26Z</time>
      </trkpt>
      <trkpt lat="48.60396" lon="1.98212">
        <ele>108</ele>
        <time>2019-02-21T10:10:30Z</time>
      </trkpt>
      <trkpt lat="48.60402" lon="1.98216">
        <ele>108</ele>
        <time>2019-02-21T10:10:34Z</time>
      </trkpt>
      <trkpt lat="48.60408" lon="1.98221">
        <ele>108</ele>
        <time>2019-02-21T10:10:38Z</time>
      </trkpt>
      <trkpt lat="48.60413" lon="1.98224">
        <ele>108</ele>
        <time>2019-02-21T10:10:42Z</time>
      </trkpt>
      <trkpt lat="48.60419" lon="1.98229">
        <ele>107</ele>
        <time>2019-02-21T10:10:46Z</time>
      </trkpt>
      <trkpt lat="48.60426" lon="1.98235">
        <ele>107</ele>
        <time>2019-02-21T10:10:50Z</time>
      </trkpt>
      <trkpt lat="48.6043" lon="1.98238">
        <ele>107</ele>
        <time>2019-02-21T10:10:54Z</time>
      </trkpt>
      <trkpt lat="48.60435" lon="1.98243">
        <ele>107</ele>
        <time>2019-02-21T10:10:58Z</time>
      </trkpt>
      <trkpt lat="48.6044" lon="1.98248">
        <ele>107</ele>
        <time>2019-02-21T10:11:02Z</time>
      </trkpt>
      <trkpt lat="48.60443" lon="1.98256">
        <ele>107</ele>
        <time>2019-02-21T10:11:06Z</time>
      </trkpt>
      <trkpt lat="48.60448" lon="1.98261">
        <ele>107</ele>
        <time>2019-02-21T10:11:10Z</time>
      </trkpt>
      <trkpt lat="48.60453" lon="1.98267">
        <ele>107</ele>
        <time>2019-02-21T10:11:14Z</time>
      </trkpt>
      <trkpt lat="48.60459" lon="1.98271">
        <ele>107</ele>
        <time>2019-02-21T10:11:18Z</time>
      </trkpt>
      <trkpt lat="48.60464" lon="1.98275">
        <ele>107</ele>
        <time>2019-02-21T10:11:22Z</time>
      </trkpt>
      <trkpt lat="48.60469" lon="1.98283">
        <ele>107</ele>
        <time>2019-02-21T10:11:26Z</time>
      </trkpt>
      <trkpt lat="48.60473" lon="1.98289">
        <ele>107</ele>
        <time>2019-02-21T10:11:30Z</time>
      </trkpt>
      <trkpt lat="48.60477" lon="1.98293">
        <ele>107</ele>
        <time>2019-02-21T10:11:34Z</time>
      </trkpt>
      <trkpt lat="48.60483" lon="1.98296">
        <ele>107</ele>
        <time>2019-02-21T10:11:38Z</time>
      </trkpt>
      <trkpt lat="48.6049" lon="1.98302">
        <ele>107</ele>
        <time>2019-02-21T10:11:44Z</time>
      </trkpt>
      <trkpt lat="48.60494" lon="1.98305">
        <ele>107</ele>
        <time>2019-02-21T10:11:46Z</time>
      </trkpt>
      <trkpt lat="48.60501" lon="1.98311">
        <ele>108</ele>
        <time>2019-02-21T10:11:50Z</time>
      </trkpt>
      <trkpt lat="48.60507" lon="1.98318">
        <ele>108</ele>
        <time>2019-02-21T10:11:54Z</time>
      </trkpt>
      <trkpt lat="48.60512" lon="1.98322">
        <ele>108</ele>
        <time>2019-02-21T10:11:58Z</time>
      </trkpt>
      <trkpt lat="48.60518" lon="1.98328">
        <ele>108</ele>
        <time>2019-02-21T10:12:02Z</time>
      </trkpt>
      <trkpt lat="48.60521" lon="1.98333">
        <ele>108</ele>
        <time>2019-02-21T10:12:08Z</time>
      </trkpt>
      <trkpt lat="48.60524" lon="1.9834">
        <ele>107</ele>
        <time>2019-02-21T10:12:16Z</time>
      </trkpt>
      <trkpt lat="48.60528" lon="1.98346">
        <ele>107</ele>
        <time>2019-02-21T10:12:20Z</time>
      </trkpt>
      <trkpt lat="48.60533" lon="1.98347">
        <ele>107</ele>
        <time>2019-02-21T10:12:28Z</time>
      </trkpt>
      <trkpt lat="48.60537" lon="1.98351">
        <ele>107</ele>
        <time>2019-02-21T10:12:42Z</time>
      </trkpt>
      <trkpt lat="48.60542" lon="1.98348">
        <ele>107</ele>
        <time>2019-02-21T10:13:20Z</time>
      </trkpt>
      <trkpt lat="48.60546" lon="1.98343">
        <ele>107</ele>
        <time>2019-02-21T10:14:48Z</time>
      </trkpt>
      <trkpt lat="48.60552" lon="1.98343">
        <ele>107</ele>
        <time>2019-02-21T10:15:02Z</time>
      </trkpt>
      <trkpt lat="48.60557" lon="1.98342">
        <ele>107</ele>
        <time>2019-02-21T10:15:06Z</time>
      </trkpt>
      <trkpt lat="48.60562" lon="1.98338">
        <ele>107</ele>
        <time>2019-02-21T10:15:12Z</time>
      </trkpt>
      <trkpt lat="48.60567" lon="1.98337">
        <ele>107</ele>
        <time>2019-02-21T10:15:16Z</time>
      </trkpt>
      <trkpt lat="48.60572" lon="1.98337">
        <ele>107</ele>
        <time>2019-02-21T10:15:20Z</time>
      </trkpt>
      <trkpt lat="48.60577" lon="1.98334">
        <ele>107</ele>
        <time>2019-02-21T10:15:24Z</time>
      </trkpt>
      <trkpt lat="48.60583" lon="1.98333">
        <ele>107</ele>
        <time>2019-02-21T10:15:32Z</time>
      </trkpt>
      <trkpt lat="48.60589" lon="1.9833">
        <ele>107</ele>
        <time>2019-02-21T10:15:36Z</time>
      </trkpt>
      <trkpt lat="48.60594" lon="1.98326">
        <ele>108</ele>
        <time>2019-02-21T10:15:42Z</time>
      </trkpt>
      <trkpt lat="48.60598" lon="1.98323">
        <ele>108</ele>
        <time>2019-02-21T10:15:48Z</time>
      </trkpt>
      <trkpt lat="48.60605" lon="1.98322">
        <ele>108</ele>
        <time>2019-02-21T10:15:52Z</time>
      </trkpt>
      <trkpt lat="48.6061" lon="1.98319">
        <ele>108</ele>
        <time>2019-02-21T10:15:56Z</time>
      </trkpt>
      <trkpt lat="48.60616" lon="1.98315">
        <ele>108</ele>
        <time>2019-02-21T10:16:00Z</time>
      </trkpt>
      <trkpt lat="48.60622" lon="1.98315">
        <ele>109</ele>
        <time>2019-02-21T10:16:04Z</time>
      </trkpt>
      <trkpt lat="48.60629" lon="1.98315">
        <ele>109</ele>
        <time>2019-02-21T10:16:08Z</time>
      </trkpt>
      <trkpt lat="48.60634" lon="1.98313">
        <ele>109</ele>
        <time>2019-02-21T10:16:10Z</time>
      </trkpt>
      <trkpt lat="48.60641" lon="1.98311">
        <ele>109</ele>
        <time>2019-02-21T10:16:14Z</time>
      </trkpt>
      <trkpt lat="48.60645" lon="1.98306">
        <ele>109</ele>
        <time>2019-02-21T10:16:18Z</time>
      </trkpt>
      <trkpt lat="48.6065" lon="1.98303">
        <ele>109</ele>
        <time>2019-02-21T10:16:24Z</time>
      </trkpt>
      <trkpt lat="48.60657" lon="1.98299">
        <ele>109</ele>
        <time>2019-02-21T10:16:30Z</time>
      </trkpt>
      <trkpt lat="48.60661" lon="1.98296">
        <ele>109</ele>
        <time>2019-02-21T10:16:34Z</time>
      </trkpt>
      <trkpt lat="48.60667" lon="1.98293">
        <ele>109</ele>
        <time>2019-02-21T10:16:38Z</time>
      </trkpt>
      <trkpt lat="48.60672" lon="1.98292">
        <ele>109</ele>
        <time>2019-02-21T10:16:42Z</time>
      </trkpt>
      <trkpt lat="48.60676" lon="1.98288">
        <ele>109</ele>
        <time>2019-02-21T10:16:48Z</time>
      </trkpt>
      <trkpt lat="48.60679" lon="1.98283">
        <ele>109</ele>
        <time>2019-02-21T10:16:52Z</time>
      </trkpt>
      <trkpt lat="48.60685" lon="1.9828">
        <ele>109</ele>
        <time>2019-02-21T10:16:56Z</time>
      </trkpt>
      <trkpt lat="48.60688" lon="1.98275">
        <ele>109</ele>
        <time>2019-02-21T10:17:04Z</time>
      </trkpt>
      <trkpt lat="48.60694" lon="1.98271">
        <ele>108</ele>
        <time>2019-02-21T10:17:12Z</time>
      </trkpt>
      <trkpt lat="48.60698" lon="1.98267">
        <ele>108</ele>
        <time>2019-02-21T10:17:16Z</time>
      </trkpt>
      <trkpt lat="48.60702" lon="1.9826">
        <ele>108</ele>
        <time>2019-02-21T10:17:20Z</time>
      </trkpt>
      <trkpt lat="48.60706" lon="1.98256">
        <ele>108</ele>
        <time>2019-02-21T10:17:22Z</time>
      </trkpt>
      <trkpt lat="48.60711" lon="1.9825">
        <ele>108</ele>
        <time>2019-02-21T10:17:26Z</time>
      </trkpt>
      <trkpt lat="48.60715" lon="1.98243">
        <ele>109</ele>
        <time>2019-02-21T10:17:30Z</time>
      </trkpt>
      <trkpt lat="48.6072" lon="1.98239">
        <ele>109</ele>
        <time>2019-02-21T10:17:34Z</time>
      </trkpt>
      <trkpt lat="48.60723" lon="1.98232">
        <ele>109</ele>
        <time>2019-02-21T10:17:38Z</time>
      </trkpt>
      <trkpt lat="48.60725" lon="1.98227">
        <ele>109</ele>
        <time>2019-02-21T10:17:42Z</time>
      </trkpt>
      <trkpt lat="48.60729" lon="1.98222">
        <ele>109</ele>
        <time>2019-02-21T10:17:46Z</time>
      </trkpt>
      <trkpt lat="48.60733" lon="1.98215">
        <ele>109</ele>
        <time>2019-02-21T10:17:50Z</time>
      </trkpt>
      <trkpt lat="48.60736" lon="1.98211">
        <ele>109</ele>
        <time>2019-02-21T10:17:54Z</time>
      </trkpt>
      <trkpt lat="48.6074" lon="1.98205">
        <ele>109</ele>
        <time>2019-02-21T10:17:58Z</time>
      </trkpt>
      <trkpt lat="48.60745" lon="1.98198">
        <ele>109</ele>
        <time>2019-02-21T10:18:02Z</time>
      </trkpt>
      <trkpt lat="48.60748" lon="1.9819">
        <ele>109</ele>
        <time>2019-02-21T10:18:06Z</time>
      </trkpt>
      <trkpt lat="48.60753" lon="1.98183">
        <ele>108</ele>
        <time>2019-02-21T10:18:10Z</time>
      </trkpt>
      <trkpt lat="48.60755" lon="1.98175">
        <ele>108</ele>
        <time>2019-02-21T10:18:14Z</time>
      </trkpt>
      <trkpt lat="48.60759" lon="1.98171">
        <ele>108</ele>
        <time>2019-02-21T10:18:16Z</time>
      </trkpt>
      <trkpt lat="48.60763" lon="1.98162">
        <ele>108</ele>
        <time>2019-02-21T10:18:20Z</time>
      </trkpt>
      <trkpt lat="48.60766" lon="1.98155">
        <ele>108</ele>
        <time>2019-02-21T10:18:24Z</time>
      </trkpt>
      <trkpt lat="48.60769" lon="1.98146">
        <ele>108</ele>
        <time>2019-02-21T10:18:28Z</time>
      </trkpt>
      <trkpt lat="48.60773" lon="1.9814">
        <ele>108</ele>
        <time>2019-02-21T10:18:32Z</time>
      </trkpt>
      <trkpt lat="48.60775" lon="1.98134">
        <ele>107</ele>
        <time>2019-02-21T10:18:36Z</time>
      </trkpt>
      <trkpt lat="48.6078" lon="1.98126">
        <ele>107</ele>
        <time>2019-02-21T10:18:40Z</time>
      </trkpt>
      <trkpt lat="48.60783" lon="1.98122">
        <ele>107</ele>
        <time>2019-02-21T10:18:44Z</time>
      </trkpt>
      <trkpt lat="48.60785" lon="1.98115">
        <ele>107</ele>
        <time>2019-02-21T10:18:48Z</time>
      </trkpt>
      <trkpt lat="48.60786" lon="1.98108">
        <ele>107</ele>
        <time>2019-02-21T10:18:54Z</time>
      </trkpt>
      <trkpt lat="48.60789" lon="1.98098">
        <ele>107</ele>
        <time>2019-02-21T10:18:58Z</time>
      </trkpt>
      <trkpt lat="48.6079" lon="1.98091">
        <ele>107</ele>
        <time>2019-02-21T10:19:02Z</time>
      </trkpt>
      <trkpt lat="48.60793" lon="1.98082">
        <ele>107</ele>
        <time>2019-02-21T10:19:06Z</time>
      </trkpt>
      <trkpt lat="48.60797" lon="1.98077">
        <ele>107</ele>
        <time>2019-02-21T10:19:10Z</time>
      </trkpt>
      <trkpt lat="48.608" lon="1.98071">
        <ele>107</ele>
        <time>2019-02-21T10:19:14Z</time>
      </trkpt>
      <trkpt lat="48.60802" lon="1.98062">
        <ele>107</ele>
        <time>2019-02-21T10:19:20Z</time>
      </trkpt>
      <trkpt lat="48.60804" lon="1.98055">
        <ele>107</ele>
        <time>2019-02-21T10:19:24Z</time>
      </trkpt>
      <trkpt lat="48.60807" lon="1.98045">
        <ele>107</ele>
        <time>2019-02-21T10:19:30Z</time>
      </trkpt>
      <trkpt lat="48.60809" lon="1.98037">
        <ele>107</ele>
        <time>2019-02-21T10:19:34Z</time>
      </trkpt>
      <trkpt lat="48.60812" lon="1.98028">
        <ele>107</ele>
        <time>2019-02-21T10:19:38Z</time>
      </trkpt>
      <trkpt lat="48.60815" lon="1.98019">
        <ele>107</ele>
        <time>2019-02-21T10:19:42Z</time>
      </trkpt>
      <trkpt lat="48.60817" lon="1.98009">
        <ele>107</ele>
        <time>2019-02-21T10:19:46Z</time>
      </trkpt>
      <trkpt lat="48.60818" lon="1.98003">
        <ele>107</ele>
        <time>2019-02-21T10:19:50Z</time>
      </trkpt>
      <trkpt lat="48.60821" lon="1.97993">
        <ele>107</ele>
        <time>2019-02-21T10:19:54Z</time>
      </trkpt>
      <trkpt lat="48.60823" lon="1.97985">
        <ele>107</ele>
        <time>2019-02-21T10:19:58Z</time>
      </trkpt>
      <trkpt lat="48.60826" lon="1.97976">
        <ele>108</ele>
        <time>2019-02-21T10:20:02Z</time>
      </trkpt>
      <trkpt lat="48.60826" lon="1.97966">
        <ele>108</ele>
        <time>2019-02-21T10:20:06Z</time>
      </trkpt>
      <trkpt lat="48.60828" lon="1.97956">
        <ele>108</ele>
        <time>2019-02-21T10:20:10Z</time>
      </trkpt>
      <trkpt lat="48.60828" lon="1.97944">
        <ele>108</ele>
        <time>2019-02-21T10:20:14Z</time>
      </trkpt>
      <trkpt lat="48.6083" lon="1.97935">
        <ele>108</ele>
        <time>2019-02-21T10:20:18Z</time>
      </trkpt>
      <trkpt lat="48.6083" lon="1.97923">
        <ele>108</ele>
        <time>2019-02-21T10:20:24Z</time>
      </trkpt>
      <trkpt lat="48.6083" lon="1.97914">
        <ele>108</ele>
        <time>2019-02-21T10:20:26Z</time>
      </trkpt>
      <trkpt lat="48.6083" lon="1.97904">
        <ele>108</ele>
        <time>2019-02-21T10:20:28Z</time>
      </trkpt>
      <trkpt lat="48.60829" lon="1.97896">
        <ele>108</ele>
        <time>2019-02-21T10:20:30Z</time>
      </trkpt>
      <trkpt lat="48.6083" lon="1.97889">
        <ele>108</ele>
        <time>2019-02-21T10:20:32Z</time>
      </trkpt>
      <trkpt lat="48.60831" lon="1.97876">
        <ele>108</ele>
        <time>2019-02-21T10:20:36Z</time>
      </trkpt>
      <trkpt lat="48.60832" lon="1.97866">
        <ele>108</ele>
        <time>2019-02-21T10:20:40Z</time>
      </trkpt>
      <trkpt lat="48.60832" lon="1.97858">
        <ele>108</ele>
        <time>2019-02-21T10:20:44Z</time>
      </trkpt>
      <trkpt lat="48.60833" lon="1.9785">
        <ele>108</ele>
        <time>2019-02-21T10:20:48Z</time>
      </trkpt>
      <trkpt lat="48.60833" lon="1.97842">
        <ele>108</ele>
        <time>2019-02-21T10:20:50Z</time>
      </trkpt>
      <trkpt lat="48.60834" lon="1.97832">
        <ele>108</ele>
        <time>2019-02-21T10:20:54Z</time>
      </trkpt>
      <trkpt lat="48.60837" lon="1.9782">
        <ele>107</ele>
        <time>2019-02-21T10:20:58Z</time>
      </trkpt>
      <trkpt lat="48.60836" lon="1.9781">
        <ele>107</ele>
        <time>2019-02-21T10:21:02Z</time>
      </trkpt>
      <trkpt lat="48.60838" lon="1.978">
        <ele>107</ele>
        <time>2019-02-21T10:21:06Z</time>
      </trkpt>
      <trkpt lat="48.60841" lon="1.97792">
        <ele>107</ele>
        <time>2019-02-21T10:21:10Z</time>
      </trkpt>
      <trkpt lat="48.60842" lon="1.97783">
        <ele>107</ele>
        <time>2019-02-21T10:21:14Z</time>
      </trkpt>
      <trkpt lat="48.60844" lon="1.97774">
        <ele>107</ele>
        <time>2019-02-21T10:21:18Z</time>
      </trkpt>
      <trkpt lat="48.60844" lon="1.97767">
        <ele>107</ele>
        <time>2019-02-21T10:21:22Z</time>
      </trkpt>
      <trkpt lat="48.60846" lon="1.97759">
        <ele>107</ele>
        <time>2019-02-21T10:21:26Z</time>
      </trkpt>
      <trkpt lat="48.60846" lon="1.97749">
        <ele>107</ele>
        <time>2019-02-21T10:21:30Z</time>
      </trkpt>
      <trkpt lat="48.60845" lon="1.97742">
        <ele>107</ele>
        <time>2019-02-21T10:21:34Z</time>
      </trkpt>
      <trkpt lat="48.60844" lon="1.97732">
        <ele>107</ele>
        <time>2019-02-21T10:21:38Z</time>
      </trkpt>
      <trkpt lat="48.60841" lon="1.97725">
        <ele>107</ele>
        <time>2019-02-21T10:21:42Z</time>
      </trkpt>
      <trkpt lat="48.60842" lon="1.97717">
        <ele>107</ele>
        <time>2019-02-21T10:21:46Z</time>
      </trkpt>
      <trkpt lat="48.60841" lon="1.97709">
        <ele>107</ele>
        <time>2019-02-21T10:21:50Z</time>
      </trkpt>
      <trkpt lat="48.60841" lon="1.97701">
        <ele>107</ele>
        <time>2019-02-21T10:21:54Z</time>
      </trkpt>
      <trkpt lat="48.60841" lon="1.97691">
        <ele>107</ele>
        <time>2019-02-21T10:21:58Z</time>
      </trkpt>
      <trkpt lat="48.6084" lon="1.97683">
        <ele>107</ele>
        <time>2019-02-21T10:22:02Z</time>
      </trkpt>
      <trkpt lat="48.60838" lon="1.97671">
        <ele>108</ele>
        <time>2019-02-21T10:22:06Z</time>
      </trkpt>
      <trkpt lat="48.60836" lon="1.97664">
        <ele>108</ele>
        <time>2019-02-21T10:22:08Z</time>
      </trkpt>
      <trkpt lat="48.60837" lon="1.97657">
        <ele>108</ele>
        <time>2019-02-21T10:22:10Z</time>
      </trkpt>
      <trkpt lat="48.60836" lon="1.97646">
        <ele>107</ele>
        <time>2019-02-21T10:22:14Z</time>
      </trkpt>
      <trkpt lat="48.60833" lon="1.97632">
        <ele>108</ele>
        <time>2019-02-21T10:22:18Z</time>
      </trkpt>
      <trkpt lat="48.60832" lon="1.97623">
        <ele>108</ele>
        <time>2019-02-21T10:22:22Z</time>
      </trkpt>
      <trkpt lat="48.60829" lon="1.97614">
        <ele>108</ele>
        <time>2019-02-21T10:22:26Z</time>
      </trkpt>
      <trkpt lat="48.60828" lon="1.97607">
        <ele>108</ele>
        <time>2019-02-21T10:22:28Z</time>
      </trkpt>
      <trkpt lat="48.60826" lon="1.97593">
        <ele>108</ele>
        <time>2019-02-21T10:22:32Z</time>
      </trkpt>
      <trkpt lat="48.60824" lon="1.97587">
        <ele>108</ele>
        <time>2019-02-21T10:22:34Z</time>
      </trkpt>
      <trkpt lat="48.6082" lon="1.97578">
        <ele>108</ele>
        <time>2019-02-21T10:22:38Z</time>
      </trkpt>
      <trkpt lat="48.60815" lon="1.97572">
        <ele>108</ele>
        <time>2019-02-21T10:22:42Z</time>
      </trkpt>
      <trkpt lat="48.60813" lon="1.97565">
        <ele>108</ele>
        <time>2019-02-21T10:22:44Z</time>
      </trkpt>
      <trkpt lat="48.60812" lon="1.97556">
        <ele>108</ele>
        <time>2019-02-21T10:22:48Z</time>
      </trkpt>
      <trkpt lat="48.6081" lon="1.97549">
        <ele>108</ele>
        <time>2019-02-21T10:22:54Z</time>
      </trkpt>
      <trkpt lat="48.60808" lon="1.97543">
        <ele>108</ele>
        <time>2019-02-21T10:23:00Z</time>
      </trkpt>
      <trkpt lat="48.60806" lon="1.97535">
        <ele>108</ele>
        <time>2019-02-21T10:23:02Z</time>
      </trkpt>
      <trkpt lat="48.60801" lon="1.97524">
        <ele>108</ele>
        <time>2019-02-21T10:23:06Z</time>
      </trkpt>
      <trkpt lat="48.60797" lon="1.97516">
        <ele>108</ele>
        <time>2019-02-21T10:23:12Z</time>
      </trkpt>
      <trkpt lat="48.60797" lon="1.97505">
        <ele>108</ele>
        <time>2019-02-21T10:23:16Z</time>
      </trkpt>
      <trkpt lat="48.60796" lon="1.97497">
        <ele>109</ele>
        <time>2019-02-21T10:23:20Z</time>
      </trkpt>
      <trkpt lat="48.60793" lon="1.9749">
        <ele>109</ele>
        <time>2019-02-21T10:23:24Z</time>
      </trkpt>
      <trkpt lat="48.60792" lon="1.97482">
        <ele>109</ele>
        <time>2019-02-21T10:23:30Z</time>
      </trkpt>
      <trkpt lat="48.6079" lon="1.97475">
        <ele>109</ele>
        <time>2019-02-21T10:23:36Z</time>
      </trkpt>
      <trkpt lat="48.60789" lon="1.97466">
        <ele>109</ele>
        <time>2019-02-21T10:23:42Z</time>
      </trkpt>
      <trkpt lat="48.60785" lon="1.9746">
        <ele>109</ele>
        <time>2019-02-21T10:23:50Z</time>
      </trkpt>
      <trkpt lat="48.6078" lon="1.97452">
        <ele>109</ele>
        <time>2019-02-21T10:23:56Z</time>
      </trkpt>
      <trkpt lat="48.60774" lon="1.9745">
        <ele>109</ele>
        <time>2019-02-21T10:24:04Z</time>
      </trkpt>
      <trkpt lat="48.60769" lon="1.9745">
        <ele>109</ele>
        <time>2019-02-21T10:24:10Z</time>
      </trkpt>
      <trkpt lat="48.60764" lon="1.97445">
        <ele>110</ele>
        <time>2019-02-21T10:24:18Z</time>
      </trkpt>
      <trkpt lat="48.60759" lon="1.97449">
        <ele>110</ele>
        <time>2019-02-21T10:24:22Z</time>
      </trkpt>
      <trkpt lat="48.60753" lon="1.97452">
        <ele>109</ele>
        <time>2019-02-21T10:24:28Z</time>
      </trkpt>
      <trkpt lat="48.60747" lon="1.97454">
        <ele>111</ele>
        <time>2019-02-21T10:24:32Z</time>
      </trkpt>
      <trkpt lat="48.60742" lon="1.97455">
        <ele>111</ele>
        <time>2019-02-21T10:24:38Z</time>
      </trkpt>
      <trkpt lat="48.60734" lon="1.97458">
        <ele>111</ele>
        <time>2019-02-21T10:24:44Z</time>
      </trkpt>
      <trkpt lat="48.6073" lon="1.97462">
        <ele>111</ele>
        <time>2019-02-21T10:24:50Z</time>
      </trkpt>
      <trkpt lat="48.60724" lon="1.97462">
        <ele>111</ele>
        <time>2019-02-21T10:24:58Z</time>
      </trkpt>
      <trkpt lat="48.60718" lon="1.97458">
        <ele>111</ele>
        <time>2019-02-21T10:25:02Z</time>
      </trkpt>
      <trkpt lat="48.60713" lon="1.97457">
        <ele>111</ele>
        <time>2019-02-21T10:25:06Z</time>
      </trkpt>
      <trkpt lat="48.60707" lon="1.97455">
        <ele>111</ele>
        <time>2019-02-21T10:25:10Z</time>
      </trkpt>
      <trkpt lat="48.60702" lon="1.97453">
        <ele>111</ele>
        <time>2019-02-21T10:25:14Z</time>
      </trkpt>
      <trkpt lat="48.60696" lon="1.97453">
        <ele>111</ele>
        <time>2019-02-21T10:25:18Z</time>
      </trkpt>
      <trkpt lat="48.60691" lon="1.97452">
        <ele>111</ele>
        <time>2019-02-21T10:25:20Z</time>
      </trkpt>
      <trkpt lat="48.60681" lon="1.9745">
        <ele>111</ele>
        <time>2019-02-21T10:25:24Z</time>
      </trkpt>
      <trkpt lat="48.60673" lon="1.97449">
        <ele>111</ele>
        <time>2019-02-21T10:25:28Z</time>
      </trkpt>
      <trkpt lat="48.60664" lon="1.97446">
        <ele>113</ele>
        <time>2019-02-21T10:25:32Z</time>
      </trkpt>
      <trkpt lat="48.60657" lon="1.97445">
        <ele>113</ele>
        <time>2019-02-21T10:25:36Z</time>
      </trkpt>
      <trkpt lat="48.60652" lon="1.97443">
        <ele>113</ele>
        <time>2019-02-21T10:25:40Z</time>
      </trkpt>
      <trkpt lat="48.60645" lon="1.9744">
        <ele>113</ele>
        <time>2019-02-21T10:25:44Z</time>
      </trkpt>
      <trkpt lat="48.6064" lon="1.97435">
        <ele>113</ele>
        <time>2019-02-21T10:25:48Z</time>
      </trkpt>
      <trkpt lat="48.60635" lon="1.97429">
        <ele>113</ele>
        <time>2019-02-21T10:25:52Z</time>
      </trkpt>
      <trkpt lat="48.60629" lon="1.97423">
        <ele>113</ele>
        <time>2019-02-21T10:25:56Z</time>
      </trkpt>
      <trkpt lat="48.60624" lon="1.97416">
        <ele>113</ele>
        <time>2019-02-21T10:26:00Z</time>
      </trkpt>
      <trkpt lat="48.60619" lon="1.9741">
        <ele>113</ele>
        <time>2019-02-21T10:26:04Z</time>
      </trkpt>
      <trkpt lat="48.60615" lon="1.97403">
        <ele>113</ele>
        <time>2019-02-21T10:26:08Z</time>
      </trkpt>
      <trkpt lat="48.6061" lon="1.97394">
        <ele>113</ele>
        <time>2019-02-21T10:26:12Z</time>
      </trkpt>
      <trkpt lat="48.60606" lon="1.9739">
        <ele>113</ele>
        <time>2019-02-21T10:26:16Z</time>
      </trkpt>
      <trkpt lat="48.60602" lon="1.97386">
        <ele>113</ele>
        <time>2019-02-21T10:26:20Z</time>
      </trkpt>
      <trkpt lat="48.60597" lon="1.97382">
        <ele>113</ele>
        <time>2019-02-21T10:26:24Z</time>
      </trkpt>
      <trkpt lat="48.60592" lon="1.97377">
        <ele>114</ele>
        <time>2019-02-21T10:26:28Z</time>
      </trkpt>
      <trkpt lat="48.60586" lon="1.97372">
        <ele>114</ele>
        <time>2019-02-21T10:26:34Z</time>
      </trkpt>
      <trkpt lat="48.60582" lon="1.97368">
        <ele>116</ele>
        <time>2019-02-21T10:26:38Z</time>
      </trkpt>
      <trkpt lat="48.60578" lon="1.97364">
        <ele>116</ele>
        <time>2019-02-21T10:26:42Z</time>
      </trkpt>
      <trkpt lat="48.60574" lon="1.97362">
        <ele>116</ele>
        <time>2019-02-21T10:26:46Z</time>
      </trkpt>
      <trkpt lat="48.60569" lon="1.97356">
        <ele>116</ele>
        <time>2019-02-21T10:26:50Z</time>
      </trkpt>
      <trkpt lat="48.60563" lon="1.9735">
        <ele>116</ele>
        <time>2019-02-21T10:26:54Z</time>
      </trkpt>
      <trkpt lat="48.60559" lon="1.97347">
        <ele>116</ele>
        <time>2019-02-21T10:26:58Z</time>
      </trkpt>
      <trkpt lat="48.60554" lon="1.97341">
        <ele>116</ele>
        <time>2019-02-21T10:27:02Z</time>
      </trkpt>
      <trkpt lat="48.60548" lon="1.97336">
        <ele>116</ele>
        <time>2019-02-21T10:27:06Z</time>
      </trkpt>
      <trkpt lat="48.60544" lon="1.9733">
        <ele>117</ele>
        <time>2019-02-21T10:27:12Z</time>
      </trkpt>
      <trkpt lat="48.6054" lon="1.97327">
        <ele>117</ele>
        <time>2019-02-21T10:27:16Z</time>
      </trkpt>
      <trkpt lat="48.60536" lon="1.9732">
        <ele>118</ele>
        <time>2019-02-21T10:27:20Z</time>
      </trkpt>
      <trkpt lat="48.60531" lon="1.97315">
        <ele>118</ele>
        <time>2019-02-21T10:27:24Z</time>
      </trkpt>
      <trkpt lat="48.60524" lon="1.9731">
        <ele>118</ele>
        <time>2019-02-21T10:27:28Z</time>
      </trkpt>
      <trkpt lat="48.60519" lon="1.97305">
        <ele>118</ele>
        <time>2019-02-21T10:27:32Z</time>
      </trkpt>
      <trkpt lat="48.60513" lon="1.97302">
        <ele>118</ele>
        <time>2019-02-21T10:27:36Z</time>
      </trkpt>
      <trkpt lat="48.60508" lon="1.97299">
        <ele>118</ele>
        <time>2019-02-21T10:27:40Z</time>
      </trkpt>
      <trkpt lat="48.60503" lon="1.97295">
        <ele>118</ele>
        <time>2019-02-21T10:27:44Z</time>
      </trkpt>
      <trkpt lat="48.60497" lon="1.9729">
        <ele>120</ele>
        <time>2019-02-21T10:27:48Z</time>
      </trkpt>
      <trkpt lat="48.6049" lon="1.97285">
        <ele>120</ele>
        <time>2019-02-21T10:27:52Z</time>
      </trkpt>
      <trkpt lat="48.60482" lon="1.97283">
        <ele>120</ele>
        <time>2019-02-21T10:27:56Z</time>
      </trkpt>
      <trkpt lat="48.60477" lon="1.97281">
        <ele>120</ele>
        <time>2019-02-21T10:28:00Z</time>
      </trkpt>
      <trkpt lat="48.60469" lon="1.97279">
        <ele>120</ele>
        <time>2019-02-21T10:28:04Z</time>
      </trkpt>
      <trkpt lat="48.60465" lon="1.97275">
        <ele>120</ele>
        <time>2019-02-21T10:28:08Z</time>
      </trkpt>
      <trkpt lat="48.6046" lon="1.97274">
        <ele>120</ele>
        <time>2019-02-21T10:28:12Z</time>
      </trkpt>
      <trkpt lat="48.60454" lon="1.9727">
        <ele>120</ele>
        <time>2019-02-21T10:28:16Z</time>
      </trkpt>
      <trkpt lat="48.60449" lon="1.97265">
        <ele>120</ele>
        <time>2019-02-21T10:28:20Z</time>
      </trkpt>
      <trkpt lat="48.60442" lon="1.97259">
        <ele>120</ele>
        <time>2019-02-21T10:28:24Z</time>
      </trkpt>
      <trkpt lat="48.60438" lon="1.97257">
        <ele>121</ele>
        <time>2019-02-21T10:28:26Z</time>
      </trkpt>
      <trkpt lat="48.60432" lon="1.97254">
        <ele>121</ele>
        <time>2019-02-21T10:28:28Z</time>
      </trkpt>
      <trkpt lat="48.60426" lon="1.9725">
        <ele>121</ele>
        <time>2019-02-21T10:28:32Z</time>
      </trkpt>
      <trkpt lat="48.60422" lon="1.97245">
        <ele>121</ele>
        <time>2019-02-21T10:28:36Z</time>
      </trkpt>
      <trkpt lat="48.60417" lon="1.97239">
        <ele>122</ele>
        <time>2019-02-21T10:28:40Z</time>
      </trkpt>
      <trkpt lat="48.60412" lon="1.97236">
        <ele>122</ele>
        <time>2019-02-21T10:28:44Z</time>
      </trkpt>
      <trkpt lat="48.60408" lon="1.97233">
        <ele>122</ele>
        <time>2019-02-21T10:28:48Z</time>
      </trkpt>
      <trkpt lat="48.60404" lon="1.97227">
        <ele>122</ele>
        <time>2019-02-21T10:28:52Z</time>
      </trkpt>
      <trkpt lat="48.60399" lon="1.97223">
        <ele>122</ele>
        <time>2019-02-21T10:28:56Z</time>
      </trkpt>
      <trkpt lat="48.60395" lon="1.97219">
        <ele>122</ele>
        <time>2019-02-21T10:29:02Z</time>
      </trkpt>
      <trkpt lat="48.60392" lon="1.9721">
        <ele>122</ele>
        <time>2019-02-21T10:29:06Z</time>
      </trkpt>
      <trkpt lat="48.60387" lon="1.97202">
        <ele>122</ele>
        <time>2019-02-21T10:29:12Z</time>
      </trkpt>
      <trkpt lat="48.60382" lon="1.97195">
        <ele>122</ele>
        <time>2019-02-21T10:29:16Z</time>
      </trkpt>
      <trkpt lat="48.60378" lon="1.97189">
        <ele>123</ele>
        <time>2019-02-21T10:29:20Z</time>
      </trkpt>
      <trkpt lat="48.60372" lon="1.97182">
        <ele>123</ele>
        <time>2019-02-21T10:29:26Z</time>
      </trkpt>
      <trkpt lat="48.60367" lon="1.97176">
        <ele>123</ele>
        <time>2019-02-21T10:29:32Z</time>
      </trkpt>
      <trkpt lat="48.60361" lon="1.97169">
        <ele>123</ele>
        <time>2019-02-21T10:29:36Z</time>
      </trkpt>
      <trkpt lat="48.60355" lon="1.9716">
        <ele>124</ele>
        <time>2019-02-21T10:29:40Z</time>
      </trkpt>
      <trkpt lat="48.60352" lon="1.97154">
        <ele>124</ele>
        <time>2019-02-21T10:29:44Z</time>
      </trkpt>
      <trkpt lat="48.60348" lon="1.9715">
        <ele>124</ele>
        <time>2019-02-21T10:29:50Z</time>
      </trkpt>
      <trkpt lat="48.60344" lon="1.97145">
        <ele>124</ele>
        <time>2019-02-21T10:29:56Z</time>
      </trkpt>
      <trkpt lat="48.6034" lon="1.97142">
        <ele>124</ele>
        <time>2019-02-21T10:30:00Z</time>
      </trkpt>
      <trkpt lat="48.60335" lon="1.97135">
        <ele>125</ele>
        <time>2019-02-21T10:30:08Z</time>
      </trkpt>
      <trkpt lat="48.60332" lon="1.97129">
        <ele>125</ele>
        <time>2019-02-21T10:30:12Z</time>
      </trkpt>
      <trkpt lat="48.60329" lon="1.97123">
        <ele>125</ele>
        <time>2019-02-21T10:30:16Z</time>
      </trkpt>
      <trkpt lat="48.60324" lon="1.97113">
        <ele>125</ele>
        <time>2019-02-21T10:30:24Z</time>
      </trkpt>
      <trkpt lat="48.60322" lon="1.97102">
        <ele>125</ele>
        <time>2019-02-21T10:30:28Z</time>
      </trkpt>
      <trkpt lat="48.60319" lon="1.97093">
        <ele>125</ele>
        <time>2019-02-21T10:30:32Z</time>
      </trkpt>
      <trkpt lat="48.60318" lon="1.97085">
        <ele>125</ele>
        <time>2019-02-21T10:30:36Z</time>
      </trkpt>
      <trkpt lat="48.60315" lon="1.97079">
        <ele>125</ele>
        <time>2019-02-21T10:30:42Z</time>
      </trkpt>
      <trkpt lat="48.60313" lon="1.97069">
        <ele>126</ele>
        <time>2019-02-21T10:30:50Z</time>
      </trkpt>
      <trkpt lat="48.6031" lon="1.97061">
        <ele>126</ele>
        <time>2019-02-21T10:30:54Z</time>
      </trkpt>
      <trkpt lat="48.60308" lon="1.97054">
        <ele>126</ele>
        <time>2019-02-21T10:30:58Z</time>
      </trkpt>
      <trkpt lat="48.60306" lon="1.97046">
        <ele>126</ele>
        <time>2019-02-21T10:31:04Z</time>
      </trkpt>
      <trkpt lat="48.60303" lon="1.97038">
        <ele>126</ele>
        <time>2019-02-21T10:31:12Z</time>
      </trkpt>
      <trkpt lat="48.603" lon="1.97032">
        <ele>126</ele>
        <time>2019-02-21T10:31:16Z</time>
      </trkpt>
      <trkpt lat="48.60297" lon="1.97024">
        <ele>126</ele>
        <time>2019-02-21T10:31:22Z</time>
      </trkpt>
      <trkpt lat="48.60286" lon="1.97005">
        <ele>126</ele>
        <time>2019-02-21T10:31:29Z</time>
      </trkpt>
      <trkpt lat="48.60285" lon="1.96995">
        <ele>128</ele>
        <time>2019-02-21T10:31:34Z</time>
      </trkpt>
      <trkpt lat="48.60281" lon="1.96981">
        <ele>128</ele>
        <time>2019-02-21T10:31:38Z</time>
      </trkpt>
      <trkpt lat="48.60278" lon="1.96975">
        <ele>128</ele>
        <time>2019-02-21T10:31:40Z</time>
      </trkpt>
      <trkpt lat="48.60275" lon="1.96966">
        <ele>128</ele>
        <time>2019-02-21T10:31:44Z</time>
      </trkpt>
      <trkpt lat="48.60272" lon="1.96955">
        <ele>128</ele>
        <time>2019-02-21T10:31:50Z</time>
      </trkpt>
      <trkpt lat="48.60269" lon="1.96947">
        <ele>128</ele>
        <time>2019-02-21T10:31:54Z</time>
      </trkpt>
      <trkpt lat="48.60266" lon="1.9694">
        <ele>128</ele>
        <time>2019-02-21T10:31:58Z</time>
      </trkpt>
      <trkpt lat="48.60263" lon="1.96931">
        <ele>128</ele>
        <time>2019-02-21T10:32:02Z</time>
      </trkpt>
      <trkpt lat="48.60261" lon="1.96922">
        <ele>128</ele>
        <time>2019-02-21T10:32:08Z</time>
      </trkpt>
      <trkpt lat="48.60259" lon="1.9691">
        <ele>129</ele>
        <time>2019-02-21T10:32:14Z</time>
      </trkpt>
      <trkpt lat="48.60256" lon="1.96903">
        <ele>130</ele>
        <time>2019-02-21T10:32:16Z</time>
      </trkpt>
      <trkpt lat="48.60252" lon="1.96892">
        <ele>131</ele>
        <time>2019-02-21T10:32:20Z</time>
      </trkpt>
      <trkpt lat="48.6025" lon="1.96885">
        <ele>129</ele>
        <time>2019-02-21T10:32:24Z</time>
      </trkpt>
      <trkpt lat="48.60248" lon="1.96876">
        <ele>129</ele>
        <time>2019-02-21T10:32:28Z</time>
      </trkpt>
      <trkpt lat="48.60245" lon="1.96866">
        <ele>129</ele>
        <time>2019-02-21T10:32:32Z</time>
      </trkpt>
      <trkpt lat="48.60244" lon="1.96858">
        <ele>129</ele>
        <time>2019-02-21T10:32:38Z</time>
      </trkpt>
      <trkpt lat="48.60242" lon="1.96849">
        <ele>130</ele>
        <time>2019-02-21T10:32:42Z</time>
      </trkpt>
      <trkpt lat="48.60241" lon="1.96839">
        <ele>130</ele>
        <time>2019-02-21T10:32:48Z</time>
      </trkpt>
      <trkpt lat="48.60239" lon="1.96831">
        <ele>131</ele>
        <time>2019-02-21T10:32:52Z</time>
      </trkpt>
      <trkpt lat="48.60238" lon="1.96822">
        <ele>131</ele>
        <time>2019-02-21T10:32:58Z</time>
      </trkpt>
      <trkpt lat="48.60237" lon="1.96812">
        <ele>131</ele>
        <time>2019-02-21T10:33:04Z</time>
      </trkpt>
      <trkpt lat="48.60235" lon="1.96804">
        <ele>132</ele>
        <time>2019-02-21T10:33:08Z</time>
      </trkpt>
      <trkpt lat="48.60231" lon="1.96793">
        <ele>132</ele>
        <time>2019-02-21T10:33:12Z</time>
      </trkpt>
      <trkpt lat="48.60229" lon="1.9678">
        <ele>132</ele>
        <time>2019-02-21T10:33:16Z</time>
      </trkpt>
      <trkpt lat="48.6023" lon="1.96772">
        <ele>133</ele>
        <time>2019-02-21T10:33:20Z</time>
      </trkpt>
      <trkpt lat="48.60232" lon="1.96762">
        <ele>133</ele>
        <time>2019-02-21T10:33:24Z</time>
      </trkpt>
      <trkpt lat="48.60233" lon="1.96754">
        <ele>133</ele>
        <time>2019-02-21T10:33:28Z</time>
      </trkpt>
      <trkpt lat="48.60234" lon="1.96745">
        <ele>134</ele>
        <time>2019-02-21T10:33:32Z</time>
      </trkpt>
      <trkpt lat="48.60233" lon="1.96735">
        <ele>134</ele>
        <time>2019-02-21T10:33:36Z</time>
      </trkpt>
      <trkpt lat="48.60233" lon="1.96727">
        <ele>134</ele>
        <time>2019-02-21T10:33:42Z</time>
      </trkpt>
      <trkpt lat="48.60233" lon="1.96718">
        <ele>134</ele>
        <time>2019-02-21T10:33:46Z</time>
      </trkpt>
      <trkpt lat="48.60235" lon="1.96711">
        <ele>134</ele>
        <time>2019-02-21T10:33:50Z</time>
      </trkpt>
      <trkpt lat="48.60235" lon="1.96703">
        <ele>134</ele>
        <time>2019-02-21T10:33:54Z</time>
      </trkpt>
      <trkpt lat="48.60234" lon="1.96696">
        <ele>134</ele>
        <time>2019-02-21T10:33:58Z</time>
      </trkpt>
      <trkpt lat="48.60234" lon="1.96687">
        <ele>134</ele>
        <time>2019-02-21T10:34:02Z</time>
      </trkpt>
      <trkpt lat="48.60232" lon="1.96675">
        <ele>134</ele>
        <time>2019-02-21T10:34:06Z</time>
      </trkpt>
      <trkpt lat="48.60232" lon="1.96661">
        <ele>135</ele>
        <time>2019-02-21T10:34:10Z</time>
      </trkpt>
      <trkpt lat="48.60231" lon="1.96649">
        <ele>135</ele>
        <time>2019-02-21T10:34:14Z</time>
      </trkpt>
      <trkpt lat="48.60231" lon="1.96635">
        <ele>135</ele>
        <time>2019-02-21T10:34:18Z</time>
      </trkpt>
      <trkpt lat="48.60231" lon="1.96628">
        <ele>135</ele>
        <time>2019-02-21T10:34:20Z</time>
      </trkpt>
      <trkpt lat="48.60229" lon="1.96618">
        <ele>135</ele>
        <time>2019-02-21T10:34:22Z</time>
      </trkpt>
      <trkpt lat="48.60228" lon="1.96606">
        <ele>135</ele>
        <time>2019-02-21T10:34:26Z</time>
      </trkpt>
      <trkpt lat="48.60227" lon="1.96595">
        <ele>135</ele>
        <time>2019-02-21T10:34:30Z</time>
      </trkpt>
      <trkpt lat="48.60226" lon="1.96586">
        <ele>135</ele>
        <time>2019-02-21T10:34:32Z</time>
      </trkpt>
      <trkpt lat="48.60226" lon="1.96573">
        <ele>136</ele>
        <time>2019-02-21T10:34:36Z</time>
      </trkpt>
      <trkpt lat="48.60225" lon="1.96566">
        <ele>136</ele>
        <time>2019-02-21T10:34:38Z</time>
      </trkpt>
      <trkpt lat="48.60223" lon="1.9656">
        <ele>136</ele>
        <time>2019-02-21T10:34:40Z</time>
      </trkpt>
      <trkpt lat="48.60221" lon="1.96546">
        <ele>137</ele>
        <time>2019-02-21T10:34:44Z</time>
      </trkpt>
      <trkpt lat="48.60218" lon="1.96535">
        <ele>137</ele>
        <time>2019-02-21T10:34:48Z</time>
      </trkpt>
      <trkpt lat="48.60218" lon="1.96524">
        <ele>137</ele>
        <time>2019-02-21T10:34:52Z</time>
      </trkpt>
      <trkpt lat="48.60216" lon="1.96512">
        <ele>137</ele>
        <time>2019-02-21T10:34:56Z</time>
      </trkpt>
      <trkpt lat="48.60215" lon="1.96505">
        <ele>137</ele>
        <time>2019-02-21T10:34:58Z</time>
      </trkpt>
      <trkpt lat="48.60213" lon="1.96497">
        <ele>138</ele>
        <time>2019-02-21T10:35:00Z</time>
      </trkpt>
      <trkpt lat="48.60211" lon="1.9649">
        <ele>138</ele>
        <time>2019-02-21T10:35:02Z</time>
      </trkpt>
      <trkpt lat="48.60209" lon="1.96482">
        <ele>138</ele>
        <time>2019-02-21T10:35:04Z</time>
      </trkpt>
      <trkpt lat="48.60207" lon="1.96474">
        <ele>138</ele>
        <time>2019-02-21T10:35:08Z</time>
      </trkpt>
      <trkpt lat="48.60206" lon="1.96467">
        <ele>139</ele>
        <time>2019-02-21T10:35:10Z</time>
      </trkpt>
      <trkpt lat="48.60205" lon="1.9646">
        <ele>139</ele>
        <time>2019-02-21T10:35:12Z</time>
      </trkpt>
      <trkpt lat="48.60204" lon="1.96449">
        <ele>139</ele>
        <time>2019-02-21T10:35:16Z</time>
      </trkpt>
      <trkpt lat="48.60205" lon="1.9644">
        <ele>139</ele>
        <time>2019-02-21T10:35:20Z</time>
      </trkpt>
      <trkpt lat="48.60204" lon="1.96431">
        <ele>139</ele>
        <time>2019-02-21T10:35:24Z</time>
      </trkpt>
      <trkpt lat="48.60201" lon="1.96424">
        <ele>139</ele>
        <time>2019-02-21T10:35:28Z</time>
      </trkpt>
      <trkpt lat="48.60199" lon="1.96415">
        <ele>140</ele>
        <time>2019-02-21T10:35:32Z</time>
      </trkpt>
      <trkpt lat="48.60194" lon="1.96405">
        <ele>140</ele>
        <time>2019-02-21T10:35:36Z</time>
      </trkpt>
      <trkpt lat="48.60191" lon="1.96393">
        <ele>140</ele>
        <time>2019-02-21T10:35:40Z</time>
      </trkpt>
      <trkpt lat="48.60189" lon="1.96383">
        <ele>140</ele>
        <time>2019-02-21T10:35:44Z</time>
      </trkpt>
      <trkpt lat="48.60188" lon="1.96377">
        <ele>140</ele>
        <time>2019-02-21T10:35:46Z</time>
      </trkpt>
      <trkpt lat="48.60187" lon="1.96369">
        <ele>140</ele>
        <time>2019-02-21T10:35:50Z</time>
      </trkpt>
      <trkpt lat="48.60186" lon="1.96361">
        <ele>140</ele>
        <time>2019-02-21T10:35:54Z</time>
      </trkpt>
      <trkpt lat="48.60185" lon="1.96354">
        <ele>140</ele>
        <time>2019-02-21T10:35:56Z</time>
      </trkpt>
      <trkpt lat="48.60183" lon="1.96346">
        <ele>140</ele>
        <time>2019-02-21T10:36:00Z</time>
      </trkpt>
      <trkpt lat="48.60181" lon="1.96335">
        <ele>140</ele>
        <time>2019-02-21T10:36:04Z</time>
      </trkpt>
      <trkpt lat="48.60177" lon="1.96324">
        <ele>140</ele>
        <time>2019-02-21T10:36:08Z</time>
      </trkpt>
      <trkpt lat="48.60175" lon="1.96318">
        <ele>140</ele>
        <time>2019-02-21T10:36:10Z</time>
      </trkpt>
      <trkpt lat="48.60173" lon="1.96311">
        <ele>140</ele>
        <time>2019-02-21T10:36:12Z</time>
      </trkpt>
      <trkpt lat="48.60169" lon="1.96303">
        <ele>140</ele>
        <time>2019-02-21T10:36:16Z</time>
      </trkpt>
      <trkpt lat="48.60166" lon="1.96297">
        <ele>140</ele>
        <time>2019-02-21T10:36:18Z</time>
      </trkpt>
      <trkpt lat="48.60162" lon="1.96287">
        <ele>140</ele>
        <time>2019-02-21T10:36:22Z</time>
      </trkpt>
      <trkpt lat="48.60157" lon="1.96274">
        <ele>140</ele>
        <time>2019-02-21T10:36:26Z</time>
      </trkpt>
      <trkpt lat="48.60154" lon="1.96264">
        <ele>140</ele>
        <time>2019-02-21T10:36:28Z</time>
      </trkpt>
      <trkpt lat="48.60152" lon="1.96255">
        <ele>139</ele>
        <time>2019-02-21T10:36:30Z</time>
      </trkpt>
      <trkpt lat="48.60148" lon="1.96248">
        <ele>140</ele>
        <time>2019-02-21T10:36:34Z</time>
      </trkpt>
      <trkpt lat="48.60149" lon="1.96237">
        <ele>140</ele>
        <time>2019-02-21T10:36:40Z</time>
      </trkpt>
      <trkpt lat="48.60149" lon="1.96227">
        <ele>141</ele>
        <time>2019-02-21T10:36:44Z</time>
      </trkpt>
      <trkpt lat="48.60151" lon="1.96217">
        <ele>141</ele>
        <time>2019-02-21T10:36:48Z</time>
      </trkpt>
      <trkpt lat="48.60154" lon="1.96209">
        <ele>141</ele>
        <time>2019-02-21T10:36:52Z</time>
      </trkpt>
      <trkpt lat="48.60158" lon="1.96203">
        <ele>140</ele>
        <time>2019-02-21T10:36:56Z</time>
      </trkpt>
      <trkpt lat="48.60158" lon="1.96195">
        <ele>140</ele>
        <time>2019-02-21T10:37:00Z</time>
      </trkpt>
      <trkpt lat="48.60159" lon="1.96184">
        <ele>139</ele>
        <time>2019-02-21T10:37:06Z</time>
      </trkpt>
      <trkpt lat="48.60159" lon="1.96173">
        <ele>138</ele>
        <time>2019-02-21T10:37:10Z</time>
      </trkpt>
      <trkpt lat="48.60159" lon="1.96164">
        <ele>137</ele>
        <time>2019-02-21T10:37:14Z</time>
      </trkpt>
      <trkpt lat="48.60159" lon="1.96154">
        <ele>138</ele>
        <time>2019-02-21T10:37:18Z</time>
      </trkpt>
      <trkpt lat="48.60157" lon="1.96146">
        <ele>139</ele>
        <time>2019-02-21T10:37:22Z</time>
      </trkpt>
      <trkpt lat="48.60157" lon="1.96137">
        <ele>139</ele>
        <time>2019-02-21T10:37:26Z</time>
      </trkpt>
      <trkpt lat="48.60155" lon="1.96126">
        <ele>139</ele>
        <time>2019-02-21T10:37:30Z</time>
      </trkpt>
      <trkpt lat="48.60153" lon="1.96119">
        <ele>139</ele>
        <time>2019-02-21T10:37:34Z</time>
      </trkpt>
      <trkpt lat="48.6015" lon="1.96109">
        <ele>139</ele>
        <time>2019-02-21T10:37:38Z</time>
      </trkpt>
      <trkpt lat="48.60149" lon="1.96102">
        <ele>138</ele>
        <time>2019-02-21T10:37:42Z</time>
      </trkpt>
      <trkpt lat="48.60145" lon="1.96089">
        <ele>138</ele>
        <time>2019-02-21T10:37:46Z</time>
      </trkpt>
      <trkpt lat="48.60143" lon="1.96082">
        <ele>135</ele>
        <time>2019-02-21T10:37:52Z</time>
      </trkpt>
      <trkpt lat="48.60142" lon="1.96075">
        <ele>135</ele>
        <time>2019-02-21T10:38:28Z</time>
      </trkpt>
      <trkpt lat="48.60145" lon="1.96069">
        <ele>135</ele>
        <time>2019-02-21T10:38:56Z</time>
      </trkpt>
      <trkpt lat="48.60149" lon="1.96072">
        <ele>135</ele>
        <time>2019-02-21T10:39:50Z</time>
      </trkpt>
      <trkpt lat="48.60144" lon="1.96071">
        <ele>135</ele>
        <time>2019-02-21T10:40:00Z</time>
      </trkpt>
      <trkpt lat="48.60141" lon="1.96067">
        <ele>135</ele>
        <time>2019-02-21T10:40:28Z</time>
      </trkpt>
      <trkpt lat="48.60146" lon="1.96066">
        <ele>135</ele>
        <time>2019-02-21T10:42:38Z</time>
      </trkpt>
      <trkpt lat="48.60141" lon="1.96063">
        <ele>135</ele>
        <time>2019-02-21T10:43:38Z</time>
      </trkpt>
      <trkpt lat="48.60143" lon="1.96055">
        <ele>135</ele>
        <time>2019-02-21T10:44:46Z</time>
      </trkpt>
      <trkpt lat="48.60142" lon="1.96047">
        <ele>135</ele>
        <time>2019-02-21T10:44:54Z</time>
      </trkpt>
      <trkpt lat="48.60142" lon="1.96037">
        <ele>134</ele>
        <time>2019-02-21T10:45:02Z</time>
      </trkpt>
      <trkpt lat="48.60141" lon="1.96029">
        <ele>134</ele>
        <time>2019-02-21T10:45:06Z</time>
      </trkpt>
      <trkpt lat="48.60139" lon="1.9602">
        <ele>133</ele>
        <time>2019-02-21T10:45:08Z</time>
      </trkpt>
      <trkpt lat="48.60137" lon="1.96009">
        <ele>133</ele>
        <time>2019-02-21T10:45:12Z</time>
      </trkpt>
      <trkpt lat="48.60135" lon="1.96003">
        <ele>133</ele>
        <time>2019-02-21T10:45:14Z</time>
      </trkpt>
      <trkpt lat="48.60133" lon="1.95992">
        <ele>129</ele>
        <time>2019-02-21T10:45:18Z</time>
      </trkpt>
      <trkpt lat="48.60132" lon="1.95985">
        <ele>129</ele>
        <time>2019-02-21T10:45:22Z</time>
      </trkpt>
      <trkpt lat="48.6013" lon="1.95974">
        <ele>128</ele>
        <time>2019-02-21T10:45:26Z</time>
      </trkpt>
      <trkpt lat="48.60127" lon="1.95962">
        <ele>128</ele>
        <time>2019-02-21T10:45:30Z</time>
      </trkpt>
      <trkpt lat="48.60125" lon="1.95951">
        <ele>128</ele>
        <time>2019-02-21T10:45:34Z</time>
      </trkpt>
      <trkpt lat="48.60123" lon="1.95942">
        <ele>127</ele>
        <time>2019-02-21T10:45:38Z</time>
      </trkpt>
      <trkpt lat="48.6012" lon="1.95933">
        <ele>127</ele>
        <time>2019-02-21T10:45:42Z</time>
      </trkpt>
      <trkpt lat="48.60119" lon="1.95924">
        <ele>127</ele>
        <time>2019-02-21T10:45:48Z</time>
      </trkpt>
      <trkpt lat="48.60116" lon="1.95917">
        <ele>127</ele>
        <time>2019-02-21T10:45:52Z</time>
      </trkpt>
      <trkpt lat="48.60111" lon="1.95912">
        <ele>124</ele>
        <time>2019-02-21T10:45:56Z</time>
      </trkpt>
      <trkpt lat="48.60106" lon="1.95905">
        <ele>124</ele>
        <time>2019-02-21T10:46:00Z</time>
      </trkpt>
      <trkpt lat="48.60102" lon="1.95898">
        <ele>124</ele>
        <time>2019-02-21T10:46:04Z</time>
      </trkpt>
      <trkpt lat="48.60098" lon="1.95889">
        <ele>124</ele>
        <time>2019-02-21T10:46:08Z</time>
      </trkpt>
      <trkpt lat="48.60095" lon="1.95884">
        <ele>123</ele>
        <time>2019-02-21T10:46:10Z</time>
      </trkpt>
      <trkpt lat="48.60089" lon="1.95876">
        <ele>123</ele>
        <time>2019-02-21T10:46:14Z</time>
      </trkpt>
      <trkpt lat="48.60083" lon="1.9587">
        <ele>128</ele>
        <time>2019-02-21T10:46:18Z</time>
      </trkpt>
      <trkpt lat="48.60077" lon="1.95867">
        <ele>128</ele>
        <time>2019-02-21T10:46:22Z</time>
      </trkpt>
      <trkpt lat="48.60071" lon="1.95861">
        <ele>128</ele>
        <time>2019-02-21T10:46:26Z</time>
      </trkpt>
      <trkpt lat="48.60067" lon="1.95855">
        <ele>128</ele>
        <time>2019-02-21T10:46:30Z</time>
      </trkpt>
      <trkpt lat="48.60062" lon="1.95847">
        <ele>128</ele>
        <time>2019-02-21T10:46:36Z</time>
      </trkpt>
      <trkpt lat="48.60058" lon="1.95841">
        <ele>128</ele>
        <time>2019-02-21T10:46:40Z</time>
      </trkpt>
      <trkpt lat="48.60053" lon="1.95833">
        <ele>126</ele>
        <time>2019-02-21T10:46:44Z</time>
      </trkpt>
      <trkpt lat="48.60049" lon="1.95826">
        <ele>126</ele>
        <time>2019-02-21T10:46:48Z</time>
      </trkpt>
      <trkpt lat="48.60046" lon="1.95817">
        <ele>126</ele>
        <time>2019-02-21T10:46:52Z</time>
      </trkpt>
      <trkpt lat="48.60041" lon="1.95808">
        <ele>126</ele>
        <time>2019-02-21T10:46:56Z</time>
      </trkpt>
      <trkpt lat="48.60037" lon="1.95799">
        <ele>126</ele>
        <time>2019-02-21T10:47:00Z</time>
      </trkpt>
      <trkpt lat="48.60035" lon="1.95789">
        <ele>126</ele>
        <time>2019-02-21T10:47:04Z</time>
      </trkpt>
      <trkpt lat="48.60032" lon="1.95781">
        <ele>127</ele>
        <time>2019-02-21T10:47:08Z</time>
      </trkpt>
      <trkpt lat="48.60027" lon="1.95771">
        <ele>127</ele>
        <time>2019-02-21T10:47:12Z</time>
      </trkpt>
      <trkpt lat="48.60024" lon="1.95764">
        <ele>127</ele>
        <time>2019-02-21T10:47:14Z</time>
      </trkpt>
      <trkpt lat="48.60021" lon="1.95757">
        <ele>128</ele>
        <time>2019-02-21T10:47:18Z</time>
      </trkpt>
      <trkpt lat="48.60018" lon="1.95748">
        <ele>126</ele>
        <time>2019-02-21T10:47:22Z</time>
      </trkpt>
      <trkpt lat="48.60014" lon="1.95739">
        <ele>126</ele>
        <time>2019-02-21T10:47:26Z</time>
      </trkpt>
      <trkpt lat="48.60011" lon="1.95728">
        <ele>125</ele>
        <time>2019-02-21T10:47:30Z</time>
      </trkpt>
      <trkpt lat="48.60008" lon="1.95722">
        <ele>125</ele>
        <time>2019-02-21T10:47:32Z</time>
      </trkpt>
      <trkpt lat="48.60004" lon="1.95715">
        <ele>125</ele>
        <time>2019-02-21T10:47:36Z</time>
      </trkpt>
      <trkpt lat="48.60001" lon="1.95708">
        <ele>124</ele>
        <time>2019-02-21T10:47:40Z</time>
      </trkpt>
      <trkpt lat="48.59995" lon="1.957">
        <ele>128</ele>
        <time>2019-02-21T10:47:46Z</time>
      </trkpt>
      <trkpt lat="48.5999" lon="1.95696">
        <ele>128</ele>
        <time>2019-02-21T10:47:50Z</time>
      </trkpt>
      <trkpt lat="48.59984" lon="1.95691">
        <ele>128</ele>
        <time>2019-02-21T10:47:54Z</time>
      </trkpt>
      <trkpt lat="48.59979" lon="1.95689">
        <ele>128</ele>
        <time>2019-02-21T10:47:58Z</time>
      </trkpt>
      <trkpt lat="48.59973" lon="1.95686">
        <ele>128</ele>
        <time>2019-02-21T10:48:02Z</time>
      </trkpt>
      <trkpt lat="48.59968" lon="1.95685">
        <ele>128</ele>
        <time>2019-02-21T10:48:06Z</time>
      </trkpt>
      <trkpt lat="48.59962" lon="1.95684">
        <ele>128</ele>
        <time>2019-02-21T10:48:10Z</time>
      </trkpt>
      <trkpt lat="48.59957" lon="1.95683">
        <ele>128</ele>
        <time>2019-02-21T10:48:14Z</time>
      </trkpt>
      <trkpt lat="48.59951" lon="1.95681">
        <ele>128</ele>
        <time>2019-02-21T10:48:18Z</time>
      </trkpt>
      <trkpt lat="48.59943" lon="1.95678">
        <ele>128</ele>
        <time>2019-02-21T10:48:22Z</time>
      </trkpt>
      <trkpt lat="48.59938" lon="1.95677">
        <ele>128</ele>
        <time>2019-02-21T10:48:26Z</time>
      </trkpt>
      <trkpt lat="48.5993" lon="1.95679">
        <ele>128</ele>
        <time>2019-02-21T10:48:30Z</time>
      </trkpt>
      <trkpt lat="48.59925" lon="1.9568">
        <ele>128</ele>
        <time>2019-02-21T10:48:34Z</time>
      </trkpt>
      <trkpt lat="48.59918" lon="1.9568">
        <ele>128</ele>
        <time>2019-02-21T10:48:38Z</time>
      </trkpt>
      <trkpt lat="48.5991" lon="1.95686">
        <ele>128</ele>
        <time>2019-02-21T10:48:42Z</time>
      </trkpt>
      <trkpt lat="48.59902" lon="1.95684">
        <ele>128</ele>
        <time>2019-02-21T10:48:46Z</time>
      </trkpt>
      <trkpt lat="48.59898" lon="1.95682">
        <ele>128</ele>
        <time>2019-02-21T10:48:48Z</time>
      </trkpt>
      <trkpt lat="48.59892" lon="1.95684">
        <ele>128</ele>
        <time>2019-02-21T10:48:52Z</time>
      </trkpt>
      <trkpt lat="48.59887" lon="1.95682">
        <ele>128</ele>
        <time>2019-02-21T10:48:56Z</time>
      </trkpt>
      <trkpt lat="48.5988" lon="1.95681">
        <ele>128</ele>
        <time>2019-02-21T10:49:00Z</time>
      </trkpt>
      <trkpt lat="48.59873" lon="1.95681">
        <ele>128</ele>
        <time>2019-02-21T10:49:04Z</time>
      </trkpt>
      <trkpt lat="48.59869" lon="1.95678">
        <ele>128</ele>
        <time>2019-02-21T10:49:08Z</time>
      </trkpt>
      <trkpt lat="48.59863" lon="1.95679">
        <ele>127</ele>
        <time>2019-02-21T10:49:12Z</time>
      </trkpt>
      <trkpt lat="48.59858" lon="1.95677">
        <ele>127</ele>
        <time>2019-02-21T10:49:16Z</time>
      </trkpt>
      <trkpt lat="48.59854" lon="1.9568">
        <ele>127</ele>
        <time>2019-02-21T10:49:18Z</time>
      </trkpt>
      <trkpt lat="48.59846" lon="1.95685">
        <ele>127</ele>
        <time>2019-02-21T10:49:22Z</time>
      </trkpt>
      <trkpt lat="48.59838" lon="1.95685">
        <ele>127</ele>
        <time>2019-02-21T10:49:28Z</time>
      </trkpt>
      <trkpt lat="48.59833" lon="1.95686">
        <ele>126</ele>
        <time>2019-02-21T10:49:30Z</time>
      </trkpt>
      <trkpt lat="48.59826" lon="1.95689">
        <ele>126</ele>
        <time>2019-02-21T10:49:34Z</time>
      </trkpt>
      <trkpt lat="48.5982" lon="1.9569">
        <ele>126</ele>
        <time>2019-02-21T10:49:38Z</time>
      </trkpt>
      <trkpt lat="48.59814" lon="1.95691">
        <ele>126</ele>
        <time>2019-02-21T10:49:42Z</time>
      </trkpt>
      <trkpt lat="48.59806" lon="1.95695">
        <ele>126</ele>
        <time>2019-02-21T10:49:46Z</time>
      </trkpt>
      <trkpt lat="48.598" lon="1.95696">
        <ele>126</ele>
        <time>2019-02-21T10:49:48Z</time>
      </trkpt>
      <trkpt lat="48.59793" lon="1.95695">
        <ele>126</ele>
        <time>2019-02-21T10:49:54Z</time>
      </trkpt>
      <trkpt lat="48.59787" lon="1.95693">
        <ele>126</ele>
        <time>2019-02-21T10:49:58Z</time>
      </trkpt>
      <trkpt lat="48.5978" lon="1.95689">
        <ele>126</ele>
        <time>2019-02-21T10:50:02Z</time>
      </trkpt>
      <trkpt lat="48.59773" lon="1.95687">
        <ele>126</ele>
        <time>2019-02-21T10:50:06Z</time>
      </trkpt>
      <trkpt lat="48.59766" lon="1.95685">
        <ele>125</ele>
        <time>2019-02-21T10:50:10Z</time>
      </trkpt>
      <trkpt lat="48.5976" lon="1.95683">
        <ele>125</ele>
        <time>2019-02-21T10:50:14Z</time>
      </trkpt>
      <trkpt lat="48.59756" lon="1.9568">
        <ele>125</ele>
        <time>2019-02-21T10:50:16Z</time>
      </trkpt>
      <trkpt lat="48.59752" lon="1.95676">
        <ele>125</ele>
        <time>2019-02-21T10:50:18Z</time>
      </trkpt>
      <trkpt lat="48.59745" lon="1.95672">
        <ele>125</ele>
        <time>2019-02-21T10:50:22Z</time>
      </trkpt>
      <trkpt lat="48.5974" lon="1.95672">
        <ele>125</ele>
        <time>2019-02-21T10:50:26Z</time>
      </trkpt>
      <trkpt lat="48.59734" lon="1.95672">
        <ele>125</ele>
        <time>2019-02-21T10:50:30Z</time>
      </trkpt>
      <trkpt lat="48.59729" lon="1.95671">
        <ele>125</ele>
        <time>2019-02-21T10:50:34Z</time>
      </trkpt>
      <trkpt lat="48.59723" lon="1.95669">
        <ele>124</ele>
        <time>2019-02-21T10:50:38Z</time>
      </trkpt>
      <trkpt lat="48.59718" lon="1.95668">
        <ele>124</ele>
        <time>2019-02-21T10:50:42Z</time>
      </trkpt>
      <trkpt lat="48.59713" lon="1.95666">
        <ele>123</ele>
        <time>2019-02-21T10:50:46Z</time>
      </trkpt>
      <trkpt lat="48.59707" lon="1.95665">
        <ele>123</ele>
        <time>2019-02-21T10:50:50Z</time>
      </trkpt>
      <trkpt lat="48.59702" lon="1.95664">
        <ele>123</ele>
        <time>2019-02-21T10:50:54Z</time>
      </trkpt>
      <trkpt lat="48.59698" lon="1.95663">
        <ele>123</ele>
        <time>2019-02-21T10:50:58Z</time>
      </trkpt>
      <trkpt lat="48.59692" lon="1.9566">
        <ele>123</ele>
        <time>2019-02-21T10:51:02Z</time>
      </trkpt>
      <trkpt lat="48.59685" lon="1.95658">
        <ele>123</ele>
        <time>2019-02-21T10:51:06Z</time>
      </trkpt>
      <trkpt lat="48.59679" lon="1.95658">
        <ele>123</ele>
        <time>2019-02-21T10:51:10Z</time>
      </trkpt>
      <trkpt lat="48.59675" lon="1.95656">
        <ele>123</ele>
        <time>2019-02-21T10:51:12Z</time>
      </trkpt>
      <trkpt lat="48.59667" lon="1.95653">
        <ele>123</ele>
        <time>2019-02-21T10:51:16Z</time>
      </trkpt>
      <trkpt lat="48.59659" lon="1.95651">
        <ele>122</ele>
        <time>2019-02-21T10:51:20Z</time>
      </trkpt>
      <trkpt lat="48.5965" lon="1.9565">
        <ele>122</ele>
        <time>2019-02-21T10:51:24Z</time>
      </trkpt>
      <trkpt lat="48.59646" lon="1.95647">
        <ele>122</ele>
        <time>2019-02-21T10:51:26Z</time>
      </trkpt>
      <trkpt lat="48.59642" lon="1.95645">
        <ele>122</ele>
        <time>2019-02-21T10:51:28Z</time>
      </trkpt>
      <trkpt lat="48.59633" lon="1.95642">
        <ele>122</ele>
        <time>2019-02-21T10:51:32Z</time>
      </trkpt>
      <trkpt lat="48.59626" lon="1.95642">
        <ele>121</ele>
        <time>2019-02-21T10:51:36Z</time>
      </trkpt>
      <trkpt lat="48.59618" lon="1.95642">
        <ele>121</ele>
        <time>2019-02-21T10:51:40Z</time>
      </trkpt>
      <trkpt lat="48.59612" lon="1.95647">
        <ele>121</ele>
        <time>2019-02-21T10:51:44Z</time>
      </trkpt>
      <trkpt lat="48.59607" lon="1.95647">
        <ele>121</ele>
        <time>2019-02-21T10:51:48Z</time>
      </trkpt>
      <trkpt lat="48.596" lon="1.95651">
        <ele>121</ele>
        <time>2019-02-21T10:51:52Z</time>
      </trkpt>
      <trkpt lat="48.59594" lon="1.95652">
        <ele>121</ele>
        <time>2019-02-21T10:51:56Z</time>
      </trkpt>
      <trkpt lat="48.59586" lon="1.95652">
        <ele>121</ele>
        <time>2019-02-21T10:52:00Z</time>
      </trkpt>
      <trkpt lat="48.59581" lon="1.95649">
        <ele>120</ele>
        <time>2019-02-21T10:52:04Z</time>
      </trkpt>
      <trkpt lat="48.59575" lon="1.95647">
        <ele>120</ele>
        <time>2019-02-21T10:52:08Z</time>
      </trkpt>
      <trkpt lat="48.5957" lon="1.95645">
        <ele>120</ele>
        <time>2019-02-21T10:52:12Z</time>
      </trkpt>
      <trkpt lat="48.59565" lon="1.95642">
        <ele>120</ele>
        <time>2019-02-21T10:52:16Z</time>
      </trkpt>
      <trkpt lat="48.59559" lon="1.95635">
        <ele>120</ele>
        <time>2019-02-21T10:52:20Z</time>
      </trkpt>
      <trkpt lat="48.59552" lon="1.95628">
        <ele>120</ele>
        <time>2019-02-21T10:52:24Z</time>
      </trkpt>
      <trkpt lat="48.59546" lon="1.95624">
        <ele>120</ele>
        <time>2019-02-21T10:52:28Z</time>
      </trkpt>
      <trkpt lat="48.5954" lon="1.9562">
        <ele>120</ele>
        <time>2019-02-21T10:52:32Z</time>
      </trkpt>
      <trkpt lat="48.59534" lon="1.95616">
        <ele>120</ele>
        <time>2019-02-21T10:52:36Z</time>
      </trkpt>
      <trkpt lat="48.5953" lon="1.95613">
        <ele>120</ele>
        <time>2019-02-21T10:52:42Z</time>
      </trkpt>
      <trkpt lat="48.59525" lon="1.95608">
        <ele>120</ele>
        <time>2019-02-21T10:52:48Z</time>
      </trkpt>
      <trkpt lat="48.59521" lon="1.95603">
        <ele>120</ele>
        <time>2019-02-21T10:52:54Z</time>
      </trkpt>
      <trkpt lat="48.59519" lon="1.95595">
        <ele>120</ele>
        <time>2019-02-21T10:54:00Z</time>
      </trkpt>
      <trkpt lat="48.59514" lon="1.95589">
        <ele>120</ele>
        <time>2019-02-21T10:54:06Z</time>
      </trkpt>
      <trkpt lat="48.5951" lon="1.95586">
        <ele>121</ele>
        <time>2019-02-21T10:54:10Z</time>
      </trkpt>
      <trkpt lat="48.59503" lon="1.95582">
        <ele>121</ele>
        <time>2019-02-21T10:54:16Z</time>
      </trkpt>
      <trkpt lat="48.59499" lon="1.95578">
        <ele>122</ele>
        <time>2019-02-21T10:54:20Z</time>
      </trkpt>
      <trkpt lat="48.59493" lon="1.95576">
        <ele>122</ele>
        <time>2019-02-21T10:54:24Z</time>
      </trkpt>
      <trkpt lat="48.59488" lon="1.9557">
        <ele>122</ele>
        <time>2019-02-21T10:54:28Z</time>
      </trkpt>
      <trkpt lat="48.59484" lon="1.95565">
        <ele>123</ele>
        <time>2019-02-21T10:54:32Z</time>
      </trkpt>
      <trkpt lat="48.59479" lon="1.9556">
        <ele>123</ele>
        <time>2019-02-21T10:54:36Z</time>
      </trkpt>
      <trkpt lat="48.59472" lon="1.95557">
        <ele>123</ele>
        <time>2019-02-21T10:54:40Z</time>
      </trkpt>
      <trkpt lat="48.59466" lon="1.95556">
        <ele>123</ele>
        <time>2019-02-21T10:54:44Z</time>
      </trkpt>
      <trkpt lat="48.59459" lon="1.95551">
        <ele>123</ele>
        <time>2019-02-21T10:54:48Z</time>
      </trkpt>
      <trkpt lat="48.59452" lon="1.95545">
        <ele>123</ele>
        <time>2019-02-21T10:54:52Z</time>
      </trkpt>
      <trkpt lat="48.59448" lon="1.9554">
        <ele>124</ele>
        <time>2019-02-21T10:54:54Z</time>
      </trkpt>
      <trkpt lat="48.59445" lon="1.95535">
        <ele>124</ele>
        <time>2019-02-21T10:54:56Z</time>
      </trkpt>
      <trkpt lat="48.5944" lon="1.95524">
        <ele>124</ele>
        <time>2019-02-21T10:54:58Z</time>
      </trkpt>
      <trkpt lat="48.59436" lon="1.95515">
        <ele>124</ele>
        <time>2019-02-21T10:55:02Z</time>
      </trkpt>
      <trkpt lat="48.59432" lon="1.95511">
        <ele>124</ele>
        <time>2019-02-21T10:55:06Z</time>
      </trkpt>
      <trkpt lat="48.59427" lon="1.95508">
        <ele>124</ele>
        <time>2019-02-21T10:55:10Z</time>
      </trkpt>
      <trkpt lat="48.59422" lon="1.95504">
        <ele>125</ele>
        <time>2019-02-21T10:55:14Z</time>
      </trkpt>
      <trkpt lat="48.59415" lon="1.95498">
        <ele>125</ele>
        <time>2019-02-21T10:55:18Z</time>
      </trkpt>
      <trkpt lat="48.59412" lon="1.95493">
        <ele>125</ele>
        <time>2019-02-21T10:55:20Z</time>
      </trkpt>
      <trkpt lat="48.59407" lon="1.95487">
        <ele>125</ele>
        <time>2019-02-21T10:55:22Z</time>
      </trkpt>
      <trkpt lat="48.59401" lon="1.95482">
        <ele>125</ele>
        <time>2019-02-21T10:55:26Z</time>
      </trkpt>
      <trkpt lat="48.59396" lon="1.95478">
        <ele>125</ele>
        <time>2019-02-21T10:55:30Z</time>
      </trkpt>
      <trkpt lat="48.5939" lon="1.95476">
        <ele>125</ele>
        <time>2019-02-21T10:55:36Z</time>
      </trkpt>
      <trkpt lat="48.59385" lon="1.95473">
        <ele>125</ele>
        <time>2019-02-21T10:55:40Z</time>
      </trkpt>
      <trkpt lat="48.59381" lon="1.95471">
        <ele>126</ele>
        <time>2019-02-21T10:55:44Z</time>
      </trkpt>
      <trkpt lat="48.59374" lon="1.95467">
        <ele>126</ele>
        <time>2019-02-21T10:55:48Z</time>
      </trkpt>
      <trkpt lat="48.59368" lon="1.9546">
        <ele>126</ele>
        <time>2019-02-21T10:55:52Z</time>
      </trkpt>
      <trkpt lat="48.59364" lon="1.95456">
        <ele>126</ele>
        <time>2019-02-21T10:55:56Z</time>
      </trkpt>
      <trkpt lat="48.59359" lon="1.95449">
        <ele>126</ele>
        <time>2019-02-21T10:56:00Z</time>
      </trkpt>
      <trkpt lat="48.59354" lon="1.95442">
        <ele>126</ele>
        <time>2019-02-21T10:56:04Z</time>
      </trkpt>
      <trkpt lat="48.59349" lon="1.95434">
        <ele>126</ele>
        <time>2019-02-21T10:56:08Z</time>
      </trkpt>
      <trkpt lat="48.59343" lon="1.95426">
        <ele>126</ele>
        <time>2019-02-21T10:56:12Z</time>
      </trkpt>
      <trkpt lat="48.59337" lon="1.95421">
        <ele>126</ele>
        <time>2019-02-21T10:56:16Z</time>
      </trkpt>
      <trkpt lat="48.5933" lon="1.95416">
        <ele>126</ele>
        <time>2019-02-21T10:56:20Z</time>
      </trkpt>
      <trkpt lat="48.59324" lon="1.95411">
        <ele>127</ele>
        <time>2019-02-21T10:56:24Z</time>
      </trkpt>
      <trkpt lat="48.59319" lon="1.95408">
        <ele>127</ele>
        <time>2019-02-21T10:56:28Z</time>
      </trkpt>
      <trkpt lat="48.59314" lon="1.95403">
        <ele>127</ele>
        <time>2019-02-21T10:56:32Z</time>
      </trkpt>
      <trkpt lat="48.59309" lon="1.95398">
        <ele>127</ele>
        <time>2019-02-21T10:56:36Z</time>
      </trkpt>
      <trkpt lat="48.59304" lon="1.9539">
        <ele>128</ele>
        <time>2019-02-21T10:56:40Z</time>
      </trkpt>
      <trkpt lat="48.59298" lon="1.95383">
        <ele>128</ele>
        <time>2019-02-21T10:56:44Z</time>
      </trkpt>
      <trkpt lat="48.59294" lon="1.95376">
        <ele>128</ele>
        <time>2019-02-21T10:56:46Z</time>
      </trkpt>
      <trkpt lat="48.59291" lon="1.95371">
        <ele>128</ele>
        <time>2019-02-21T10:56:48Z</time>
      </trkpt>
      <trkpt lat="48.59284" lon="1.95364">
        <ele>128</ele>
        <time>2019-02-21T10:56:52Z</time>
      </trkpt>
      <trkpt lat="48.59277" lon="1.95359">
        <ele>129</ele>
        <time>2019-02-21T10:56:56Z</time>
      </trkpt>
      <trkpt lat="48.5927" lon="1.95353">
        <ele>129</ele>
        <time>2019-02-21T10:57:00Z</time>
      </trkpt>
      <trkpt lat="48.59264" lon="1.95349">
        <ele>129</ele>
        <time>2019-02-21T10:57:04Z</time>
      </trkpt>
      <trkpt lat="48.59261" lon="1.95342">
        <ele>130</ele>
        <time>2019-02-21T10:57:08Z</time>
      </trkpt>
      <trkpt lat="48.59257" lon="1.95337">
        <ele>130</ele>
        <time>2019-02-21T10:57:12Z</time>
      </trkpt>
      <trkpt lat="48.5925" lon="1.95332">
        <ele>131</ele>
        <time>2019-02-21T10:57:18Z</time>
      </trkpt>
      <trkpt lat="48.59245" lon="1.95327">
        <ele>131</ele>
        <time>2019-02-21T10:57:22Z</time>
      </trkpt>
      <trkpt lat="48.59241" lon="1.95318">
        <ele>130</ele>
        <time>2019-02-21T10:57:26Z</time>
      </trkpt>
      <trkpt lat="48.59236" lon="1.95314">
        <ele>130</ele>
        <time>2019-02-21T10:57:30Z</time>
      </trkpt>
      <trkpt lat="48.59231" lon="1.95312">
        <ele>130</ele>
        <time>2019-02-21T10:57:34Z</time>
      </trkpt>
      <trkpt lat="48.59225" lon="1.95309">
        <ele>130</ele>
        <time>2019-02-21T10:57:38Z</time>
      </trkpt>
      <trkpt lat="48.59218" lon="1.95305">
        <ele>130</ele>
        <time>2019-02-21T10:57:44Z</time>
      </trkpt>
      <trkpt lat="48.59212" lon="1.95299">
        <ele>130</ele>
        <time>2019-02-21T10:57:48Z</time>
      </trkpt>
      <trkpt lat="48.59207" lon="1.95293">
        <ele>130</ele>
        <time>2019-02-21T10:57:52Z</time>
      </trkpt>
      <trkpt lat="48.59202" lon="1.9529">
        <ele>130</ele>
        <time>2019-02-21T10:57:56Z</time>
      </trkpt>
      <trkpt lat="48.59197" lon="1.95286">
        <ele>130</ele>
        <time>2019-02-21T10:58:00Z</time>
      </trkpt>
      <trkpt lat="48.5919" lon="1.95283">
        <ele>130</ele>
        <time>2019-02-21T10:58:04Z</time>
      </trkpt>
      <trkpt lat="48.59184" lon="1.95281">
        <ele>130</ele>
        <time>2019-02-21T10:58:08Z</time>
      </trkpt>
      <trkpt lat="48.59179" lon="1.95273">
        <ele>130</ele>
        <time>2019-02-21T10:58:12Z</time>
      </trkpt>
      <trkpt lat="48.59175" lon="1.95268">
        <ele>130</ele>
        <time>2019-02-21T10:58:14Z</time>
      </trkpt>
      <trkpt lat="48.59172" lon="1.9526">
        <ele>130</ele>
        <time>2019-02-21T10:58:16Z</time>
      </trkpt>
      <trkpt lat="48.59166" lon="1.95255">
        <ele>130</ele>
        <time>2019-02-21T10:58:20Z</time>
      </trkpt>
      <trkpt lat="48.59162" lon="1.95251">
        <ele>130</ele>
        <time>2019-02-21T10:58:24Z</time>
      </trkpt>
      <trkpt lat="48.59156" lon="1.95245">
        <ele>130</ele>
        <time>2019-02-21T10:58:28Z</time>
      </trkpt>
      <trkpt lat="48.59152" lon="1.95238">
        <ele>130</ele>
        <time>2019-02-21T10:58:32Z</time>
      </trkpt>
      <trkpt lat="48.59146" lon="1.95234">
        <ele>130</ele>
        <time>2019-02-21T10:58:36Z</time>
      </trkpt>
      <trkpt lat="48.59141" lon="1.95229">
        <ele>130</ele>
        <time>2019-02-21T10:58:40Z</time>
      </trkpt>
      <trkpt lat="48.59135" lon="1.95223">
        <ele>130</ele>
        <time>2019-02-21T10:58:44Z</time>
      </trkpt>
      <trkpt lat="48.59128" lon="1.95215">
        <ele>130</ele>
        <time>2019-02-21T10:58:48Z</time>
      </trkpt>
      <trkpt lat="48.59122" lon="1.95209">
        <ele>129</ele>
        <time>2019-02-21T10:58:52Z</time>
      </trkpt>
      <trkpt lat="48.59116" lon="1.95207">
        <ele>130</ele>
        <time>2019-02-21T10:58:56Z</time>
      </trkpt>
      <trkpt lat="48.59111" lon="1.95201">
        <ele>130</ele>
        <time>2019-02-21T10:59:00Z</time>
      </trkpt>
      <trkpt lat="48.59105" lon="1.95195">
        <ele>130</ele>
        <time>2019-02-21T10:59:04Z</time>
      </trkpt>
      <trkpt lat="48.59098" lon="1.95189">
        <ele>130</ele>
        <time>2019-02-21T10:59:08Z</time>
      </trkpt>
      <trkpt lat="48.59093" lon="1.95182">
        <ele>130</ele>
        <time>2019-02-21T10:59:12Z</time>
      </trkpt>
      <trkpt lat="48.59089" lon="1.95177">
        <ele>130</ele>
        <time>2019-02-21T10:59:14Z</time>
      </trkpt>
      <trkpt lat="48.59084" lon="1.95172">
        <ele>130</ele>
        <time>2019-02-21T10:59:18Z</time>
      </trkpt>
      <trkpt lat="48.59077" lon="1.95166">
        <ele>131</ele>
        <time>2019-02-21T10:59:22Z</time>
      </trkpt>
      <trkpt lat="48.59071" lon="1.9516">
        <ele>131</ele>
        <time>2019-02-21T10:59:26Z</time>
      </trkpt>
      <trkpt lat="48.59065" lon="1.9515">
        <ele>132</ele>
        <time>2019-02-21T10:59:30Z</time>
      </trkpt>
      <trkpt lat="48.59061" lon="1.95144">
        <ele>132</ele>
        <time>2019-02-21T10:59:34Z</time>
      </trkpt>
      <trkpt lat="48.59058" lon="1.95137">
        <ele>132</ele>
        <time>2019-02-21T10:59:46Z</time>
      </trkpt>
      <trkpt lat="48.59055" lon="1.95131">
        <ele>132</ele>
        <time>2019-02-21T10:59:58Z</time>
      </trkpt>
      <trkpt lat="48.59051" lon="1.95128">
        <ele>132</ele>
        <time>2019-02-21T11:01:10Z</time>
      </trkpt>
      <trkpt lat="48.59047" lon="1.95123">
        <ele>132</ele>
        <time>2019-02-21T11:01:16Z</time>
      </trkpt>
      <trkpt lat="48.59041" lon="1.9512">
        <ele>133</ele>
        <time>2019-02-21T11:01:22Z</time>
      </trkpt>
      <trkpt lat="48.59036" lon="1.95115">
        <ele>133</ele>
        <time>2019-02-21T11:01:26Z</time>
      </trkpt>
      <trkpt lat="48.59031" lon="1.95112">
        <ele>133</ele>
        <time>2019-02-21T11:01:30Z</time>
      </trkpt>
      <trkpt lat="48.59027" lon="1.95108">
        <ele>133</ele>
        <time>2019-02-21T11:01:34Z</time>
      </trkpt>
      <trkpt lat="48.59022" lon="1.95103">
        <ele>133</ele>
        <time>2019-02-21T11:01:38Z</time>
      </trkpt>
      <trkpt lat="48.59018" lon="1.95099">
        <ele>133</ele>
        <time>2019-02-21T11:01:42Z</time>
      </trkpt>
      <trkpt lat="48.59013" lon="1.95098">
        <ele>133</ele>
        <time>2019-02-21T11:01:46Z</time>
      </trkpt>
      <trkpt lat="48.59009" lon="1.95096">
        <ele>133</ele>
        <time>2019-02-21T11:01:50Z</time>
      </trkpt>
      <trkpt lat="48.59004" lon="1.95089">
        <ele>134</ele>
        <time>2019-02-21T11:01:54Z</time>
      </trkpt>
      <trkpt lat="48.58998" lon="1.95083">
        <ele>134</ele>
        <time>2019-02-21T11:02:00Z</time>
      </trkpt>
      <trkpt lat="48.58993" lon="1.95078">
        <ele>134</ele>
        <time>2019-02-21T11:02:04Z</time>
      </trkpt>
      <trkpt lat="48.58987" lon="1.95072">
        <ele>135</ele>
        <time>2019-02-21T11:02:10Z</time>
      </trkpt>
      <trkpt lat="48.58982" lon="1.9507">
        <ele>135</ele>
        <time>2019-02-21T11:02:14Z</time>
      </trkpt>
      <trkpt lat="48.58978" lon="1.95062">
        <ele>135</ele>
        <time>2019-02-21T11:02:18Z</time>
      </trkpt>
      <trkpt lat="48.58974" lon="1.95056">
        <ele>135</ele>
        <time>2019-02-21T11:02:22Z</time>
      </trkpt>
      <trkpt lat="48.58971" lon="1.9505">
        <ele>135</ele>
        <time>2019-02-21T11:02:26Z</time>
      </trkpt>
      <trkpt lat="48.58965" lon="1.95044">
        <ele>135</ele>
        <time>2019-02-21T11:02:30Z</time>
      </trkpt>
      <trkpt lat="48.58961" lon="1.95038">
        <ele>136</ele>
        <time>2019-02-21T11:02:36Z</time>
      </trkpt>
      <trkpt lat="48.58956" lon="1.95033">
        <ele>136</ele>
        <time>2019-02-21T11:02:40Z</time>
      </trkpt>
      <trkpt lat="48.5895" lon="1.95028">
        <ele>136</ele>
        <time>2019-02-21T11:02:44Z</time>
      </trkpt>
      <trkpt lat="48.58944" lon="1.95021">
        <ele>136</ele>
        <time>2019-02-21T11:02:48Z</time>
      </trkpt>
      <trkpt lat="48.5894" lon="1.95016">
        <ele>136</ele>
        <time>2019-02-21T11:02:52Z</time>
      </trkpt>
      <trkpt lat="48.58935" lon="1.9501">
        <ele>136</ele>
        <time>2019-02-21T11:02:56Z</time>
      </trkpt>
      <trkpt lat="48.5893" lon="1.95004">
        <ele>136</ele>
        <time>2019-02-21T11:03:00Z</time>
      </trkpt>
      <trkpt lat="48.58924" lon="1.94996">
        <ele>136</ele>
        <time>2019-02-21T11:03:04Z</time>
      </trkpt>
      <trkpt lat="48.58919" lon="1.94987">
        <ele>137</ele>
        <time>2019-02-21T11:03:08Z</time>
      </trkpt>
      <trkpt lat="48.58915" lon="1.94982">
        <ele>137</ele>
        <time>2019-02-21T11:03:10Z</time>
      </trkpt>
      <trkpt lat="48.58909" lon="1.94975">
        <ele>137</ele>
        <time>2019-02-21T11:03:14Z</time>
      </trkpt>
      <trkpt lat="48.58906" lon="1.94968">
        <ele>137</ele>
        <time>2019-02-21T11:03:16Z</time>
      </trkpt>
      <trkpt lat="48.58901" lon="1.94963">
        <ele>137</ele>
        <time>2019-02-21T11:03:20Z</time>
      </trkpt>
      <trkpt lat="48.58894" lon="1.94955">
        <ele>137</ele>
        <time>2019-02-21T11:03:24Z</time>
      </trkpt>
      <trkpt lat="48.58888" lon="1.94948">
        <ele>137</ele>
        <time>2019-02-21T11:03:28Z</time>
      </trkpt>
      <trkpt lat="48.5888" lon="1.94944">
        <ele>137</ele>
        <time>2019-02-21T11:03:32Z</time>
      </trkpt>
      <trkpt lat="48.58874" lon="1.94938">
        <ele>137</ele>
        <time>2019-02-21T11:03:36Z</time>
      </trkpt>
      <trkpt lat="48.58866" lon="1.94931">
        <ele>138</ele>
        <time>2019-02-21T11:03:40Z</time>
      </trkpt>
      <trkpt lat="48.5886" lon="1.94925">
        <ele>138</ele>
        <time>2019-02-21T11:03:44Z</time>
      </trkpt>
      <trkpt lat="48.58853" lon="1.9492">
        <ele>138</ele>
        <time>2019-02-21T11:03:48Z</time>
      </trkpt>
      <trkpt lat="48.58847" lon="1.94916">
        <ele>140</ele>
        <time>2019-02-21T11:03:50Z</time>
      </trkpt>
      <trkpt lat="48.58841" lon="1.94912">
        <ele>140</ele>
        <time>2019-02-21T11:03:54Z</time>
      </trkpt>
      <trkpt lat="48.58836" lon="1.94903">
        <ele>140</ele>
        <time>2019-02-21T11:03:58Z</time>
      </trkpt>
      <trkpt lat="48.5883" lon="1.94897">
        <ele>142</ele>
        <time>2019-02-21T11:04:02Z</time>
      </trkpt>
      <trkpt lat="48.58825" lon="1.9489">
        <ele>143</ele>
        <time>2019-02-21T11:04:06Z</time>
      </trkpt>
      <trkpt lat="48.58821" lon="1.94882">
        <ele>143</ele>
        <time>2019-02-21T11:04:10Z</time>
      </trkpt>
      <trkpt lat="48.58814" lon="1.94877">
        <ele>143</ele>
        <time>2019-02-21T11:04:14Z</time>
      </trkpt>
      <trkpt lat="48.58807" lon="1.9487">
        <ele>144</ele>
        <time>2019-02-21T11:04:18Z</time>
      </trkpt>
      <trkpt lat="48.58802" lon="1.94863">
        <ele>144</ele>
        <time>2019-02-21T11:04:22Z</time>
      </trkpt>
      <trkpt lat="48.58797" lon="1.94859">
        <ele>144</ele>
        <time>2019-02-21T11:04:24Z</time>
      </trkpt>
      <trkpt lat="48.58792" lon="1.94856">
        <ele>145</ele>
        <time>2019-02-21T11:04:28Z</time>
      </trkpt>
      <trkpt lat="48.58786" lon="1.94852">
        <ele>145</ele>
        <time>2019-02-21T11:04:32Z</time>
      </trkpt>
      <trkpt lat="48.58782" lon="1.94845">
        <ele>145</ele>
        <time>2019-02-21T11:04:34Z</time>
      </trkpt>
      <trkpt lat="48.58778" lon="1.94838">
        <ele>146</ele>
        <time>2019-02-21T11:04:36Z</time>
      </trkpt>
      <trkpt lat="48.58771" lon="1.94833">
        <ele>148</ele>
        <time>2019-02-21T11:04:40Z</time>
      </trkpt>
      <trkpt lat="48.58766" lon="1.9483">
        <ele>148</ele>
        <time>2019-02-21T11:04:46Z</time>
      </trkpt>
      <trkpt lat="48.58761" lon="1.94829">
        <ele>148</ele>
        <time>2019-02-21T11:04:50Z</time>
      </trkpt>
      <trkpt lat="48.58755" lon="1.94825">
        <ele>148</ele>
        <time>2019-02-21T11:04:54Z</time>
      </trkpt>
      <trkpt lat="48.5875" lon="1.9482">
        <ele>148</ele>
        <time>2019-02-21T11:05:00Z</time>
      </trkpt>
      <trkpt lat="48.58747" lon="1.94814">
        <ele>150</ele>
        <time>2019-02-21T11:05:04Z</time>
      </trkpt>
      <trkpt lat="48.5874" lon="1.94812">
        <ele>151</ele>
        <time>2019-02-21T11:05:08Z</time>
      </trkpt>
      <trkpt lat="48.58734" lon="1.94808">
        <ele>151</ele>
        <time>2019-02-21T11:05:12Z</time>
      </trkpt>
      <trkpt lat="48.58729" lon="1.94804">
        <ele>151</ele>
        <time>2019-02-21T11:05:16Z</time>
      </trkpt>
      <trkpt lat="48.58722" lon="1.94799">
        <ele>152</ele>
        <time>2019-02-21T11:05:22Z</time>
      </trkpt>
      <trkpt lat="48.58718" lon="1.94794">
        <ele>152</ele>
        <time>2019-02-21T11:05:26Z</time>
      </trkpt>
      <trkpt lat="48.58713" lon="1.9479">
        <ele>152</ele>
        <time>2019-02-21T11:05:30Z</time>
      </trkpt>
      <trkpt lat="48.58708" lon="1.94788">
        <ele>152</ele>
        <time>2019-02-21T11:05:34Z</time>
      </trkpt>
      <trkpt lat="48.58702" lon="1.94786">
        <ele>152</ele>
        <time>2019-02-21T11:05:38Z</time>
      </trkpt>
      <trkpt lat="48.58696" lon="1.94786">
        <ele>153</ele>
        <time>2019-02-21T11:05:42Z</time>
      </trkpt>
      <trkpt lat="48.58689" lon="1.94781">
        <ele>153</ele>
        <time>2019-02-21T11:05:46Z</time>
      </trkpt>
      <trkpt lat="48.58682" lon="1.94777">
        <ele>153</ele>
        <time>2019-02-21T11:05:50Z</time>
      </trkpt>
      <trkpt lat="48.58676" lon="1.94771">
        <ele>153</ele>
        <time>2019-02-21T11:05:54Z</time>
      </trkpt>
      <trkpt lat="48.5867" lon="1.94769">
        <ele>153</ele>
        <time>2019-02-21T11:05:58Z</time>
      </trkpt>
      <trkpt lat="48.58664" lon="1.94767">
        <ele>156</ele>
        <time>2019-02-21T11:06:02Z</time>
      </trkpt>
      <trkpt lat="48.58657" lon="1.94763">
        <ele>156</ele>
        <time>2019-02-21T11:06:06Z</time>
      </trkpt>
      <trkpt lat="48.58649" lon="1.94762">
        <ele>156</ele>
        <time>2019-02-21T11:06:10Z</time>
      </trkpt>
      <trkpt lat="48.58641" lon="1.94761">
        <ele>157</ele>
        <time>2019-02-21T11:06:14Z</time>
      </trkpt>
      <trkpt lat="48.58634" lon="1.9476">
        <ele>157</ele>
        <time>2019-02-21T11:06:18Z</time>
      </trkpt>
      <trkpt lat="48.58629" lon="1.94758">
        <ele>157</ele>
        <time>2019-02-21T11:06:22Z</time>
      </trkpt>
      <trkpt lat="48.58622" lon="1.94759">
        <ele>158</ele>
        <time>2019-02-21T11:06:26Z</time>
      </trkpt>
      <trkpt lat="48.58617" lon="1.94757">
        <ele>158</ele>
        <time>2019-02-21T11:06:30Z</time>
      </trkpt>
      <trkpt lat="48.5861" lon="1.9475">
        <ele>159</ele>
        <time>2019-02-21T11:06:34Z</time>
      </trkpt>
      <trkpt lat="48.58604" lon="1.94745">
        <ele>158</ele>
        <time>2019-02-21T11:06:38Z</time>
      </trkpt>
      <trkpt lat="48.58597" lon="1.94735">
        <ele>158</ele>
        <time>2019-02-21T11:06:42Z</time>
      </trkpt>
      <trkpt lat="48.58589" lon="1.9473">
        <ele>158</ele>
        <time>2019-02-21T11:06:46Z</time>
      </trkpt>
      <trkpt lat="48.58584" lon="1.94724">
        <ele>158</ele>
        <time>2019-02-21T11:06:50Z</time>
      </trkpt>
      <trkpt lat="48.58576" lon="1.94718">
        <ele>161</ele>
        <time>2019-02-21T11:06:56Z</time>
      </trkpt>
      <trkpt lat="48.58568" lon="1.94715">
        <ele>161</ele>
        <time>2019-02-21T11:07:00Z</time>
      </trkpt>
      <trkpt lat="48.58563" lon="1.94712">
        <ele>161</ele>
        <time>2019-02-21T11:07:04Z</time>
      </trkpt>
      <trkpt lat="48.58557" lon="1.9471">
        <ele>161</ele>
        <time>2019-02-21T11:07:08Z</time>
      </trkpt>
      <trkpt lat="48.58552" lon="1.94709">
        <ele>161</ele>
        <time>2019-02-21T11:07:12Z</time>
      </trkpt>
      <trkpt lat="48.58546" lon="1.94705">
        <ele>161</ele>
        <time>2019-02-21T11:07:16Z</time>
      </trkpt>
      <trkpt lat="48.5854" lon="1.94705">
        <ele>161</ele>
        <time>2019-02-21T11:07:20Z</time>
      </trkpt>
      <trkpt lat="48.58534" lon="1.94703">
        <ele>161</ele>
        <time>2019-02-21T11:07:24Z</time>
      </trkpt>
      <trkpt lat="48.5853" lon="1.94699">
        <ele>161</ele>
        <time>2019-02-21T11:07:28Z</time>
      </trkpt>
      <trkpt lat="48.58523" lon="1.94693">
        <ele>161</ele>
        <time>2019-02-21T11:07:32Z</time>
      </trkpt>
      <trkpt lat="48.58519" lon="1.9469">
        <ele>161</ele>
        <time>2019-02-21T11:07:36Z</time>
      </trkpt>
      <trkpt lat="48.58513" lon="1.94687">
        <ele>161</ele>
        <time>2019-02-21T11:07:40Z</time>
      </trkpt>
      <trkpt lat="48.58505" lon="1.94681">
        <ele>161</ele>
        <time>2019-02-21T11:07:44Z</time>
      </trkpt>
      <trkpt lat="48.58498" lon="1.94677">
        <ele>161</ele>
        <time>2019-02-21T11:07:48Z</time>
      </trkpt>
      <trkpt lat="48.58491" lon="1.94674">
        <ele>161</ele>
        <time>2019-02-21T11:07:52Z</time>
      </trkpt>
      <trkpt lat="48.58486" lon="1.9467">
        <ele>161</ele>
        <time>2019-02-21T11:07:56Z</time>
      </trkpt>
      <trkpt lat="48.5848" lon="1.94665">
        <ele>160</ele>
        <time>2019-02-21T11:08:00Z</time>
      </trkpt>
      <trkpt lat="48.58474" lon="1.9466">
        <ele>160</ele>
        <time>2019-02-21T11:08:04Z</time>
      </trkpt>
      <trkpt lat="48.58469" lon="1.94659">
        <ele>160</ele>
        <time>2019-02-21T11:08:08Z</time>
      </trkpt>
      <trkpt lat="48.58463" lon="1.94658">
        <ele>160</ele>
        <time>2019-02-21T11:08:12Z</time>
      </trkpt>
      <trkpt lat="48.58459" lon="1.94658">
        <ele>160</ele>
        <time>2019-02-21T11:08:16Z</time>
      </trkpt>
      <trkpt lat="48.58454" lon="1.94658">
        <ele>160</ele>
        <time>2019-02-21T11:08:20Z</time>
      </trkpt>
      <trkpt lat="48.58447" lon="1.94656">
        <ele>160</ele>
        <time>2019-02-21T11:08:26Z</time>
      </trkpt>
      <trkpt lat="48.58441" lon="1.94658">
        <ele>160</ele>
        <time>2019-02-21T11:08:32Z</time>
      </trkpt>
      <trkpt lat="48.58436" lon="1.94658">
        <ele>160</ele>
        <time>2019-02-21T11:08:36Z</time>
      </trkpt>
      <trkpt lat="48.5843" lon="1.94657">
        <ele>160</ele>
        <time>2019-02-21T11:08:40Z</time>
      </trkpt>
      <trkpt lat="48.58425" lon="1.94657">
        <ele>160</ele>
        <time>2019-02-21T11:08:44Z</time>
      </trkpt>
      <trkpt lat="48.5842" lon="1.94658">
        <ele>160</ele>
        <time>2019-02-21T11:08:48Z</time>
      </trkpt>
      <trkpt lat="48.58414" lon="1.94657">
        <ele>158</ele>
        <time>2019-02-21T11:08:52Z</time>
      </trkpt>
      <trkpt lat="48.58408" lon="1.94656">
        <ele>158</ele>
        <time>2019-02-21T11:08:58Z</time>
      </trkpt>
      <trkpt lat="48.58401" lon="1.94653">
        <ele>157</ele>
        <time>2019-02-21T11:09:02Z</time>
      </trkpt>
      <trkpt lat="48.58394" lon="1.94652">
        <ele>156</ele>
        <time>2019-02-21T11:09:06Z</time>
      </trkpt>
      <trkpt lat="48.58387" lon="1.94655">
        <ele>156</ele>
        <time>2019-02-21T11:09:10Z</time>
      </trkpt>
      <trkpt lat="48.58379" lon="1.94655">
        <ele>155</ele>
        <time>2019-02-21T11:09:14Z</time>
      </trkpt>
      <trkpt lat="48.58373" lon="1.94655">
        <ele>155</ele>
        <time>2019-02-21T11:09:18Z</time>
      </trkpt>
      <trkpt lat="48.58368" lon="1.94656">
        <ele>155</ele>
        <time>2019-02-21T11:09:22Z</time>
      </trkpt>
      <trkpt lat="48.58361" lon="1.94656">
        <ele>154</ele>
        <time>2019-02-21T11:09:26Z</time>
      </trkpt>
      <trkpt lat="48.58353" lon="1.94654">
        <ele>154</ele>
        <time>2019-02-21T11:09:30Z</time>
      </trkpt>
      <trkpt lat="48.58344" lon="1.94654">
        <ele>153</ele>
        <time>2019-02-21T11:09:34Z</time>
      </trkpt>
      <trkpt lat="48.58339" lon="1.9465">
        <ele>153</ele>
        <time>2019-02-21T11:09:38Z</time>
      </trkpt>
      <trkpt lat="48.58331" lon="1.94649">
        <ele>149</ele>
        <time>2019-02-21T11:09:42Z</time>
      </trkpt>
      <trkpt lat="48.58325" lon="1.94644">
        <ele>149</ele>
        <time>2019-02-21T11:09:46Z</time>
      </trkpt>
      <trkpt lat="48.58319" lon="1.94645">
        <ele>148</ele>
        <time>2019-02-21T11:09:50Z</time>
      </trkpt>
      <trkpt lat="48.58312" lon="1.94646">
        <ele>148</ele>
        <time>2019-02-21T11:09:54Z</time>
      </trkpt>
      <trkpt lat="48.58303" lon="1.94647">
        <ele>147</ele>
        <time>2019-02-21T11:09:58Z</time>
      </trkpt>
      <trkpt lat="48.58294" lon="1.94644">
        <ele>146</ele>
        <time>2019-02-21T11:10:02Z</time>
      </trkpt>
      <trkpt lat="48.5829" lon="1.9464">
        <ele>146</ele>
        <time>2019-02-21T11:10:04Z</time>
      </trkpt>
      <trkpt lat="48.58285" lon="1.94639">
        <ele>146</ele>
        <time>2019-02-21T11:10:06Z</time>
      </trkpt>
      <trkpt lat="48.58278" lon="1.94638">
        <ele>145</ele>
        <time>2019-02-21T11:10:10Z</time>
      </trkpt>
      <trkpt lat="48.58273" lon="1.94641">
        <ele>145</ele>
        <time>2019-02-21T11:10:14Z</time>
      </trkpt>
      <trkpt lat="48.58266" lon="1.94638">
        <ele>145</ele>
        <time>2019-02-21T11:10:18Z</time>
      </trkpt>
      <trkpt lat="48.5826" lon="1.94637">
        <ele>144</ele>
        <time>2019-02-21T11:10:22Z</time>
      </trkpt>
      <trkpt lat="48.58254" lon="1.94633">
        <ele>144</ele>
        <time>2019-02-21T11:10:26Z</time>
      </trkpt>
      <trkpt lat="48.58247" lon="1.94632">
        <ele>138</ele>
        <time>2019-02-21T11:10:30Z</time>
      </trkpt>
      <trkpt lat="48.5824" lon="1.94629">
        <ele>138</ele>
        <time>2019-02-21T11:10:34Z</time>
      </trkpt>
      <trkpt lat="48.58232" lon="1.94629">
        <ele>138</ele>
        <time>2019-02-21T11:10:38Z</time>
      </trkpt>
      <trkpt lat="48.58224" lon="1.94629">
        <ele>137</ele>
        <time>2019-02-21T11:10:42Z</time>
      </trkpt>
      <trkpt lat="48.58218" lon="1.94625">
        <ele>137</ele>
        <time>2019-02-21T11:10:46Z</time>
      </trkpt>
      <trkpt lat="48.58211" lon="1.94623">
        <ele>136</ele>
        <time>2019-02-21T11:10:50Z</time>
      </trkpt>
      <trkpt lat="48.58205" lon="1.9462">
        <ele>136</ele>
        <time>2019-02-21T11:10:54Z</time>
      </trkpt>
      <trkpt lat="48.58199" lon="1.94617">
        <ele>136</ele>
        <time>2019-02-21T11:10:58Z</time>
      </trkpt>
      <trkpt lat="48.58193" lon="1.94614">
        <ele>135</ele>
        <time>2019-02-21T11:11:02Z</time>
      </trkpt>
      <trkpt lat="48.58189" lon="1.94614">
        <ele>135</ele>
        <time>2019-02-21T11:11:10Z</time>
      </trkpt>
      <trkpt lat="48.58194" lon="1.94611">
        <ele>135</ele>
        <time>2019-02-21T11:13:18Z</time>
      </trkpt>
      <trkpt lat="48.58187" lon="1.94613">
        <ele>135</ele>
        <time>2019-02-21T11:14:18Z</time>
      </trkpt>
      <trkpt lat="48.58182" lon="1.94613">
        <ele>135</ele>
        <time>2019-02-21T11:14:22Z</time>
      </trkpt>
      <trkpt lat="48.58175" lon="1.94611">
        <ele>134</ele>
        <time>2019-02-21T11:14:26Z</time>
      </trkpt>
      <trkpt lat="48.58168" lon="1.9461">
        <ele>134</ele>
        <time>2019-02-21T11:14:30Z</time>
      </trkpt>
      <trkpt lat="48.58163" lon="1.94607">
        <ele>131</ele>
        <time>2019-02-21T11:14:34Z</time>
      </trkpt>
      <trkpt lat="48.58158" lon="1.94605">
        <ele>131</ele>
        <time>2019-02-21T11:14:38Z</time>
      </trkpt>
      <trkpt lat="48.58153" lon="1.94603">
        <ele>131</ele>
        <time>2019-02-21T11:14:42Z</time>
      </trkpt>
      <trkpt lat="48.58145" lon="1.94602">
        <ele>131</ele>
        <time>2019-02-21T11:14:48Z</time>
      </trkpt>
      <trkpt lat="48.58141" lon="1.94599">
        <ele>131</ele>
        <time>2019-02-21T11:14:52Z</time>
      </trkpt>
      <trkpt lat="48.58135" lon="1.94598">
        <ele>131</ele>
        <time>2019-02-21T11:14:56Z</time>
      </trkpt>
      <trkpt lat="48.5813" lon="1.94602">
        <ele>131</ele>
        <time>2019-02-21T11:15:02Z</time>
      </trkpt>
      <trkpt lat="48.5813" lon="1.94609">
        <ele>131</ele>
        <time>2019-02-21T11:15:08Z</time>
      </trkpt>
      <trkpt lat="48.5813" lon="1.94618">
        <ele>131</ele>
        <time>2019-02-21T11:15:14Z</time>
      </trkpt>
      <trkpt lat="48.5813" lon="1.94626">
        <ele>131</ele>
        <time>2019-02-21T11:15:18Z</time>
      </trkpt>
      <trkpt lat="48.5813" lon="1.94634">
        <ele>131</ele>
        <time>2019-02-21T11:15:22Z</time>
      </trkpt>
      <trkpt lat="48.5813" lon="1.94642">
        <ele>131</ele>
        <time>2019-02-21T11:15:26Z</time>
      </trkpt>
      <trkpt lat="48.5813" lon="1.94651">
        <ele>131</ele>
        <time>2019-02-21T11:15:30Z</time>
      </trkpt>
      <trkpt lat="48.58128" lon="1.94659">
        <ele>131</ele>
        <time>2019-02-21T11:15:34Z</time>
      </trkpt>
      <trkpt lat="48.58127" lon="1.94669">
        <ele>131</ele>
        <time>2019-02-21T11:15:38Z</time>
      </trkpt>
      <trkpt lat="48.58126" lon="1.94678">
        <ele>131</ele>
        <time>2019-02-21T11:15:42Z</time>
      </trkpt>
      <trkpt lat="48.58125" lon="1.94686">
        <ele>131</ele>
        <time>2019-02-21T11:15:46Z</time>
      </trkpt>
      <trkpt lat="48.58123" lon="1.94693">
        <ele>131</ele>
        <time>2019-02-21T11:15:50Z</time>
      </trkpt>
      <trkpt lat="48.58121" lon="1.94701">
        <ele>131</ele>
        <time>2019-02-21T11:15:54Z</time>
      </trkpt>
      <trkpt lat="48.5812" lon="1.9471">
        <ele>131</ele>
        <time>2019-02-21T11:15:58Z</time>
      </trkpt>
      <trkpt lat="48.58119" lon="1.94718">
        <ele>131</ele>
        <time>2019-02-21T11:16:02Z</time>
      </trkpt>
      <trkpt lat="48.58117" lon="1.94725">
        <ele>131</ele>
        <time>2019-02-21T11:16:04Z</time>
      </trkpt>
      <trkpt lat="48.58117" lon="1.94733">
        <ele>131</ele>
        <time>2019-02-21T11:16:08Z</time>
      </trkpt>
      <trkpt lat="48.58116" lon="1.94742">
        <ele>131</ele>
        <time>2019-02-21T11:16:12Z</time>
      </trkpt>
      <trkpt lat="48.58116" lon="1.94751">
        <ele>130</ele>
        <time>2019-02-21T11:16:16Z</time>
      </trkpt>
      <trkpt lat="48.58114" lon="1.94763">
        <ele>130</ele>
        <time>2019-02-21T11:16:22Z</time>
      </trkpt>
      <trkpt lat="48.58113" lon="1.94773">
        <ele>130</ele>
        <time>2019-02-21T11:16:28Z</time>
      </trkpt>
      <trkpt lat="48.58111" lon="1.94783">
        <ele>130</ele>
        <time>2019-02-21T11:16:32Z</time>
      </trkpt>
      <trkpt lat="48.5811" lon="1.94792">
        <ele>130</ele>
        <time>2019-02-21T11:16:36Z</time>
      </trkpt>
      <trkpt lat="48.58109" lon="1.94802">
        <ele>130</ele>
        <time>2019-02-21T11:16:40Z</time>
      </trkpt>
      <trkpt lat="48.58108" lon="1.94811">
        <ele>130</ele>
        <time>2019-02-21T11:16:44Z</time>
      </trkpt>
      <trkpt lat="48.58106" lon="1.94821">
        <ele>129</ele>
        <time>2019-02-21T11:16:48Z</time>
      </trkpt>
      <trkpt lat="48.58105" lon="1.94831">
        <ele>129</ele>
        <time>2019-02-21T11:16:52Z</time>
      </trkpt>
      <trkpt lat="48.58105" lon="1.94839">
        <ele>129</ele>
        <time>2019-02-21T11:16:56Z</time>
      </trkpt>
      <trkpt lat="48.58103" lon="1.94849">
        <ele>130</ele>
        <time>2019-02-21T11:17:00Z</time>
      </trkpt>
      <trkpt lat="48.58103" lon="1.94856">
        <ele>130</ele>
        <time>2019-02-21T11:17:04Z</time>
      </trkpt>
      <trkpt lat="48.58102" lon="1.94864">
        <ele>130</ele>
        <time>2019-02-21T11:17:08Z</time>
      </trkpt>
      <trkpt lat="48.58101" lon="1.94874">
        <ele>130</ele>
        <time>2019-02-21T11:17:14Z</time>
      </trkpt>
      <trkpt lat="48.58099" lon="1.94885">
        <ele>130</ele>
        <time>2019-02-21T11:17:18Z</time>
      </trkpt>
      <trkpt lat="48.58098" lon="1.94894">
        <ele>130</ele>
        <time>2019-02-21T11:17:22Z</time>
      </trkpt>
      <trkpt lat="48.58096" lon="1.94905">
        <ele>130</ele>
        <time>2019-02-21T11:17:26Z</time>
      </trkpt>
      <trkpt lat="48.58095" lon="1.94914">
        <ele>130</ele>
        <time>2019-02-21T11:17:32Z</time>
      </trkpt>
      <trkpt lat="48.58094" lon="1.94921">
        <ele>131</ele>
        <time>2019-02-21T11:17:36Z</time>
      </trkpt>
      <trkpt lat="48.58091" lon="1.94929">
        <ele>132</ele>
        <time>2019-02-21T11:17:42Z</time>
      </trkpt>
      <trkpt lat="48.58092" lon="1.94936">
        <ele>132</ele>
        <time>2019-02-21T11:17:46Z</time>
      </trkpt>
      <trkpt lat="48.5809" lon="1.94942">
        <ele>133</ele>
        <time>2019-02-21T11:17:50Z</time>
      </trkpt>
      <trkpt lat="48.5809" lon="1.9495">
        <ele>133</ele>
        <time>2019-02-21T11:17:56Z</time>
      </trkpt>
      <trkpt lat="48.58087" lon="1.94955">
        <ele>134</ele>
        <time>2019-02-21T11:18:04Z</time>
      </trkpt>
      <trkpt lat="48.58081" lon="1.94959">
        <ele>132</ele>
        <time>2019-02-21T11:18:08Z</time>
      </trkpt>
      <trkpt lat="48.58074" lon="1.94964">
        <ele>132</ele>
        <time>2019-02-21T11:18:12Z</time>
      </trkpt>
      <trkpt lat="48.5807" lon="1.94964">
        <ele>132</ele>
        <time>2019-02-21T11:18:16Z</time>
      </trkpt>
      <trkpt lat="48.58063" lon="1.94966">
        <ele>133</ele>
        <time>2019-02-21T11:18:20Z</time>
      </trkpt>
      <trkpt lat="48.58058" lon="1.94968">
        <ele>133</ele>
        <time>2019-02-21T11:18:24Z</time>
      </trkpt>
      <trkpt lat="48.58053" lon="1.9497">
        <ele>133</ele>
        <time>2019-02-21T11:18:28Z</time>
      </trkpt>
      <trkpt lat="48.58048" lon="1.94972">
        <ele>133</ele>
        <time>2019-02-21T11:18:32Z</time>
      </trkpt>
      <trkpt lat="48.58043" lon="1.94972">
        <ele>133</ele>
        <time>2019-02-21T11:18:36Z</time>
      </trkpt>
      <trkpt lat="48.58038" lon="1.94974">
        <ele>133</ele>
        <time>2019-02-21T11:18:40Z</time>
      </trkpt>
      <trkpt lat="48.58032" lon="1.94974">
        <ele>133</ele>
        <time>2019-02-21T11:18:44Z</time>
      </trkpt>
      <trkpt lat="48.58027" lon="1.94976">
        <ele>133</ele>
        <time>2019-02-21T11:18:48Z</time>
      </trkpt>
      <trkpt lat="48.58022" lon="1.94976">
        <ele>133</ele>
        <time>2019-02-21T11:18:52Z</time>
      </trkpt>
      <trkpt lat="48.58016" lon="1.94978">
        <ele>133</ele>
        <time>2019-02-21T11:18:58Z</time>
      </trkpt>
      <trkpt lat="48.5801" lon="1.94976">
        <ele>133</ele>
        <time>2019-02-21T11:19:02Z</time>
      </trkpt>
      <trkpt lat="48.58004" lon="1.94973">
        <ele>133</ele>
        <time>2019-02-21T11:19:06Z</time>
      </trkpt>
      <trkpt lat="48.57999" lon="1.94975">
        <ele>133</ele>
        <time>2019-02-21T11:19:10Z</time>
      </trkpt>
      <trkpt lat="48.57995" lon="1.94975">
        <ele>133</ele>
        <time>2019-02-21T11:19:14Z</time>
      </trkpt>
      <trkpt lat="48.57988" lon="1.94973">
        <ele>132</ele>
        <time>2019-02-21T11:19:18Z</time>
      </trkpt>
      <trkpt lat="48.57981" lon="1.9497">
        <ele>132</ele>
        <time>2019-02-21T11:19:22Z</time>
      </trkpt>
      <trkpt lat="48.57975" lon="1.94969">
        <ele>132</ele>
        <time>2019-02-21T11:19:26Z</time>
      </trkpt>
      <trkpt lat="48.5797" lon="1.94967">
        <ele>131</ele>
        <time>2019-02-21T11:19:30Z</time>
      </trkpt>
      <trkpt lat="48.57964" lon="1.94967">
        <ele>131</ele>
        <time>2019-02-21T11:19:34Z</time>
      </trkpt>
      <trkpt lat="48.57959" lon="1.94967">
        <ele>131</ele>
        <time>2019-02-21T11:19:40Z</time>
      </trkpt>
      <trkpt lat="48.57953" lon="1.94965">
        <ele>131</ele>
        <time>2019-02-21T11:19:44Z</time>
      </trkpt>
      <trkpt lat="48.57947" lon="1.94965">
        <ele>131</ele>
        <time>2019-02-21T11:19:48Z</time>
      </trkpt>
      <trkpt lat="48.5794" lon="1.94963">
        <ele>131</ele>
        <time>2019-02-21T11:19:52Z</time>
      </trkpt>
      <trkpt lat="48.57935" lon="1.94963">
        <ele>130</ele>
        <time>2019-02-21T11:19:54Z</time>
      </trkpt>
      <trkpt lat="48.57931" lon="1.9496">
        <ele>130</ele>
        <time>2019-02-21T11:19:56Z</time>
      </trkpt>
      <trkpt lat="48.57925" lon="1.94961">
        <ele>130</ele>
        <time>2019-02-21T11:20:00Z</time>
      </trkpt>
      <trkpt lat="48.5792" lon="1.94962">
        <ele>130</ele>
        <time>2019-02-21T11:20:04Z</time>
      </trkpt>
      <trkpt lat="48.57915" lon="1.94961">
        <ele>129</ele>
        <time>2019-02-21T11:20:08Z</time>
      </trkpt>
      <trkpt lat="48.57909" lon="1.94956">
        <ele>128</ele>
        <time>2019-02-21T11:20:10Z</time>
      </trkpt>
      <trkpt lat="48.57904" lon="1.94954">
        <ele>128</ele>
        <time>2019-02-21T11:20:14Z</time>
      </trkpt>
      <trkpt lat="48.57899" lon="1.9495">
        <ele>128</ele>
        <time>2019-02-21T11:20:16Z</time>
      </trkpt>
      <trkpt lat="48.57893" lon="1.94952">
        <ele>128</ele>
        <time>2019-02-21T11:20:22Z</time>
      </trkpt>
      <trkpt lat="48.57888" lon="1.9495">
        <ele>128</ele>
        <time>2019-02-21T11:20:28Z</time>
      </trkpt>
      <trkpt lat="48.57883" lon="1.94951">
        <ele>128</ele>
        <time>2019-02-21T11:20:32Z</time>
      </trkpt>
      <trkpt lat="48.57878" lon="1.94949">
        <ele>128</ele>
        <time>2019-02-21T11:20:36Z</time>
      </trkpt>
      <trkpt lat="48.57872" lon="1.94947">
        <ele>128</ele>
        <time>2019-02-21T11:20:42Z</time>
      </trkpt>
      <trkpt lat="48.57865" lon="1.94943">
        <ele>128</ele>
        <time>2019-02-21T11:20:48Z</time>
      </trkpt>
      <trkpt lat="48.5786" lon="1.94938">
        <ele>128</ele>
        <time>2019-02-21T11:20:52Z</time>
      </trkpt>
      <trkpt lat="48.57855" lon="1.94931">
        <ele>128</ele>
        <time>2019-02-21T11:20:56Z</time>
      </trkpt>
      <trkpt lat="48.5785" lon="1.94923">
        <ele>128</ele>
        <time>2019-02-21T11:21:00Z</time>
      </trkpt>
      <trkpt lat="48.57846" lon="1.94917">
        <ele>127</ele>
        <time>2019-02-21T11:21:04Z</time>
      </trkpt>
      <trkpt lat="48.57842" lon="1.94912">
        <ele>127</ele>
        <time>2019-02-21T11:21:08Z</time>
      </trkpt>
      <trkpt lat="48.57838" lon="1.94908">
        <ele>127</ele>
        <time>2019-02-21T11:21:12Z</time>
      </trkpt>
      <trkpt lat="48.57834" lon="1.94903">
        <ele>127</ele>
        <time>2019-02-21T11:21:16Z</time>
      </trkpt>
      <trkpt lat="48.57831" lon="1.94896">
        <ele>126</ele>
        <time>2019-02-21T11:21:20Z</time>
      </trkpt>
      <trkpt lat="48.57826" lon="1.94891">
        <ele>126</ele>
        <time>2019-02-21T11:21:26Z</time>
      </trkpt>
      <trkpt lat="48.57821" lon="1.94884">
        <ele>125</ele>
        <time>2019-02-21T11:21:32Z</time>
      </trkpt>
      <trkpt lat="48.57818" lon="1.94879">
        <ele>125</ele>
        <time>2019-02-21T11:21:36Z</time>
      </trkpt>
      <trkpt lat="48.57813" lon="1.94872">
        <ele>125</ele>
        <time>2019-02-21T11:21:40Z</time>
      </trkpt>
      <trkpt lat="48.57807" lon="1.94866">
        <ele>125</ele>
        <time>2019-02-21T11:21:46Z</time>
      </trkpt>
      <trkpt lat="48.57801" lon="1.94859">
        <ele>125</ele>
        <time>2019-02-21T11:21:50Z</time>
      </trkpt>
      <trkpt lat="48.57797" lon="1.94855">
        <ele>125</ele>
        <time>2019-02-21T11:21:58Z</time>
      </trkpt>
      <trkpt lat="48.57793" lon="1.94851">
        <ele>125</ele>
        <time>2019-02-21T11:22:06Z</time>
      </trkpt>
      <trkpt lat="48.57798" lon="1.94854">
        <ele>125</ele>
        <time>2019-02-21T11:22:12Z</time>
      </trkpt>
      <trkpt lat="48.57793" lon="1.94855">
        <ele>125</ele>
        <time>2019-02-21T11:22:24Z</time>
      </trkpt>
    </trkseg>
  </trk>
</gpx>